<?xml version='1.0' encoding='UTF-8'?><gpx version="1.1" creator="JPX - https://github.com/jenetics/jpx" xmlns="http://www.topografix.com/GPX/1/1"><trk><trkseg><trkpt lat="43.307158935844164" lon="11.936793034106982"><ele>361.0</ele><time>2026-03-31T07:24:48Z</time></trkpt><trkpt lat="43.30722476199133" lon="11.936738703179222"><ele>361.0</ele><time>2026-03-31T07:24:54Z</time></trkpt><trkpt lat="43.307293283638785" lon="11.93674172246975"><ele>361.0</ele><time>2026-03-31T07:24:58Z</time></trkpt><trkpt lat="43.30736146413343" lon="11.93672637233663"><ele>361.0</ele><time>2026-03-31T07:25:01Z</time></trkpt><trkpt lat="43.30744497803708" lon="11.93671576600385"><ele>361.0</ele><time>2026-03-31T07:25:05Z</time></trkpt><trkpt lat="43.307515782431835" lon="11.936718248111784"><ele>361.0</ele><time>2026-03-31T07:25:08Z</time></trkpt><trkpt lat="43.307587355749774" lon="11.936757420135546"><ele>361.0</ele><time>2026-03-31T07:25:11Z</time></trkpt><trkpt lat="43.30765165106158" lon="11.936766581806204"><ele>359.42857142857144</ele><time>2026-03-31T07:25:16Z</time></trkpt><trkpt lat="43.30772754328835" lon="11.936795904964507"><ele>357.85714285714283</ele><time>2026-03-31T07:25:31Z</time></trkpt><trkpt lat="43.307775140738414" lon="11.936853479180915"><ele>356.2857142857143</ele><time>2026-03-31T07:25:34Z</time></trkpt><trkpt lat="43.30782885920758" lon="11.93693617527616"><ele>354.7142857142857</ele><time>2026-03-31T07:25:37Z</time></trkpt><trkpt lat="43.3078742817164" lon="11.93700204056661"><ele>353.1428571428571</ele><time>2026-03-31T07:25:40Z</time></trkpt><trkpt lat="43.30786871026472" lon="11.937107489930401"><ele>351.57142857142856</ele><time>2026-03-31T07:25:44Z</time></trkpt><trkpt lat="43.30782590849365" lon="11.93718416911952"><ele>350.0</ele><time>2026-03-31T07:25:47Z</time></trkpt><trkpt lat="43.30776825642899" lon="11.937256698438489"><ele>350.0</ele><time>2026-03-31T07:25:51Z</time></trkpt><trkpt lat="43.30772301353424" lon="11.937350795423358"><ele>350.0</ele><time>2026-03-31T07:25:55Z</time></trkpt><trkpt lat="43.30766968157035" lon="11.937423113689231"><ele>350.0</ele><time>2026-03-31T07:25:59Z</time></trkpt><trkpt lat="43.30761387803534" lon="11.937465563027814"><ele>350.0</ele><time>2026-03-31T07:26:03Z</time></trkpt><trkpt lat="43.3075533011984" lon="11.937538035262053"><ele>350.0</ele><time>2026-03-31T07:26:08Z</time></trkpt><trkpt lat="43.307496745871426" lon="11.937608083016755"><ele>350.0</ele><time>2026-03-31T07:26:12Z</time></trkpt><trkpt lat="43.30743915872265" lon="11.937661911419452"><ele>350.0</ele><time>2026-03-31T07:26:17Z</time></trkpt><trkpt lat="43.307393347623886" lon="11.93772723618325"><ele>350.2857142857143</ele><time>2026-03-31T07:26:24Z</time></trkpt><trkpt lat="43.30737316447371" lon="11.937815556924507"><ele>350.57142857142856</ele><time>2026-03-31T07:26:31Z</time></trkpt><trkpt lat="43.307327716903465" lon="11.937881818124788"><ele>350.8571428571429</ele><time>2026-03-31T07:26:39Z</time></trkpt><trkpt lat="43.307301710374276" lon="11.937965178490943"><ele>351.1428571428571</ele><time>2026-03-31T07:26:47Z</time></trkpt><trkpt lat="43.307263477700154" lon="11.938039314232167"><ele>351.42857142857144</ele><time>2026-03-31T07:26:55Z</time></trkpt><trkpt lat="43.30720724921354" lon="11.938114923808977"><ele>351.7142857142857</ele><time>2026-03-31T07:27:02Z</time></trkpt><trkpt lat="43.30715410115054" lon="11.93817817856162"><ele>352.0</ele><time>2026-03-31T07:27:06Z</time></trkpt><trkpt lat="43.307099642853345" lon="11.938227083821339"><ele>353.0</ele><time>2026-03-31T07:27:10Z</time></trkpt><trkpt lat="43.30702801687502" lon="11.938252096793711"><ele>354.0</ele><time>2026-03-31T07:27:15Z</time></trkpt><trkpt lat="43.30695556244009" lon="11.938289896416178"><ele>355.0</ele><time>2026-03-31T07:27:19Z</time></trkpt><trkpt lat="43.30687328426649" lon="11.938302107576495"><ele>356.0</ele><time>2026-03-31T07:27:23Z</time></trkpt><trkpt lat="43.30680309730036" lon="11.938278265854308"><ele>357.0</ele><time>2026-03-31T07:27:26Z</time></trkpt><trkpt lat="43.30672274938905" lon="11.938265734427144"><ele>358.0</ele><time>2026-03-31T07:27:30Z</time></trkpt><trkpt lat="43.306641729710215" lon="11.938250767318495"><ele>358.0</ele><time>2026-03-31T07:27:34Z</time></trkpt><trkpt lat="43.30657490947803" lon="11.93823901016172"><ele>358.0</ele><time>2026-03-31T07:27:37Z</time></trkpt><trkpt lat="43.306502448072884" lon="11.938224187518928"><ele>358.0</ele><time>2026-03-31T07:27:42Z</time></trkpt><trkpt lat="43.30643854038575" lon="11.938189698420487"><ele>358.0</ele><time>2026-03-31T07:27:47Z</time></trkpt><trkpt lat="43.306356313762755" lon="11.938158543550335"><ele>358.0</ele><time>2026-03-31T07:27:51Z</time></trkpt><trkpt lat="43.30627249534426" lon="11.938130502536358"><ele>358.0</ele><time>2026-03-31T07:27:54Z</time></trkpt><trkpt lat="43.30620307607289" lon="11.938109267052212"><ele>358.0</ele><time>2026-03-31T07:27:57Z</time></trkpt><trkpt lat="43.30612321073011" lon="11.938083431893777"><ele>358.0</ele><time>2026-03-31T07:28:00Z</time></trkpt><trkpt lat="43.306048224171604" lon="11.938054753983506"><ele>358.0</ele><time>2026-03-31T07:28:03Z</time></trkpt><trkpt lat="43.30597057574369" lon="11.938046868549165"><ele>358.0</ele><time>2026-03-31T07:28:06Z</time></trkpt><trkpt lat="43.305898052792955" lon="11.938067031269401"><ele>358.0</ele><time>2026-03-31T07:28:09Z</time></trkpt><trkpt lat="43.305824451777816" lon="11.938096245784012"><ele>358.0</ele><time>2026-03-31T07:28:12Z</time></trkpt><trkpt lat="43.30575019641532" lon="11.938120762330323"><ele>358.00000000000006</ele><time>2026-03-31T07:28:15Z</time></trkpt><trkpt lat="43.30567585103643" lon="11.938136056369798"><ele>358.0</ele><time>2026-03-31T07:28:18Z</time></trkpt><trkpt lat="43.305617344886414" lon="11.938177995363379"><ele>358.0</ele><time>2026-03-31T07:28:21Z</time></trkpt><trkpt lat="43.305562094208106" lon="11.938242041143788"><ele>358.0</ele><time>2026-03-31T07:28:24Z</time></trkpt><trkpt lat="43.30549222918111" lon="11.938313406878823"><ele>358.0</ele><time>2026-03-31T07:28:28Z</time></trkpt><trkpt lat="43.305436844441715" lon="11.938372835202264"><ele>358.00000000000006</ele><time>2026-03-31T07:28:31Z</time></trkpt><trkpt lat="43.30536713864465" lon="11.938417330954664"><ele>358.0</ele><time>2026-03-31T07:28:34Z</time></trkpt><trkpt lat="43.30530741539283" lon="11.938452703489792"><ele>357.66666666666663</ele><time>2026-03-31T07:28:37Z</time></trkpt><trkpt lat="43.305222440929185" lon="11.938466011686984"><ele>357.3333333333333</ele><time>2026-03-31T07:28:40Z</time></trkpt><trkpt lat="43.30518519208778" lon="11.938558614691344"><ele>357.0</ele><time>2026-03-31T07:28:43Z</time></trkpt><trkpt lat="43.305140972859014" lon="11.938656697144477"><ele>356.6666666666667</ele><time>2026-03-31T07:28:47Z</time></trkpt><trkpt lat="43.30508096822055" lon="11.938714737928967"><ele>356.33333333333337</ele><time>2026-03-31T07:28:50Z</time></trkpt><trkpt lat="43.3050112105123" lon="11.938758391318384"><ele>356.0</ele><time>2026-03-31T07:28:53Z</time></trkpt><trkpt lat="43.30494553417451" lon="11.938785650142352"><ele>355.99999999999994</ele><time>2026-03-31T07:28:56Z</time></trkpt><trkpt lat="43.30488867671123" lon="11.938860110899265"><ele>356.0</ele><time>2026-03-31T07:28:59Z</time></trkpt><trkpt lat="43.304852766830855" lon="11.93896293449999"><ele>356.0</ele><time>2026-03-31T07:29:03Z</time></trkpt><trkpt lat="43.304821869056575" lon="11.939044307452388"><ele>356.0</ele><time>2026-03-31T07:29:06Z</time></trkpt><trkpt lat="43.304776181374706" lon="11.939115433419039"><ele>356.0</ele><time>2026-03-31T07:29:09Z</time></trkpt><trkpt lat="43.30472942256965" lon="11.939180610158065"><ele>355.99999999999994</ele><time>2026-03-31T07:29:12Z</time></trkpt><trkpt lat="43.3046696078874" lon="11.939215742164027"><ele>356.0</ele><time>2026-03-31T07:29:15Z</time></trkpt><trkpt lat="43.30460741719913" lon="11.939246854565688"><ele>359.1428571428571</ele><time>2026-03-31T07:29:18Z</time></trkpt><trkpt lat="43.30454429525801" lon="11.939257000723824"><ele>362.2857142857143</ele><time>2026-03-31T07:29:21Z</time></trkpt><trkpt lat="43.304479500255326" lon="11.939290030166173"><ele>365.42857142857144</ele><time>2026-03-31T07:29:25Z</time></trkpt><trkpt lat="43.3044023873456" lon="11.939305871262713"><ele>368.57142857142856</ele><time>2026-03-31T07:29:29Z</time></trkpt><trkpt lat="43.30433943558573" lon="11.939307868601183"><ele>371.7142857142857</ele><time>2026-03-31T07:29:32Z</time></trkpt><trkpt lat="43.30426998951088" lon="11.939318810365194"><ele>374.85714285714283</ele><time>2026-03-31T07:29:35Z</time></trkpt><trkpt lat="43.30418811457959" lon="11.93932811595848"><ele>378.0</ele><time>2026-03-31T07:29:39Z</time></trkpt><trkpt lat="43.30412144588484" lon="11.939349016747913"><ele>378.0</ele><time>2026-03-31T07:29:42Z</time></trkpt><trkpt lat="43.30404502228536" lon="11.939391574440299"><ele>378.0</ele><time>2026-03-31T07:29:46Z</time></trkpt><trkpt lat="43.303983732028215" lon="11.939431360075888"><ele>378.0</ele><time>2026-03-31T07:29:49Z</time></trkpt><trkpt lat="43.3039230045062" lon="11.939501071743852"><ele>378.0</ele><time>2026-03-31T07:29:53Z</time></trkpt><trkpt lat="43.30387344683882" lon="11.939560458254158"><ele>378.0</ele><time>2026-03-31T07:29:56Z</time></trkpt><trkpt lat="43.30382636757519" lon="11.939649268529564"><ele>378.0</ele><time>2026-03-31T07:30:00Z</time></trkpt><trkpt lat="43.30378980444692" lon="11.93972397224668"><ele>378.0</ele><time>2026-03-31T07:30:03Z</time></trkpt><trkpt lat="43.30375606196914" lon="11.939798007636469"><ele>376.5</ele><time>2026-03-31T07:30:06Z</time></trkpt><trkpt lat="43.30371587364651" lon="11.939896313480174"><ele>375.0</ele><time>2026-03-31T07:30:10Z</time></trkpt><trkpt lat="43.30368091294916" lon="11.939995139412396"><ele>373.5</ele><time>2026-03-31T07:30:14Z</time></trkpt><trkpt lat="43.30365968233546" lon="11.940098569453484"><ele>372.0</ele><time>2026-03-31T07:30:17.999Z</time></trkpt><trkpt lat="43.30365821046208" lon="11.940203873338769"><ele>370.5</ele><time>2026-03-31T07:30:21.999Z</time></trkpt><trkpt lat="43.30363655983306" lon="11.940294093265088"><ele>369.0</ele><time>2026-03-31T07:30:26.999Z</time></trkpt><trkpt lat="43.30361308447288" lon="11.940383550256511"><ele>369.0</ele><time>2026-03-31T07:30:31.999Z</time></trkpt><trkpt lat="43.303604131246246" lon="11.940473380053135"><ele>369.0</ele><time>2026-03-31T07:30:38Z</time></trkpt><trkpt lat="43.30358525646365" lon="11.940567779791033"><ele>369.0</ele><time>2026-03-31T07:30:43Z</time></trkpt><trkpt lat="43.303569579191674" lon="11.94065505647841"><ele>369.0</ele><time>2026-03-31T07:30:47Z</time></trkpt><trkpt lat="43.30356473785367" lon="11.94074646871155"><ele>369.0</ele><time>2026-03-31T07:30:50Z</time></trkpt><trkpt lat="43.303548068959756" lon="11.94085726250195"><ele>369.0</ele><time>2026-03-31T07:30:54Z</time></trkpt><trkpt lat="43.303546781167164" lon="11.94097185182351"><ele>369.0</ele><time>2026-03-31T07:30:58Z</time></trkpt><trkpt lat="43.30356479290794" lon="11.941071475975797"><ele>370.1666666666667</ele><time>2026-03-31T07:31:02Z</time></trkpt><trkpt lat="43.303577533228456" lon="11.941170382794905"><ele>371.3333333333333</ele><time>2026-03-31T07:31:06Z</time></trkpt><trkpt lat="43.30359937924797" lon="11.941266275290557"><ele>372.5</ele><time>2026-03-31T07:31:09Z</time></trkpt><trkpt lat="43.30362902577798" lon="11.941347056975063"><ele>373.66666666666663</ele><time>2026-03-31T07:31:12Z</time></trkpt><trkpt lat="43.30366489495697" lon="11.941447310987968"><ele>374.8333333333333</ele><time>2026-03-31T07:31:16Z</time></trkpt><trkpt lat="43.30371492462455" lon="11.941537784127165"><ele>376.0</ele><time>2026-03-31T07:31:20Z</time></trkpt><trkpt lat="43.303751628703715" lon="11.941626447495082"><ele>376.0</ele><time>2026-03-31T07:31:24Z</time></trkpt><trkpt lat="43.30378036463976" lon="11.94170592062692"><ele>376.0</ele><time>2026-03-31T07:31:27Z</time></trkpt><trkpt lat="43.30380904064129" lon="11.941807347795656"><ele>376.0</ele><time>2026-03-31T07:31:31Z</time></trkpt><trkpt lat="43.30383580848799" lon="11.941885992632006"><ele>376.0</ele><time>2026-03-31T07:31:34Z</time></trkpt><trkpt lat="43.30386185985521" lon="11.941965062048684"><ele>376.0</ele><time>2026-03-31T07:31:37Z</time></trkpt><trkpt lat="43.303912065309305" lon="11.942058906602773"><ele>376.0</ele><time>2026-03-31T07:31:41Z</time></trkpt><trkpt lat="43.30395174931049" lon="11.94213485062653"><ele>376.0</ele><time>2026-03-31T07:31:44Z</time></trkpt><trkpt lat="43.30399466889895" lon="11.942232375112965"><ele>378.7142857142857</ele><time>2026-03-31T07:31:48Z</time></trkpt><trkpt lat="43.30401883683323" lon="11.942328687323336"><ele>381.42857142857144</ele><time>2026-03-31T07:31:52Z</time></trkpt><trkpt lat="43.30404582411551" lon="11.94243556062205"><ele>384.1428571428571</ele><time>2026-03-31T07:31:55.999Z</time></trkpt><trkpt lat="43.30407542772442" lon="11.942519299679475"><ele>386.8571428571429</ele><time>2026-03-31T07:31:59.999Z</time></trkpt><trkpt lat="43.30411259743193" lon="11.942609547742329"><ele>389.5714285714286</ele><time>2026-03-31T07:32:03.999Z</time></trkpt><trkpt lat="43.304106790007424" lon="11.942698479928728"><ele>392.2857142857143</ele><time>2026-03-31T07:32:08.999Z</time></trkpt><trkpt lat="43.30411522185661" lon="11.942794472329767"><ele>395.0</ele><time>2026-03-31T07:32:15.999Z</time></trkpt><trkpt lat="43.304114532914184" lon="11.942883367874272"><ele>397.0</ele><time>2026-03-31T07:32:21.999Z</time></trkpt><trkpt lat="43.304127227136696" lon="11.942973757585419"><ele>399.0</ele><time>2026-03-31T07:32:27.999Z</time></trkpt><trkpt lat="43.30415652465815" lon="11.943064660216915"><ele>401.0</ele><time>2026-03-31T07:32:32.999Z</time></trkpt><trkpt lat="43.30418534461026" lon="11.94316352578324"><ele>403.0</ele><time>2026-03-31T07:32:36.999Z</time></trkpt><trkpt lat="43.30420254077917" lon="11.943260127049697"><ele>405.0</ele><time>2026-03-31T07:32:42Z</time></trkpt><trkpt lat="43.30421190605457" lon="11.943356431638506"><ele>407.0</ele><time>2026-03-31T07:32:47Z</time></trkpt><trkpt lat="43.304237043973764" lon="11.943446075267591"><ele>409.0</ele><time>2026-03-31T07:32:51Z</time></trkpt><trkpt lat="43.30423450390107" lon="11.943548438778663"><ele>410.7142857142857</ele><time>2026-03-31T07:32:55Z</time></trkpt><trkpt lat="43.30423744206847" lon="11.943655261385613"><ele>412.42857142857144</ele><time>2026-03-31T07:33:00Z</time></trkpt><trkpt lat="43.30426053302882" lon="11.943738849493656"><ele>414.14285714285717</ele><time>2026-03-31T07:33:04Z</time></trkpt><trkpt lat="43.304259733654526" lon="11.94383107683236"><ele>415.8571428571429</ele><time>2026-03-31T07:33:09Z</time></trkpt><trkpt lat="43.304253741387356" lon="11.943926610032385"><ele>417.57142857142856</ele><time>2026-03-31T07:33:21Z</time></trkpt><trkpt lat="43.304269950099744" lon="11.94402557981984"><ele>419.28571428571433</ele><time>2026-03-31T07:33:27Z</time></trkpt><trkpt lat="43.30426124933961" lon="11.944111537481371"><ele>421.0</ele><time>2026-03-31T07:33:32.999Z</time></trkpt><trkpt lat="43.30423012632634" lon="11.944198325673755"><ele>422.42857142857144</ele><time>2026-03-31T07:33:39.999Z</time></trkpt><trkpt lat="43.3041612925868" lon="11.944222370709825"><ele>423.8571428571429</ele><time>2026-03-31T07:33:45.999Z</time></trkpt><trkpt lat="43.304143224028216" lon="11.944312845318557"><ele>425.28571428571433</ele><time>2026-03-31T07:33:51.999Z</time></trkpt><trkpt lat="43.30414339824818" lon="11.94441556822209"><ele>426.7142857142857</ele><time>2026-03-31T07:33:55.999Z</time></trkpt><trkpt lat="43.30414563529098" lon="11.944506898283331"><ele>428.1428571428571</ele><time>2026-03-31T07:33:59.999Z</time></trkpt><trkpt lat="43.30419034232116" lon="11.944597140927621"><ele>429.5714285714286</ele><time>2026-03-31T07:34:04.999Z</time></trkpt><trkpt lat="43.30421736604487" lon="11.944685038505954"><ele>431.0</ele><time>2026-03-31T07:34:08.999Z</time></trkpt><trkpt lat="43.30419763835016" lon="11.944767705819785"><ele>431.0</ele><time>2026-03-31T07:34:12.999Z</time></trkpt><trkpt lat="43.30419770120558" lon="11.944873243667274"><ele>431.0</ele><time>2026-03-31T07:34:17.999Z</time></trkpt><trkpt lat="43.304196323167446" lon="11.944982392503679"><ele>431.0</ele><time>2026-03-31T07:34:22.999Z</time></trkpt><trkpt lat="43.30417645649749" lon="11.945072370681327"><ele>431.0</ele><time>2026-03-31T07:34:27.999Z</time></trkpt><trkpt lat="43.3041728385614" lon="11.94517245529867"><ele>431.0</ele><time>2026-03-31T07:34:32.999Z</time></trkpt><trkpt lat="43.304181302622034" lon="11.945260984607941"><ele>431.0</ele><time>2026-03-31T07:34:37.999Z</time></trkpt><trkpt lat="43.304155472629034" lon="11.94535598505951"><ele>431.0</ele><time>2026-03-31T07:34:43.999Z</time></trkpt><trkpt lat="43.30415296865449" lon="11.945446396416974"><ele>432.2857142857143</ele><time>2026-03-31T07:34:49Z</time></trkpt><trkpt lat="43.30415301756989" lon="11.945536344927017"><ele>433.57142857142856</ele><time>2026-03-31T07:34:55Z</time></trkpt><trkpt lat="43.304147950408684" lon="11.945630618731204"><ele>434.85714285714283</ele><time>2026-03-31T07:35:01Z</time></trkpt><trkpt lat="43.30414514464555" lon="11.945721722403777"><ele>436.1428571428571</ele><time>2026-03-31T07:35:07.999Z</time></trkpt><trkpt lat="43.304152073865374" lon="11.94582577595911"><ele>437.42857142857144</ele><time>2026-03-31T07:35:11.999Z</time></trkpt><trkpt lat="43.30414856081441" lon="11.945913182905116"><ele>438.71428571428567</ele><time>2026-03-31T07:35:15.999Z</time></trkpt><trkpt lat="43.304158569318815" lon="11.94602396190012"><ele>440.0</ele><time>2026-03-31T07:35:20.999Z</time></trkpt><trkpt lat="43.30413850927037" lon="11.94611508604909"><ele>440.4285714285714</ele><time>2026-03-31T07:35:24.999Z</time></trkpt><trkpt lat="43.304109632435754" lon="11.946209418252533"><ele>440.85714285714283</ele><time>2026-03-31T07:35:29.999Z</time></trkpt><trkpt lat="43.3041084544627" lon="11.946300754402444"><ele>441.2857142857143</ele><time>2026-03-31T07:35:33.999Z</time></trkpt><trkpt lat="43.304086119137075" lon="11.946382055608838"><ele>441.71428571428567</ele><time>2026-03-31T07:35:37.999Z</time></trkpt><trkpt lat="43.304041381284314" lon="11.946450491939267"><ele>442.14285714285717</ele><time>2026-03-31T07:35:42.999Z</time></trkpt><trkpt lat="43.304017897805466" lon="11.946532679329277"><ele>442.57142857142856</ele><time>2026-03-31T07:35:46.999Z</time></trkpt><trkpt lat="43.304019533784405" lon="11.94663349111817"><ele>443.0</ele><time>2026-03-31T07:35:51Z</time></trkpt><trkpt lat="43.30397945934164" lon="11.946710111114495"><ele>443.7142857142857</ele><time>2026-03-31T07:35:55Z</time></trkpt><trkpt lat="43.303936902342144" lon="11.946781359922866"><ele>444.42857142857144</ele><time>2026-03-31T07:35:59Z</time></trkpt><trkpt lat="43.30392577189291" lon="11.94688357700892"><ele>445.1428571428571</ele><time>2026-03-31T07:36:03Z</time></trkpt><trkpt lat="43.303923926276276" lon="11.946978935200834"><ele>445.8571428571429</ele><time>2026-03-31T07:36:07Z</time></trkpt><trkpt lat="43.30391711904345" lon="11.947078627557524"><ele>446.57142857142856</ele><time>2026-03-31T07:36:11Z</time></trkpt><trkpt lat="43.30391670006167" lon="11.947183936844148"><ele>447.2857142857143</ele><time>2026-03-31T07:36:15Z</time></trkpt><trkpt lat="43.30391271737969" lon="11.947279459135151"><ele>448.0</ele><time>2026-03-31T07:36:19Z</time></trkpt><trkpt lat="43.30390409010674" lon="11.947380086892903"><ele>448.0</ele><time>2026-03-31T07:36:23Z</time></trkpt><trkpt lat="43.30391069451365" lon="11.947476793572491"><ele>448.0</ele><time>2026-03-31T07:36:27Z</time></trkpt><trkpt lat="43.30392495853142" lon="11.947580239401873"><ele>448.0</ele><time>2026-03-31T07:36:31Z</time></trkpt><trkpt lat="43.30393853309374" lon="11.947679759371349"><ele>448.0</ele><time>2026-03-31T07:36:35Z</time></trkpt><trkpt lat="43.303942545407885" lon="11.947779828864954"><ele>448.0</ele><time>2026-03-31T07:36:39Z</time></trkpt><trkpt lat="43.303948536840494" lon="11.947884640500137"><ele>448.0</ele><time>2026-03-31T07:36:43Z</time></trkpt><trkpt lat="43.30395656235083" lon="11.94798271760974"><ele>448.0</ele><time>2026-03-31T07:36:47Z</time></trkpt><trkpt lat="43.303967987443954" lon="11.948080934120993"><ele>449.0</ele><time>2026-03-31T07:36:51Z</time></trkpt><trkpt lat="43.30398290130248" lon="11.948187626683536"><ele>450.0</ele><time>2026-03-31T07:36:55Z</time></trkpt><trkpt lat="43.30398942708282" lon="11.948296941083559"><ele>451.0</ele><time>2026-03-31T07:36:59Z</time></trkpt><trkpt lat="43.303998890969126" lon="11.948396058220611"><ele>452.0</ele><time>2026-03-31T07:37:03Z</time></trkpt><trkpt lat="43.30397875716773" lon="11.948484821934406"><ele>453.0</ele><time>2026-03-31T07:37:09Z</time></trkpt><trkpt lat="43.30398642466347" lon="11.94857700554353"><ele>454.0</ele><time>2026-03-31T07:37:12Z</time></trkpt><trkpt lat="43.30399177050044" lon="11.948669643007026"><ele>455.0</ele><time>2026-03-31T07:37:16Z</time></trkpt><trkpt lat="43.30401692996442" lon="11.948765496203675"><ele>456.8571428571429</ele><time>2026-03-31T07:37:21Z</time></trkpt><trkpt lat="43.30404351202966" lon="11.948865996136114"><ele>458.7142857142857</ele><time>2026-03-31T07:37:25Z</time></trkpt><trkpt lat="43.304068114219724" lon="11.948963758715301"><ele>460.57142857142856</ele><time>2026-03-31T07:37:29Z</time></trkpt><trkpt lat="43.30408689143327" lon="11.949049705990323"><ele>462.42857142857144</ele><time>2026-03-31T07:37:33Z</time></trkpt><trkpt lat="43.304104616465295" lon="11.949141195590038"><ele>464.28571428571433</ele><time>2026-03-31T07:37:37Z</time></trkpt><trkpt lat="43.30412546689483" lon="11.949242183586504"><ele>466.14285714285717</ele><time>2026-03-31T07:37:42Z</time></trkpt><trkpt lat="43.304161822514665" lon="11.949313812511004"><ele>468.0</ele><time>2026-03-31T07:37:46Z</time></trkpt><trkpt lat="43.3042152834849" lon="11.949388866207132"><ele>470.14285714285717</ele><time>2026-03-31T07:37:51Z</time></trkpt><trkpt lat="43.30424856541456" lon="11.949463030879794"><ele>472.28571428571433</ele><time>2026-03-31T07:37:55Z</time></trkpt><trkpt lat="43.30429608368617" lon="11.949520421654128"><ele>474.42857142857144</ele><time>2026-03-31T07:37:59Z</time></trkpt><trkpt lat="43.304349784111665" lon="11.94959317582538"><ele>476.57142857142856</ele><time>2026-03-31T07:38:04Z</time></trkpt><trkpt lat="43.30438172060737" lon="11.949679518985091"><ele>478.7142857142857</ele><time>2026-03-31T07:38:10Z</time></trkpt><trkpt lat="43.30432781267114" lon="11.949729995325582"><ele>480.8571428571429</ele><time>2026-03-31T07:38:16Z</time></trkpt><trkpt lat="43.304254008226025" lon="11.94971021131004"><ele>483.0</ele><time>2026-03-31T07:38:22Z</time></trkpt><trkpt lat="43.304189283515825" lon="11.949691339719966"><ele>483.0</ele><time>2026-03-31T07:38:26Z</time></trkpt><trkpt lat="43.30411697356182" lon="11.949705830626566"><ele>483.0</ele><time>2026-03-31T07:38:30Z</time></trkpt><trkpt lat="43.30404141822856" lon="11.94973298967648"><ele>483.0</ele><time>2026-03-31T07:38:34Z</time></trkpt><trkpt lat="43.30397604352922" lon="11.949765508578016"><ele>483.0</ele><time>2026-03-31T07:38:38Z</time></trkpt><trkpt lat="43.30390613027368" lon="11.94978562546559"><ele>483.0</ele><time>2026-03-31T07:38:42Z</time></trkpt><trkpt lat="43.30384988863985" lon="11.949834813304633"><ele>483.0</ele><time>2026-03-31T07:38:47Z</time></trkpt><trkpt lat="43.303819730258645" lon="11.949913453620464"><ele>483.0</ele><time>2026-03-31T07:38:51Z</time></trkpt><trkpt lat="43.303790899058484" lon="11.94999675319283"><ele>482.2857142857143</ele><time>2026-03-31T07:38:55Z</time></trkpt><trkpt lat="43.30376329549261" lon="11.950090477684677"><ele>481.57142857142856</ele><time>2026-03-31T07:38:59Z</time></trkpt><trkpt lat="43.30374951574612" lon="11.950183010412523"><ele>480.8571428571429</ele><time>2026-03-31T07:39:03Z</time></trkpt><trkpt lat="43.303749610274174" lon="11.95028166016795"><ele>480.14285714285717</ele><time>2026-03-31T07:39:10Z</time></trkpt><trkpt lat="43.303747597634285" lon="11.950378003319043"><ele>479.42857142857144</ele><time>2026-03-31T07:39:18Z</time></trkpt><trkpt lat="43.30377555412303" lon="11.950457212449706"><ele>478.7142857142858</ele><time>2026-03-31T07:39:27Z</time></trkpt><trkpt lat="43.303830701737674" lon="11.950513417283247"><ele>478.00000000000006</ele><time>2026-03-31T07:39:39Z</time></trkpt><trkpt lat="43.303883009371475" lon="11.950570449321985"><ele>481.1666666666667</ele><time>2026-03-31T07:40:35Z</time></trkpt><trkpt lat="43.30395755999775" lon="11.950502379347347"><ele>484.33333333333337</ele><time>2026-03-31T07:40:59Z</time></trkpt><trkpt lat="43.304044963185" lon="11.950492098397936"><ele>487.5</ele><time>2026-03-31T07:41:03Z</time></trkpt><trkpt lat="43.304124000616085" lon="11.950515881526469"><ele>490.66666666666663</ele><time>2026-03-31T07:41:06Z</time></trkpt><trkpt lat="43.304175896723386" lon="11.950577275450996"><ele>493.8333333333333</ele><time>2026-03-31T07:41:09Z</time></trkpt><trkpt lat="43.30423218715863" lon="11.950633130885302"><ele>497.0</ele><time>2026-03-31T07:41:12Z</time></trkpt><trkpt lat="43.30428914851947" lon="11.95071200842371"><ele>497.0</ele><time>2026-03-31T07:41:15Z</time></trkpt><trkpt lat="43.30430442473283" lon="11.950810246422899"><ele>497.0</ele><time>2026-03-31T07:41:18Z</time></trkpt><trkpt lat="43.30433144953638" lon="11.95090972648125"><ele>497.0</ele><time>2026-03-31T07:41:21Z</time></trkpt><trkpt lat="43.30436491941701" lon="11.950985506393291"><ele>497.0</ele><time>2026-03-31T07:41:24Z</time></trkpt><trkpt lat="43.304409535163444" lon="11.951076091294777"><ele>497.0</ele><time>2026-03-31T07:41:41Z</time></trkpt><trkpt lat="43.30444348758284" lon="11.951160185993322"><ele>497.0</ele><time>2026-03-31T07:41:44Z</time></trkpt><trkpt lat="43.30447695378798" lon="11.951234902626476"><ele>497.0</ele><time>2026-03-31T07:41:48Z</time></trkpt><trkpt lat="43.30451062575156" lon="11.951313826475516"><ele>498.2857142857143</ele><time>2026-03-31T07:41:55Z</time></trkpt><trkpt lat="43.30454519306037" lon="11.951397491066784"><ele>499.57142857142856</ele><time>2026-03-31T07:42:02Z</time></trkpt><trkpt lat="43.304568845158265" lon="11.951483836346506"><ele>500.8571428571429</ele><time>2026-03-31T07:42:07Z</time></trkpt><trkpt lat="43.3045770869285" lon="11.951589637739387"><ele>502.14285714285717</ele><time>2026-03-31T07:42:13Z</time></trkpt><trkpt lat="43.30453043588574" lon="11.951672662573886"><ele>503.42857142857144</ele><time>2026-03-31T07:42:17Z</time></trkpt><trkpt lat="43.30447950461714" lon="11.951734001602096"><ele>504.7142857142858</ele><time>2026-03-31T07:42:22Z</time></trkpt><trkpt lat="43.30442810448644" lon="11.951803101090205"><ele>506.00000000000006</ele><time>2026-03-31T07:42:29Z</time></trkpt><trkpt lat="43.304379879861514" lon="11.951866602250893"><ele>506.57142857142867</ele><time>2026-03-31T07:42:35Z</time></trkpt><trkpt lat="43.30432465387249" lon="11.951920268769246"><ele>507.14285714285717</ele><time>2026-03-31T07:42:41Z</time></trkpt><trkpt lat="43.30426682500852" lon="11.951989473957365"><ele>507.7142857142858</ele><time>2026-03-31T07:42:47Z</time></trkpt><trkpt lat="43.304260246673614" lon="11.95208829166574"><ele>508.28571428571433</ele><time>2026-03-31T07:42:52Z</time></trkpt><trkpt lat="43.30430298598299" lon="11.95216707971778"><ele>508.8571428571429</ele><time>2026-03-31T07:42:56Z</time></trkpt><trkpt lat="43.30437459201809" lon="11.952203021325845"><ele>509.42857142857144</ele><time>2026-03-31T07:43:01Z</time></trkpt><trkpt lat="43.30441962245117" lon="11.952268061722682"><ele>510.0</ele><time>2026-03-31T07:43:04Z</time></trkpt><trkpt lat="43.30449202859218" lon="11.952302180555648"><ele>510.0</ele><time>2026-03-31T07:43:08Z</time></trkpt><trkpt lat="43.304546844320335" lon="11.952350879951888"><ele>510.00000000000006</ele><time>2026-03-31T07:43:12Z</time></trkpt><trkpt lat="43.304566367634195" lon="11.952449903902258"><ele>510.0</ele><time>2026-03-31T07:43:17Z</time></trkpt><trkpt lat="43.304548381106244" lon="11.952536334426693"><ele>510.0</ele><time>2026-03-31T07:43:20Z</time></trkpt><trkpt lat="43.30453423766654" lon="11.95265016900442"><ele>510.00000000000006</ele><time>2026-03-31T07:43:25Z</time></trkpt><trkpt lat="43.30454136237198" lon="11.952763634309164"><ele>510.0</ele><time>2026-03-31T07:43:43Z</time></trkpt><trkpt lat="43.30455628609949" lon="11.952861099101804"><ele>510.0</ele><time>2026-03-31T07:43:45Z</time></trkpt><trkpt lat="43.30457826379228" lon="11.952963807045773"><ele>509.8333333333333</ele><time>2026-03-31T07:43:49Z</time></trkpt><trkpt lat="43.30460075535594" lon="11.95306183416202"><ele>509.66666666666663</ele><time>2026-03-31T07:43:52Z</time></trkpt><trkpt lat="43.3046243147915" lon="11.953165338127118"><ele>509.5</ele><time>2026-03-31T07:43:55Z</time></trkpt><trkpt lat="43.304638177432544" lon="11.953265725875326"><ele>509.3333333333333</ele><time>2026-03-31T07:43:58Z</time></trkpt><trkpt lat="43.30465247986508" lon="11.953364582563207"><ele>509.16666666666663</ele><time>2026-03-31T07:44:01Z</time></trkpt><trkpt lat="43.30468243057851" lon="11.953454767440473"><ele>509.0</ele><time>2026-03-31T07:44:04Z</time></trkpt><trkpt lat="43.304678637556975" lon="11.953568893292982"><ele>508.99999999999994</ele><time>2026-03-31T07:44:07Z</time></trkpt><trkpt lat="43.30471386002518" lon="11.95365466825899"><ele>509.0</ele><time>2026-03-31T07:44:10Z</time></trkpt><trkpt lat="43.30471477707225" lon="11.953766396941433"><ele>508.99999999999994</ele><time>2026-03-31T07:44:14Z</time></trkpt><trkpt lat="43.30472461666667" lon="11.953663216666666"><ele>508.99999999999994</ele><time>2026-03-31T07:44:42.232Z</time></trkpt><trkpt lat="43.30470753333334" lon="11.95357528333333"><ele>509.0</ele><time>2026-03-31T07:44:45.24Z</time></trkpt><trkpt lat="43.30468776666667" lon="11.953492166666669"><ele>508.99999999999994</ele><time>2026-03-31T07:44:48.225Z</time></trkpt><trkpt lat="43.30467296666667" lon="11.953405783333334"><ele>508.99999999999994</ele><time>2026-03-31T07:44:51.232Z</time></trkpt><trkpt lat="43.304656983333345" lon="11.953287516666668"><ele>509.0</ele><time>2026-03-31T07:44:54.375Z</time></trkpt><trkpt lat="43.30463758333334" lon="11.953183266666668"><ele>509.0</ele><time>2026-03-31T07:44:57.485Z</time></trkpt><trkpt lat="43.304610350000004" lon="11.953079749999999"><ele>509.0</ele><time>2026-03-31T07:45:00.499Z</time></trkpt><trkpt lat="43.304587683333324" lon="11.952985866666666"><ele>509.0</ele><time>2026-03-31T07:45:03.61Z</time></trkpt><trkpt lat="43.304580550000004" lon="11.952894650000001"><ele>509.0</ele><time>2026-03-31T07:45:06.594Z</time></trkpt><trkpt lat="43.304744116666676" lon="11.952868966666665"><ele>513.1428571428571</ele><time>2026-03-31T07:45:18.852Z</time></trkpt><trkpt lat="43.30480565" lon="11.952845333333334"><ele>517.2857142857142</ele><time>2026-03-31T07:45:21.855Z</time></trkpt><trkpt lat="43.304874133333335" lon="11.952872766666665"><ele>521.4285714285714</ele><time>2026-03-31T07:45:25.853Z</time></trkpt><trkpt lat="43.30492821666667" lon="11.952935583333332"><ele>525.5714285714286</ele><time>2026-03-31T07:45:33.175Z</time></trkpt><trkpt lat="43.30497208333333" lon="11.953008599999999"><ele>529.7142857142858</ele><time>2026-03-31T07:45:37.194Z</time></trkpt><trkpt lat="43.30501089999999" lon="11.953089516666667"><ele>533.8571428571429</ele><time>2026-03-31T07:45:42.19Z</time></trkpt><trkpt lat="43.3050277" lon="11.953194683333333"><ele>538.0</ele><time>2026-03-31T07:45:49.34Z</time></trkpt><trkpt lat="43.305025266666675" lon="11.953294549999997"><ele>539.0</ele><time>2026-03-31T07:45:56.366Z</time></trkpt><trkpt lat="43.305031650000004" lon="11.953382566666669"><ele>540.0</ele><time>2026-03-31T07:46:01.36Z</time></trkpt><trkpt lat="43.30504995" lon="11.953482916666667"><ele>541.0</ele><time>2026-03-31T07:46:06.508Z</time></trkpt><trkpt lat="43.30500928333333" lon="11.953572183333332"><ele>542.0</ele><time>2026-03-31T07:46:10.523Z</time></trkpt><trkpt lat="43.304995866666665" lon="11.953707466666666"><ele>543.0</ele><time>2026-03-31T07:46:31.683Z</time></trkpt><trkpt lat="43.304998149999996" lon="11.9537987"><ele>544.0</ele><time>2026-03-31T07:46:35.695Z</time></trkpt><trkpt lat="43.305029266666665" lon="11.953889699999998"><ele>543.9999999999999</ele><time>2026-03-31T07:48:07.007Z</time></trkpt><trkpt lat="43.305052833333335" lon="11.95397715"><ele>544.0</ele><time>2026-03-31T07:48:13.011Z</time></trkpt><trkpt lat="43.30506253333333" lon="11.954092283333333"><ele>544.0</ele><time>2026-03-31T07:48:17.011Z</time></trkpt><trkpt lat="43.30509393333334" lon="11.95419175"><ele>544.0</ele><time>2026-03-31T07:48:21.151Z</time></trkpt><trkpt lat="43.30511283333333" lon="11.954285550000002"><ele>544.0</ele><time>2026-03-31T07:48:24.266Z</time></trkpt><trkpt lat="43.305114450000005" lon="11.954381099999999"><ele>543.9999999999999</ele><time>2026-03-31T07:49:30.006Z</time></trkpt><trkpt lat="43.305153233333336" lon="11.954456233333335"><ele>544.0</ele><time>2026-03-31T07:49:33.011Z</time></trkpt><trkpt lat="43.30520441666666" lon="11.954536083333334"><ele>544.8333333333334</ele><time>2026-03-31T07:49:36.028Z</time></trkpt><trkpt lat="43.30526171666667" lon="11.954609750000001"><ele>545.6666666666667</ele><time>2026-03-31T07:49:39.036Z</time></trkpt><trkpt lat="43.30529888333334" lon="11.954689233333331"><ele>546.5</ele><time>2026-03-31T07:49:42.026Z</time></trkpt><trkpt lat="43.30533608333334" lon="11.954760733333334"><ele>547.3333333333334</ele><time>2026-03-31T07:49:44.083Z</time></trkpt><trkpt lat="43.30537398333333" lon="11.954864566666666"><ele>548.1666666666666</ele><time>2026-03-31T07:49:47.138Z</time></trkpt><trkpt lat="43.3054074" lon="11.954949116666667"><ele>549.0</ele><time>2026-03-31T07:49:50.157Z</time></trkpt><trkpt lat="43.305440616666665" lon="11.955060516666666"><ele>551.3333333333334</ele><time>2026-03-31T07:49:53.166Z</time></trkpt><trkpt lat="43.30545901666666" lon="11.955159716666666"><ele>553.6666666666666</ele><time>2026-03-31T07:50:19.27Z</time></trkpt><trkpt lat="43.30549466666666" lon="11.955271316666664"><ele>556.0</ele><time>2026-03-31T07:50:23.286Z</time></trkpt><trkpt lat="43.305513383333334" lon="11.95535475"><ele>558.3333333333333</ele><time>2026-03-31T07:50:26.297Z</time></trkpt><trkpt lat="43.30554213333333" lon="11.955458516666667"><ele>560.6666666666666</ele><time>2026-03-31T07:50:29.282Z</time></trkpt><trkpt lat="43.305554116666656" lon="11.955590749999999"><ele>563.0</ele><time>2026-03-31T07:50:32.298Z</time></trkpt><trkpt lat="43.30556736666667" lon="11.955704116666666"><ele>563.3333333333333</ele><time>2026-03-31T07:50:35.296Z</time></trkpt><trkpt lat="43.30559131666667" lon="11.955784649999998"><ele>563.6666666666666</ele><time>2026-03-31T07:50:38.296Z</time></trkpt><trkpt lat="43.30566138333334" lon="11.955862416666665"><ele>564.0</ele><time>2026-03-31T07:50:41.308Z</time></trkpt><trkpt lat="43.305727766666664" lon="11.955952083333333"><ele>564.3333333333334</ele><time>2026-03-31T07:50:44.299Z</time></trkpt><trkpt lat="43.305784166666676" lon="11.956054066666665"><ele>564.6666666666667</ele><time>2026-03-31T07:50:47.309Z</time></trkpt><trkpt lat="43.30582809999999" lon="11.956123166666666"><ele>565.0</ele><time>2026-03-31T07:50:49.314Z</time></trkpt><trkpt lat="43.30580283333334" lon="11.95624035"><ele>565.0</ele><time>2026-03-31T07:50:51.322Z</time></trkpt><trkpt lat="43.305779216666664" lon="11.956337566666665"><ele>565.0</ele><time>2026-03-31T07:50:55.311Z</time></trkpt><trkpt lat="43.30581141666667" lon="11.956451316666667"><ele>565.0</ele><time>2026-03-31T07:51:01.311Z</time></trkpt><trkpt lat="43.30585008333334" lon="11.956531299999998"><ele>565.0</ele><time>2026-03-31T07:51:05.326Z</time></trkpt><trkpt lat="43.30586823333333" lon="11.956634916666667"><ele>565.0</ele><time>2026-03-31T07:51:10.326Z</time></trkpt><trkpt lat="43.30590931666667" lon="11.956722666666666"><ele>565.0</ele><time>2026-03-31T07:51:14.337Z</time></trkpt><trkpt lat="43.305944749999995" lon="11.95680595"><ele>565.7142857142857</ele><time>2026-03-31T07:51:20.384Z</time></trkpt><trkpt lat="43.30593006666666" lon="11.956897450000001"><ele>566.4285714285714</ele><time>2026-03-31T07:51:25.359Z</time></trkpt><trkpt lat="43.30597025" lon="11.956977333333334"><ele>567.1428571428571</ele><time>2026-03-31T07:51:32.35Z</time></trkpt><trkpt lat="43.306010883333336" lon="11.957073300000003"><ele>567.8571428571429</ele><time>2026-03-31T07:51:37.363Z</time></trkpt><trkpt lat="43.30605008333334" lon="11.957142166666666"><ele>568.5714285714286</ele><time>2026-03-31T07:51:40.365Z</time></trkpt><trkpt lat="43.30607323333333" lon="11.957237366666668"><ele>569.2857142857142</ele><time>2026-03-31T07:51:43.371Z</time></trkpt><trkpt lat="43.30608643333333" lon="11.957347683333335"><ele>570.0</ele><time>2026-03-31T07:51:46.386Z</time></trkpt><trkpt lat="43.30611583333333" lon="11.957428683333335"><ele>570.0</ele><time>2026-03-31T07:51:49.365Z</time></trkpt><trkpt lat="43.30613018333333" lon="11.957534183333333"><ele>570.0</ele><time>2026-03-31T07:51:53.395Z</time></trkpt><trkpt lat="43.30615533333333" lon="11.957618216666665"><ele>570.0</ele><time>2026-03-31T07:51:56.398Z</time></trkpt><trkpt lat="43.306184" lon="11.957697750000001"><ele>570.0</ele><time>2026-03-31T07:51:59.396Z</time></trkpt><trkpt lat="43.30622865" lon="11.957759249999999"><ele>570.0</ele><time>2026-03-31T07:52:02.381Z</time></trkpt><trkpt lat="43.30629521666666" lon="11.957825033333332"><ele>570.0</ele><time>2026-03-31T07:52:05.404Z</time></trkpt><trkpt lat="43.30634191666667" lon="11.957900133333332"><ele>570.0</ele><time>2026-03-31T07:52:08.395Z</time></trkpt><trkpt lat="43.30639015" lon="11.9579972"><ele>568.2857142857142</ele><time>2026-03-31T07:52:11.406Z</time></trkpt><trkpt lat="43.306409916666674" lon="11.958088166666668"><ele>566.5714285714286</ele><time>2026-03-31T07:52:14.389Z</time></trkpt><trkpt lat="43.3064531" lon="11.958172133333335"><ele>564.8571428571429</ele><time>2026-03-31T07:52:17.405Z</time></trkpt><trkpt lat="43.30648581666666" lon="11.9582492"><ele>563.1428571428571</ele><time>2026-03-31T07:52:20.416Z</time></trkpt><trkpt lat="43.30653763333333" lon="11.958326050000002"><ele>561.4285714285714</ele><time>2026-03-31T07:52:23.405Z</time></trkpt><trkpt lat="43.30658655" lon="11.958406933333334"><ele>559.7142857142857</ele><time>2026-03-31T07:52:26.416Z</time></trkpt><trkpt lat="43.30664600000001" lon="11.958485216666668"><ele>558.0</ele><time>2026-03-31T07:52:29.429Z</time></trkpt><trkpt lat="43.30669406666666" lon="11.958569"><ele>557.1666666666666</ele><time>2026-03-31T07:52:32.417Z</time></trkpt><trkpt lat="43.30673245" lon="11.958674766666665"><ele>556.3333333333334</ele><time>2026-03-31T07:52:35.425Z</time></trkpt><trkpt lat="43.30677448333332" lon="11.958772566666669"><ele>555.5</ele><time>2026-03-31T07:52:38.434Z</time></trkpt><trkpt lat="43.30683521666667" lon="11.958863333333332"><ele>554.6666666666667</ele><time>2026-03-31T07:52:41.425Z</time></trkpt><trkpt lat="43.306889500000004" lon="11.958937033333331"><ele>553.8333333333334</ele><time>2026-03-31T07:52:44.436Z</time></trkpt><trkpt lat="43.30693254999999" lon="11.959001133333333"><ele>553.0</ele><time>2026-03-31T07:52:46.445Z</time></trkpt><trkpt lat="43.30697026666667" lon="11.959094833333333"><ele>553.0</ele><time>2026-03-31T07:52:49.455Z</time></trkpt><trkpt lat="43.30701068333333" lon="11.959191783333331"><ele>553.0</ele><time>2026-03-31T07:52:52.441Z</time></trkpt><trkpt lat="43.307051316666666" lon="11.959286816666667"><ele>553.0</ele><time>2026-03-31T07:52:55.455Z</time></trkpt><trkpt lat="43.30708778333333" lon="11.9593825"><ele>553.0</ele><time>2026-03-31T07:52:58.445Z</time></trkpt><trkpt lat="43.30713178333334" lon="11.959467266666664"><ele>553.0</ele><time>2026-03-31T07:53:01.45Z</time></trkpt><trkpt lat="43.30716831666667" lon="11.959566149999999"><ele>553.0</ele><time>2026-03-31T07:53:04.465Z</time></trkpt><trkpt lat="43.307182033333326" lon="11.959663350000001"><ele>551.6666666666667</ele><time>2026-03-31T07:53:07.48Z</time></trkpt><trkpt lat="43.30721066666667" lon="11.959762816666668"><ele>550.3333333333334</ele><time>2026-03-31T07:53:10.474Z</time></trkpt><trkpt lat="43.307239849999995" lon="11.959853016666667"><ele>549.0</ele><time>2026-03-31T07:53:13.479Z</time></trkpt><trkpt lat="43.30726053333333" lon="11.959969599999999"><ele>547.6666666666666</ele><time>2026-03-31T07:53:17.49Z</time></trkpt><trkpt lat="43.30726281666666" lon="11.960059066666668"><ele>546.3333333333333</ele><time>2026-03-31T07:53:19.48Z</time></trkpt><trkpt lat="43.307275066666676" lon="11.960168916666666"><ele>545.0</ele><time>2026-03-31T07:53:22.586Z</time></trkpt><trkpt lat="43.3072914" lon="11.960271650000001"><ele>547.8571428571429</ele><time>2026-03-31T07:53:25.597Z</time></trkpt><trkpt lat="43.30732501666666" lon="11.960366666666669"><ele>550.7142857142858</ele><time>2026-03-31T07:53:29.592Z</time></trkpt><trkpt lat="43.30736071666667" lon="11.96043945"><ele>553.5714285714286</ele><time>2026-03-31T07:53:32.604Z</time></trkpt><trkpt lat="43.30742661666667" lon="11.9605144"><ele>556.4285714285714</ele><time>2026-03-31T07:53:35.614Z</time></trkpt><trkpt lat="43.30746873333332" lon="11.960601883333334"><ele>559.2857142857142</ele><time>2026-03-31T07:53:38.605Z</time></trkpt><trkpt lat="43.30749513333333" lon="11.960685783333334"><ele>562.1428571428571</ele><time>2026-03-31T07:53:41.611Z</time></trkpt><trkpt lat="43.30754098333333" lon="11.960771050000002"><ele>565.0</ele><time>2026-03-31T07:53:44.621Z</time></trkpt><trkpt lat="43.307561533333335" lon="11.960861499999998"><ele>565.6666666666667</ele><time>2026-03-31T07:53:48.615Z</time></trkpt><trkpt lat="43.307588599999995" lon="11.960951333333332"><ele>566.3333333333334</ele><time>2026-03-31T07:53:51.619Z</time></trkpt><trkpt lat="43.30758511666666" lon="11.961065016666664"><ele>567.0</ele><time>2026-03-31T07:53:54.64Z</time></trkpt><trkpt lat="43.30761355" lon="11.961168816666667"><ele>567.6666666666666</ele><time>2026-03-31T07:53:57.634Z</time></trkpt><trkpt lat="43.307621450000006" lon="11.961256716666666"><ele>568.3333333333333</ele><time>2026-03-31T07:54:00.634Z</time></trkpt><trkpt lat="43.307638716666666" lon="11.961359183333332"><ele>569.0</ele><time>2026-03-31T07:54:03.647Z</time></trkpt><trkpt lat="43.30767385000001" lon="11.961481483333333"><ele>569.0</ele><time>2026-03-31T07:54:07.642Z</time></trkpt><trkpt lat="43.30771266666667" lon="11.961582466666668"><ele>569.0</ele><time>2026-03-31T07:54:10.644Z</time></trkpt><trkpt lat="43.30772516666666" lon="11.961681533333334"><ele>569.0</ele><time>2026-03-31T07:54:13.663Z</time></trkpt><trkpt lat="43.30775703333334" lon="11.961773983333334"><ele>569.0</ele><time>2026-03-31T07:54:17.652Z</time></trkpt><trkpt lat="43.3077908" lon="11.961891199999998"><ele>569.0</ele><time>2026-03-31T07:54:21.669Z</time></trkpt><trkpt lat="43.307829850000005" lon="11.96197965"><ele>569.0</ele><time>2026-03-31T07:54:24.681Z</time></trkpt><trkpt lat="43.307866399999995" lon="11.96207555"><ele>568.5714285714287</ele><time>2026-03-31T07:54:28.679Z</time></trkpt><trkpt lat="43.3078944" lon="11.962167783333332"><ele>568.1428571428571</ele><time>2026-03-31T07:54:31.683Z</time></trkpt><trkpt lat="43.307916166666665" lon="11.962266933333334"><ele>567.7142857142858</ele><time>2026-03-31T07:54:35.672Z</time></trkpt><trkpt lat="43.30794096666667" lon="11.962354550000002"><ele>567.2857142857143</ele><time>2026-03-31T07:54:38.687Z</time></trkpt><trkpt lat="43.307965683333336" lon="11.962437450000001"><ele>566.8571428571429</ele><time>2026-03-31T07:54:41.772Z</time></trkpt><trkpt lat="43.30799553333333" lon="11.962539233333333"><ele>566.4285714285714</ele><time>2026-03-31T07:54:45.787Z</time></trkpt><trkpt lat="43.308022799999996" lon="11.962618766666665"><ele>566.0</ele><time>2026-03-31T07:54:49.781Z</time></trkpt><trkpt lat="43.30806211666666" lon="11.9627085"><ele>566.0</ele><time>2026-03-31T07:54:53.845Z</time></trkpt><trkpt lat="43.308073633333336" lon="11.962799133333332"><ele>566.0</ele><time>2026-03-31T07:54:58.154Z</time></trkpt><trkpt lat="43.30810748333333" lon="11.962873449999998"><ele>566.0</ele><time>2026-03-31T07:55:01.146Z</time></trkpt><trkpt lat="43.30814438333334" lon="11.962953583333334"><ele>566.0</ele><time>2026-03-31T07:55:04.134Z</time></trkpt><trkpt lat="43.30821821666667" lon="11.963060016666669"><ele>566.0</ele><time>2026-03-31T07:55:08.281Z</time></trkpt><trkpt lat="43.30824446666667" lon="11.963152500000001"><ele>566.0</ele><time>2026-03-31T07:55:14.472Z</time></trkpt><trkpt lat="43.3082806" lon="11.963236933333333"><ele>567.7142857142858</ele><time>2026-03-31T07:55:19.467Z</time></trkpt><trkpt lat="43.3083084" lon="11.96332205"><ele>569.4285714285714</ele><time>2026-03-31T07:55:27.727Z</time></trkpt><trkpt lat="43.3083012" lon="11.963413716666665"><ele>571.1428571428571</ele><time>2026-03-31T07:55:34.726Z</time></trkpt><trkpt lat="43.308302233333336" lon="11.96350925"><ele>572.8571428571429</ele><time>2026-03-31T07:55:42.906Z</time></trkpt><trkpt lat="43.308264333333334" lon="11.963609533333333"><ele>574.5714285714286</ele><time>2026-03-31T07:56:08.056Z</time></trkpt><trkpt lat="43.308336216666675" lon="11.963657116666665"><ele>576.2857142857143</ele><time>2026-03-31T07:56:14.181Z</time></trkpt><trkpt lat="43.30839640000001" lon="11.9636838"><ele>578.0</ele><time>2026-03-31T07:56:18.172Z</time></trkpt><trkpt lat="43.308394516666674" lon="11.963772633333333"><ele>578.1666666666666</ele><time>2026-03-31T07:56:23.191Z</time></trkpt><trkpt lat="43.308409049999995" lon="11.963862666666666"><ele>578.3333333333333</ele><time>2026-03-31T07:56:30.191Z</time></trkpt><trkpt lat="43.30840006666667" lon="11.963957866666666"><ele>578.5</ele><time>2026-03-31T07:56:34.261Z</time></trkpt><trkpt lat="43.308365116666664" lon="11.964077783333336"><ele>578.6666666666666</ele><time>2026-03-31T07:56:37.268Z</time></trkpt><trkpt lat="43.3083539" lon="11.964215233333336"><ele>578.8333333333334</ele><time>2026-03-31T07:56:40.385Z</time></trkpt><trkpt lat="43.30836871666667" lon="11.964309233333331"><ele>579.0</ele><time>2026-03-31T07:56:43.371Z</time></trkpt><trkpt lat="43.308366416666665" lon="11.964410066666668"><ele>578.5</ele><time>2026-03-31T07:56:46.381Z</time></trkpt><trkpt lat="43.30836371666666" lon="11.964534016666667"><ele>578.0</ele><time>2026-03-31T07:56:49.391Z</time></trkpt><trkpt lat="43.30834674999999" lon="11.964648733333334"><ele>577.5</ele><time>2026-03-31T07:56:52.385Z</time></trkpt><trkpt lat="43.30834881666666" lon="11.96475475"><ele>577.0</ele><time>2026-03-31T07:56:55.395Z</time></trkpt><trkpt lat="43.308355383333335" lon="11.964875050000002"><ele>576.5</ele><time>2026-03-31T07:56:58.402Z</time></trkpt><trkpt lat="43.30836733333334" lon="11.964961483333331"><ele>576.0</ele><time>2026-03-31T07:57:00.391Z</time></trkpt><trkpt lat="43.30838075" lon="11.965055833333334"><ele>576.0</ele><time>2026-03-31T07:57:03.396Z</time></trkpt><trkpt lat="43.30838996666666" lon="11.965166683333333"><ele>576.0</ele><time>2026-03-31T07:57:06.537Z</time></trkpt><trkpt lat="43.3084167" lon="11.965284366666666"><ele>576.0</ele><time>2026-03-31T07:57:09.625Z</time></trkpt><trkpt lat="43.30842456666666" lon="11.96539215"><ele>576.0</ele><time>2026-03-31T07:57:13.737Z</time></trkpt><trkpt lat="43.308434749999996" lon="11.96548255"><ele>576.0</ele><time>2026-03-31T07:57:16.726Z</time></trkpt><trkpt lat="43.308441783333336" lon="11.965583166666667"><ele>576.0</ele><time>2026-03-31T07:57:19.835Z</time></trkpt><trkpt lat="43.3084582" lon="11.96568156666667"><ele>576.0000000000001</ele><time>2026-03-31T07:57:22.846Z</time></trkpt><trkpt lat="43.30847741666666" lon="11.965775950000001"><ele>576.0</ele><time>2026-03-31T07:57:25.837Z</time></trkpt><trkpt lat="43.30850725" lon="11.965861016666668"><ele>576.0</ele><time>2026-03-31T07:57:28.846Z</time></trkpt><trkpt lat="43.308516600000004" lon="11.965957133333333"><ele>576.0</ele><time>2026-03-31T07:57:32.861Z</time></trkpt><trkpt lat="43.30851065" lon="11.966043933333333"><ele>576.0</ele><time>2026-03-31T07:57:36.078Z</time></trkpt><trkpt lat="43.308504683333325" lon="11.966151100000003"><ele>576.0000000000001</ele><time>2026-03-31T07:57:39.115Z</time></trkpt><trkpt lat="43.30846488333333" lon="11.966264899999999"><ele>576.0</ele><time>2026-03-31T07:57:42.132Z</time></trkpt><trkpt lat="43.30843018333333" lon="11.966377716666665"><ele>576.8571428571429</ele><time>2026-03-31T07:57:45.136Z</time></trkpt><trkpt lat="43.308396800000004" lon="11.966485633333331"><ele>577.7142857142858</ele><time>2026-03-31T07:57:48.22Z</time></trkpt><trkpt lat="43.30838950000001" lon="11.96657265"><ele>578.5714285714286</ele><time>2026-03-31T07:57:51.236Z</time></trkpt><trkpt lat="43.30843799999999" lon="11.9666669"><ele>579.4285714285714</ele><time>2026-03-31T07:57:55.228Z</time></trkpt><trkpt lat="43.30847311666666" lon="11.966745983333333"><ele>580.2857142857142</ele><time>2026-03-31T07:57:58.24Z</time></trkpt><trkpt lat="43.30847868333334" lon="11.966835416666667"><ele>581.1428571428571</ele><time>2026-03-31T07:58:02.255Z</time></trkpt><trkpt lat="43.30849665000001" lon="11.966932566666665"><ele>582.0</ele><time>2026-03-31T07:58:07.247Z</time></trkpt><trkpt lat="43.30852463333334" lon="11.9670331"><ele>583.1666666666666</ele><time>2026-03-31T07:58:11.257Z</time></trkpt><trkpt lat="43.3085653" lon="11.967134983333336"><ele>584.3333333333334</ele><time>2026-03-31T07:58:15.272Z</time></trkpt><trkpt lat="43.30856676666667" lon="11.967235733333334"><ele>585.5</ele><time>2026-03-31T07:58:19.272Z</time></trkpt><trkpt lat="43.308598966666665" lon="11.967323033333333"><ele>586.6666666666667</ele><time>2026-03-31T07:58:24.275Z</time></trkpt><trkpt lat="43.30862823333333" lon="11.967421283333334"><ele>587.8333333333334</ele><time>2026-03-31T07:58:30.266Z</time></trkpt><trkpt lat="43.308656983333336" lon="11.967520750000002"><ele>589.0</ele><time>2026-03-31T07:58:37.275Z</time></trkpt><trkpt lat="43.308672716666656" lon="11.967626383333334"><ele>590.0</ele><time>2026-03-31T07:58:40.276Z</time></trkpt><trkpt lat="43.30867541666667" lon="11.96773405"><ele>591.0</ele><time>2026-03-31T07:58:44.292Z</time></trkpt><trkpt lat="43.30867253333333" lon="11.967845583333334"><ele>592.0</ele><time>2026-03-31T07:58:48.286Z</time></trkpt><trkpt lat="43.30866623333333" lon="11.967965733333331"><ele>593.0</ele><time>2026-03-31T07:58:52.295Z</time></trkpt><trkpt lat="43.30868421666667" lon="11.968073799999997"><ele>594.0</ele><time>2026-03-31T07:58:56.31Z</time></trkpt><trkpt lat="43.30870733333333" lon="11.9681814"><ele>595.0</ele><time>2026-03-31T07:59:01.305Z</time></trkpt><trkpt lat="43.30872281666666" lon="11.968281166666669"><ele>595.1428571428571</ele><time>2026-03-31T07:59:05.301Z</time></trkpt><trkpt lat="43.30874096666666" lon="11.968379333333333"><ele>595.2857142857142</ele><time>2026-03-31T07:59:09.316Z</time></trkpt><trkpt lat="43.30876823333333" lon="11.9684749"><ele>595.4285714285714</ele><time>2026-03-31T07:59:14.311Z</time></trkpt><trkpt lat="43.3088013" lon="11.968569633333335"><ele>595.5714285714286</ele><time>2026-03-31T07:59:18.332Z</time></trkpt><trkpt lat="43.308833433333334" lon="11.9686617"><ele>595.7142857142857</ele><time>2026-03-31T07:59:21.337Z</time></trkpt><trkpt lat="43.308876733333335" lon="11.968739000000001"><ele>595.8571428571429</ele><time>2026-03-31T07:59:26.332Z</time></trkpt><trkpt lat="43.30889233333333" lon="11.968827466666669"><ele>596.0</ele><time>2026-03-31T07:59:32.356Z</time></trkpt><trkpt lat="43.30895198333332" lon="11.968897183333336"><ele>597.8571428571429</ele><time>2026-03-31T07:59:37.353Z</time></trkpt><trkpt lat="43.30898128333333" lon="11.968983933333334"><ele>599.7142857142857</ele><time>2026-03-31T07:59:43.352Z</time></trkpt><trkpt lat="43.309024783333335" lon="11.969053016666665"><ele>601.5714285714286</ele><time>2026-03-31T07:59:49.375Z</time></trkpt><trkpt lat="43.309052949999995" lon="11.969156516666667"><ele>603.4285714285714</ele><time>2026-03-31T07:59:54.37Z</time></trkpt><trkpt lat="43.309076983333334" lon="11.969241866666668"><ele>605.2857142857142</ele><time>2026-03-31T07:59:58.39Z</time></trkpt><trkpt lat="43.309092316666664" lon="11.9693354"><ele>607.1428571428571</ele><time>2026-03-31T08:00:03.38Z</time></trkpt><trkpt lat="43.309133116666665" lon="11.969424766666668"><ele>609.0</ele><time>2026-03-31T08:00:09.401Z</time></trkpt><trkpt lat="43.30917769999999" lon="11.9694981"><ele>610.5714285714286</ele><time>2026-03-31T08:00:14.393Z</time></trkpt><trkpt lat="43.309169016666665" lon="11.969592616666667"><ele>612.1428571428571</ele><time>2026-03-31T08:00:20.395Z</time></trkpt><trkpt lat="43.30914313333333" lon="11.969672333333332"><ele>613.7142857142858</ele><time>2026-03-31T08:00:26.416Z</time></trkpt><trkpt lat="43.309157333333324" lon="11.969759816666665"><ele>615.2857142857142</ele><time>2026-03-31T08:00:30.434Z</time></trkpt><trkpt lat="43.309209633333325" lon="11.969845750000003"><ele>616.8571428571429</ele><time>2026-03-31T08:00:34.421Z</time></trkpt><trkpt lat="43.30921906666668" lon="11.969932533333333"><ele>618.4285714285714</ele><time>2026-03-31T08:00:38.432Z</time></trkpt><trkpt lat="43.30923145" lon="11.9700232"><ele>620.0</ele><time>2026-03-31T08:00:42.432Z</time></trkpt><trkpt lat="43.309235199999996" lon="11.970125650000002"><ele>620.5</ele><time>2026-03-31T08:00:46.446Z</time></trkpt><trkpt lat="43.309238949999994" lon="11.970216899999997"><ele>621.0</ele><time>2026-03-31T08:00:50.436Z</time></trkpt><trkpt lat="43.30926506666666" lon="11.97032418333333"><ele>621.5</ele><time>2026-03-31T08:00:54.453Z</time></trkpt><trkpt lat="43.30928751666667" lon="11.970405533333334"><ele>622.0</ele><time>2026-03-31T08:00:57.461Z</time></trkpt><trkpt lat="43.309284966666674" lon="11.970516349999999"><ele>622.5</ele><time>2026-03-31T08:01:01.451Z</time></trkpt><trkpt lat="43.309301649999995" lon="11.970621933333332"><ele>623.0</ele><time>2026-03-31T08:01:05.471Z</time></trkpt><trkpt lat="43.309339200000004" lon="11.9707206"><ele>623.0</ele><time>2026-03-31T08:01:09.461Z</time></trkpt><trkpt lat="43.309365966666675" lon="11.970823450000001"><ele>623.0</ele><time>2026-03-31T08:01:13.476Z</time></trkpt><trkpt lat="43.309383566666675" lon="11.970909050000001"><ele>623.0</ele><time>2026-03-31T08:01:16.491Z</time></trkpt><trkpt lat="43.309400600000004" lon="11.971018166666665"><ele>623.0</ele><time>2026-03-31T08:01:20.501Z</time></trkpt><trkpt lat="43.30942508333333" lon="11.9711066"><ele>623.0</ele><time>2026-03-31T08:01:24.496Z</time></trkpt><trkpt lat="43.30943381666666" lon="11.971220666666666"><ele>623.0</ele><time>2026-03-31T08:01:29.512Z</time></trkpt><trkpt lat="43.309434633333325" lon="11.971309733333332"><ele>623.0</ele><time>2026-03-31T08:01:32.501Z</time></trkpt><trkpt lat="43.309489799999994" lon="11.971381516666668"><ele>622.1666666666666</ele><time>2026-03-31T08:01:38.525Z</time></trkpt><trkpt lat="43.309535483333335" lon="11.971441116666664"><ele>621.3333333333333</ele><time>2026-03-31T08:02:52.616Z</time></trkpt><trkpt lat="43.30958498333332" lon="11.971500483333333"><ele>620.5</ele><time>2026-03-31T08:02:54.625Z</time></trkpt><trkpt lat="43.30963331666667" lon="11.971588650000001"><ele>619.6666666666666</ele><time>2026-03-31T08:02:57.638Z</time></trkpt><trkpt lat="43.30968085" lon="11.971653083333335"><ele>618.8333333333334</ele><time>2026-03-31T08:02:59.642Z</time></trkpt><trkpt lat="43.3097459" lon="11.97174785"><ele>618.0</ele><time>2026-03-31T08:03:02.628Z</time></trkpt><trkpt lat="43.30980046666667" lon="11.971839533333332"><ele>619.8333333333334</ele><time>2026-03-31T08:03:05.645Z</time></trkpt><trkpt lat="43.30984951666666" lon="11.971900100000001"><ele>621.6666666666666</ele><time>2026-03-31T08:03:07.648Z</time></trkpt><trkpt lat="43.30990225000001" lon="11.9719829"><ele>623.5</ele><time>2026-03-31T08:03:10.64Z</time></trkpt><trkpt lat="43.309963350000004" lon="11.972060733333334"><ele>625.3333333333333</ele><time>2026-03-31T08:03:13.646Z</time></trkpt><trkpt lat="43.30998858333334" lon="11.972168399999997"><ele>627.1666666666666</ele><time>2026-03-31T08:03:16.657Z</time></trkpt><trkpt lat="43.310041166666664" lon="11.972238766666665"><ele>629.0</ele><time>2026-03-31T08:03:19.646Z</time></trkpt><trkpt lat="43.310109149999995" lon="11.97231501666667"><ele>629.0</ele><time>2026-03-31T08:03:22.657Z</time></trkpt><trkpt lat="43.31015151666667" lon="11.972383416666665"><ele>629.0</ele><time>2026-03-31T08:03:25.669Z</time></trkpt><trkpt lat="43.31019693333333" lon="11.972445650000001"><ele>629.0</ele><time>2026-03-31T08:03:28.685Z</time></trkpt><trkpt lat="43.310264800000006" lon="11.972503066666667"><ele>629.0</ele><time>2026-03-31T08:03:32.693Z</time></trkpt><trkpt lat="43.31031026666666" lon="11.972602966666667"><ele>629.0</ele><time>2026-03-31T08:03:36.673Z</time></trkpt><trkpt lat="43.31033901666666" lon="11.972698500000002"><ele>629.0</ele><time>2026-03-31T08:03:53.707Z</time></trkpt><trkpt lat="43.31037461666667" lon="11.972784133333334"><ele>629.0</ele><time>2026-03-31T08:03:57.726Z</time></trkpt><trkpt lat="43.310404366666674" lon="11.972882833333331"><ele>627.8571428571428</ele><time>2026-03-31T08:04:01.716Z</time></trkpt><trkpt lat="43.310431116666656" lon="11.972964066666668"><ele>626.7142857142858</ele><time>2026-03-31T08:04:05.733Z</time></trkpt><trkpt lat="43.310462916666665" lon="11.973047966666664"><ele>625.5714285714286</ele><time>2026-03-31T08:04:09.72Z</time></trkpt><trkpt lat="43.31048803333333" lon="11.973157783333331"><ele>624.4285714285713</ele><time>2026-03-31T08:04:14.739Z</time></trkpt><trkpt lat="43.3105354" lon="11.973238050000003"><ele>623.2857142857142</ele><time>2026-03-31T08:04:18.733Z</time></trkpt><trkpt lat="43.310559366666666" lon="11.973332349999998"><ele>622.1428571428571</ele><time>2026-03-31T08:04:23.743Z</time></trkpt><trkpt lat="43.310578866666674" lon="11.973422366666666"><ele>621.0</ele><time>2026-03-31T08:04:27.773Z</time></trkpt><trkpt lat="43.31058396666667" lon="11.973510949999998"><ele>625.7142857142857</ele><time>2026-03-31T08:04:31.752Z</time></trkpt><trkpt lat="43.310590966666666" lon="11.973602083333333"><ele>630.4285714285714</ele><time>2026-03-31T08:04:37.763Z</time></trkpt><trkpt lat="43.31063418333333" lon="11.97367995"><ele>635.1428571428571</ele><time>2026-03-31T08:04:43.857Z</time></trkpt><trkpt lat="43.31067606666667" lon="11.973762133333333"><ele>639.8571428571429</ele><time>2026-03-31T08:04:50.863Z</time></trkpt><trkpt lat="43.310724783333335" lon="11.973836116666666"><ele>644.5714285714286</ele><time>2026-03-31T08:04:57.015Z</time></trkpt><trkpt lat="43.3107515" lon="11.9739273"><ele>649.2857142857142</ele><time>2026-03-31T08:05:04.053Z</time></trkpt><trkpt lat="43.31078266666667" lon="11.974043433333334"><ele>654.0</ele><time>2026-03-31T08:05:09.043Z</time></trkpt><trkpt lat="43.31079414999999" lon="11.974133916666664"><ele>654.6666666666666</ele><time>2026-03-31T08:05:13.163Z</time></trkpt><trkpt lat="43.310798316666656" lon="11.9742395"><ele>655.3333333333334</ele><time>2026-03-31T08:05:17.238Z</time></trkpt><trkpt lat="43.31076158333334" lon="11.9743368"><ele>656.0</ele><time>2026-03-31T08:05:21.229Z</time></trkpt><trkpt lat="43.31070543333333" lon="11.974406016666668"><ele>656.6666666666667</ele><time>2026-03-31T08:05:25.317Z</time></trkpt><trkpt lat="43.310635816666675" lon="11.974461133333334"><ele>657.3333333333334</ele><time>2026-03-31T08:05:30.281Z</time></trkpt><trkpt lat="43.31056518333333" lon="11.974444966666665"><ele>658.0</ele><time>2026-03-31T08:05:35.27Z</time></trkpt><trkpt lat="43.310440916666664" lon="11.974403849999998"><ele>658.8333333333334</ele><time>2026-03-31T08:05:37.336Z</time></trkpt><trkpt lat="43.31037483333333" lon="11.974381283333333"><ele>659.6666666666667</ele><time>2026-03-31T08:05:38.342Z</time></trkpt><trkpt lat="43.31030243333333" lon="11.974368100000001"><ele>660.5</ele><time>2026-03-31T08:05:39.351Z</time></trkpt><trkpt lat="43.31022741666668" lon="11.974356216666669"><ele>661.3333333333334</ele><time>2026-03-31T08:05:40.356Z</time></trkpt><trkpt lat="43.310311466666654" lon="11.974443633333332"><ele>662.1666666666666</ele><time>2026-03-31T08:05:43.382Z</time></trkpt><trkpt lat="43.31039501666667" lon="11.97448733333333"><ele>663.0</ele><time>2026-03-31T08:05:44.366Z</time></trkpt><trkpt lat="43.31102355481726" lon="11.975192333793537"><ele>662.9999999999999</ele><time>2026-03-31T08:05:52.762Z</time></trkpt><trkpt lat="43.31107666912254" lon="11.97527007192192"><ele>663.0</ele><time>2026-03-31T08:05:57.762Z</time></trkpt><trkpt lat="43.31110104874894" lon="11.97535043351287"><ele>663.0</ele><time>2026-03-31T08:06:04Z</time></trkpt><trkpt lat="43.31111214999999" lon="11.975442366666668"><ele>663.0</ele><time>2026-03-31T08:06:10.716Z</time></trkpt><trkpt lat="43.31112286666667" lon="11.975541516666665"><ele>663.0</ele><time>2026-03-31T08:06:15.886Z</time></trkpt><trkpt lat="43.311136749999996" lon="11.975634833333334"><ele>662.9999999999999</ele><time>2026-03-31T08:06:20.902Z</time></trkpt><trkpt lat="43.31117356666667" lon="11.975719633333332"><ele>663.0</ele><time>2026-03-31T08:06:28.232Z</time></trkpt><trkpt lat="43.31122051666666" lon="11.975817999999999"><ele>664.8571428571428</ele><time>2026-03-31T08:06:35.361Z</time></trkpt><trkpt lat="43.31123485" lon="11.975910983333332"><ele>666.7142857142857</ele><time>2026-03-31T08:06:41.416Z</time></trkpt><trkpt lat="43.311258233333334" lon="11.975992983333333"><ele>668.5714285714286</ele><time>2026-03-31T08:06:47.432Z</time></trkpt><trkpt lat="43.31127863333332" lon="11.976075166666666"><ele>670.4285714285713</ele><time>2026-03-31T08:06:53.426Z</time></trkpt><trkpt lat="43.3112673" lon="11.976162833333335"><ele>672.2857142857142</ele><time>2026-03-31T08:06:57.444Z</time></trkpt><trkpt lat="43.31124870000001" lon="11.976249183333334"><ele>674.1428571428571</ele><time>2026-03-31T08:07:01.436Z</time></trkpt><trkpt lat="43.3112236" lon="11.976351483333334"><ele>676.0</ele><time>2026-03-31T08:07:04.447Z</time></trkpt><trkpt lat="43.311189150000004" lon="11.976443466666668"><ele>676.0</ele><time>2026-03-31T08:07:08.441Z</time></trkpt><trkpt lat="43.31119981666667" lon="11.976541550000002"><ele>676.0</ele><time>2026-03-31T08:07:13.461Z</time></trkpt><trkpt lat="43.31119671666667" lon="11.976635633333336"><ele>676.0</ele><time>2026-03-31T08:07:22.47Z</time></trkpt><trkpt lat="43.31114365" lon="11.976694650000002"><ele>676.0</ele><time>2026-03-31T08:07:29.476Z</time></trkpt><trkpt lat="43.31110059999999" lon="11.976777316666668"><ele>676.0</ele><time>2026-03-31T08:07:34.486Z</time></trkpt><trkpt lat="43.31111086666667" lon="11.976867866666664"><ele>676.0</ele><time>2026-03-31T08:07:42.498Z</time></trkpt><trkpt lat="43.31110573333334" lon="11.976959433333331"><ele>676.0</ele><time>2026-03-31T08:07:49.497Z</time></trkpt><trkpt lat="43.31111231666667" lon="11.977049499999998"><ele>677.2857142857143</ele><time>2026-03-31T08:07:55.514Z</time></trkpt><trkpt lat="43.31111381666666" lon="11.977138833333333"><ele>678.5714285714286</ele><time>2026-03-31T08:08:01.516Z</time></trkpt><trkpt lat="43.311142383333326" lon="11.977224149999998"><ele>679.8571428571429</ele><time>2026-03-31T08:08:08.559Z</time></trkpt><trkpt lat="43.31118591666666" lon="11.977287950000001"><ele>681.1428571428571</ele><time>2026-03-31T08:08:13.533Z</time></trkpt><trkpt lat="43.311196" lon="11.977375050000001"><ele>682.4285714285714</ele><time>2026-03-31T08:08:19.533Z</time></trkpt><trkpt lat="43.31125163333333" lon="11.977456649999999"><ele>683.7142857142857</ele><time>2026-03-31T08:08:24.541Z</time></trkpt><trkpt lat="43.31127775" lon="11.977560316666665"><ele>685.0</ele><time>2026-03-31T08:08:28.527Z</time></trkpt><trkpt lat="43.311251999999996" lon="11.977665283333332"><ele>687.7142857142857</ele><time>2026-03-31T08:08:31.536Z</time></trkpt><trkpt lat="43.31125388333333" lon="11.977771816666666"><ele>690.4285714285714</ele><time>2026-03-31T08:08:34.546Z</time></trkpt><trkpt lat="43.31128958333334" lon="11.977861733333334"><ele>693.1428571428571</ele><time>2026-03-31T08:08:38.545Z</time></trkpt><trkpt lat="43.31133261666667" lon="11.9779281"><ele>695.8571428571429</ele><time>2026-03-31T08:08:42.584Z</time></trkpt><trkpt lat="43.31135196666667" lon="11.978017266666665"><ele>698.5714285714286</ele><time>2026-03-31T08:08:48.565Z</time></trkpt><trkpt lat="43.3113896" lon="11.97809595"><ele>701.2857142857143</ele><time>2026-03-31T08:08:54.561Z</time></trkpt><trkpt lat="43.31142596666667" lon="11.978166849999997"><ele>704.0</ele><time>2026-03-31T08:08:59.675Z</time></trkpt><trkpt lat="43.3114868" lon="11.978215916666667"><ele>705.5714285714286</ele><time>2026-03-31T08:09:05.674Z</time></trkpt><trkpt lat="43.31153763333333" lon="11.9782858"><ele>707.1428571428571</ele><time>2026-03-31T08:09:11.676Z</time></trkpt><trkpt lat="43.31158220000001" lon="11.978355883333332"><ele>708.7142857142858</ele><time>2026-03-31T08:09:17.694Z</time></trkpt><trkpt lat="43.31163010000001" lon="11.978441049999999"><ele>710.2857142857142</ele><time>2026-03-31T08:09:23.693Z</time></trkpt><trkpt lat="43.31164766666667" lon="11.978534449999998"><ele>711.8571428571428</ele><time>2026-03-31T08:09:28.688Z</time></trkpt><trkpt lat="43.311636899999996" lon="11.978627649999998"><ele>713.4285714285714</ele><time>2026-03-31T08:09:33.701Z</time></trkpt><trkpt lat="43.311640849999996" lon="11.978714516666665"><ele>715.0</ele><time>2026-03-31T08:09:39.706Z</time></trkpt><trkpt lat="43.311648016666666" lon="11.978801733333334"><ele>716.2857142857143</ele><time>2026-03-31T08:09:44.726Z</time></trkpt><trkpt lat="43.31165756666666" lon="11.978888033333332"><ele>717.5714285714286</ele><time>2026-03-31T08:09:50.733Z</time></trkpt><trkpt lat="43.31165014999999" lon="11.978976533333332"><ele>718.8571428571429</ele><time>2026-03-31T08:09:57.727Z</time></trkpt><trkpt lat="43.31161383333333" lon="11.979067883333334"><ele>720.1428571428571</ele><time>2026-03-31T08:10:02.727Z</time></trkpt><trkpt lat="43.31156196666667" lon="11.979133583333333"><ele>721.4285714285713</ele><time>2026-03-31T08:10:06.736Z</time></trkpt><trkpt lat="43.3114878" lon="11.979190116666667"><ele>722.7142857142857</ele><time>2026-03-31T08:10:10.751Z</time></trkpt><trkpt lat="43.31141168333334" lon="11.979230083333334"><ele>724.0</ele><time>2026-03-31T08:10:13.738Z</time></trkpt><trkpt lat="43.311340400000006" lon="11.979263283333333"><ele>723.2857142857142</ele><time>2026-03-31T08:10:16.751Z</time></trkpt><trkpt lat="43.3112586" lon="11.97925681666667"><ele>722.5714285714286</ele><time>2026-03-31T08:10:19.739Z</time></trkpt><trkpt lat="43.311193683333336" lon="11.9792209"><ele>721.8571428571429</ele><time>2026-03-31T08:10:22.751Z</time></trkpt><trkpt lat="43.31113576666667" lon="11.979163116666665"><ele>721.1428571428571</ele><time>2026-03-31T08:10:27.771Z</time></trkpt><trkpt lat="43.311075033333324" lon="11.979102066666668"><ele>720.4285714285714</ele><time>2026-03-31T08:10:31.761Z</time></trkpt><trkpt lat="43.31099788333333" lon="11.979099016666666"><ele>719.7142857142857</ele><time>2026-03-31T08:10:35.757Z</time></trkpt><trkpt lat="43.31095318333334" lon="11.979162933333335"><ele>719.0</ele><time>2026-03-31T08:10:39.766Z</time></trkpt><trkpt lat="43.31089106666666" lon="11.979256000000003"><ele>720.8333333333333</ele><time>2026-03-31T08:10:42.777Z</time></trkpt><trkpt lat="43.31083815" lon="11.979347916666665"><ele>722.6666666666666</ele><time>2026-03-31T08:10:45.788Z</time></trkpt><trkpt lat="43.310824849999996" lon="11.979433533333333"><ele>724.5</ele><time>2026-03-31T08:10:48.781Z</time></trkpt><trkpt lat="43.31081348333334" lon="11.979524416666667"><ele>726.3333333333334</ele><time>2026-03-31T08:10:51.792Z</time></trkpt><trkpt lat="43.310916633333335" lon="11.979579283333333"><ele>728.1666666666667</ele><time>2026-03-31T08:11:19.817Z</time></trkpt><trkpt lat="43.31085463333334" lon="11.979618766666665"><ele>730.0</ele><time>2026-03-31T08:11:33.826Z</time></trkpt><trkpt lat="43.31081198333333" lon="11.979711233333335"><ele>730.0</ele><time>2026-03-31T08:11:37.832Z</time></trkpt><trkpt lat="43.31081423333333" lon="11.979807383333332"><ele>730.0</ele><time>2026-03-31T08:11:45.849Z</time></trkpt><trkpt lat="43.310831033333336" lon="11.980001849999999"><ele>730.0</ele><time>2026-03-31T08:13:10.014Z</time></trkpt><trkpt lat="43.310799016666664" lon="11.980092516666666"><ele>730.0</ele><time>2026-03-31T08:13:13.015Z</time></trkpt><trkpt lat="43.31077578333334" lon="11.980199733333333"><ele>730.0</ele><time>2026-03-31T08:13:16.032Z</time></trkpt><trkpt lat="43.3107344" lon="11.980285749999998"><ele>730.0</ele><time>2026-03-31T08:13:19.009Z</time></trkpt><trkpt lat="43.31071013333333" lon="11.980366"><ele>731.2857142857143</ele><time>2026-03-31T08:13:21.032Z</time></trkpt><trkpt lat="43.31067806666667" lon="11.9804872"><ele>732.5714285714286</ele><time>2026-03-31T08:13:24.044Z</time></trkpt><trkpt lat="43.310655049999994" lon="11.980572400000002"><ele>733.8571428571429</ele><time>2026-03-31T08:13:26.04Z</time></trkpt><trkpt lat="43.310626883333335" lon="11.9806593"><ele>735.1428571428571</ele><time>2026-03-31T08:13:46.044Z</time></trkpt><trkpt lat="43.31060588333333" lon="11.980749833333334"><ele>736.4285714285714</ele><time>2026-03-31T08:13:51.063Z</time></trkpt><trkpt lat="43.31059386666668" lon="11.980836299999998"><ele>737.7142857142858</ele><time>2026-03-31T08:13:58.067Z</time></trkpt><trkpt lat="43.31058124999999" lon="11.980926833333333"><ele>739.0</ele><time>2026-03-31T08:14:02.091Z</time></trkpt><trkpt lat="43.310584666666664" lon="11.981039950000001"><ele>740.5</ele><time>2026-03-31T08:14:06.069Z</time></trkpt><trkpt lat="43.31058074999999" lon="11.9811588"><ele>742.0</ele><time>2026-03-31T08:14:10.168Z</time></trkpt><trkpt lat="43.310551649999994" lon="11.981271683333333"><ele>743.5</ele><time>2026-03-31T08:14:13.143Z</time></trkpt><trkpt lat="43.31051443333334" lon="11.981343283333336"><ele>745.0</ele><time>2026-03-31T08:14:15.142Z</time></trkpt><trkpt lat="43.310473900000005" lon="11.981409983333332"><ele>746.5</ele><time>2026-03-31T08:14:17.152Z</time></trkpt><trkpt lat="43.31043710000001" lon="11.981500233333334"><ele>748.0</ele><time>2026-03-31T08:14:20.167Z</time></trkpt><trkpt lat="43.31039616666667" lon="11.9815859"><ele>745.6666666666667</ele><time>2026-03-31T08:14:23.156Z</time></trkpt><trkpt lat="43.31037461666667" lon="11.981691083333333"><ele>743.3333333333334</ele><time>2026-03-31T08:14:26.181Z</time></trkpt><trkpt lat="43.31035959999999" lon="11.981800533333335"><ele>741.0</ele><time>2026-03-31T08:14:29.175Z</time></trkpt><trkpt lat="43.31037436666667" lon="11.981904466666666"><ele>738.6666666666666</ele><time>2026-03-31T08:14:32.158Z</time></trkpt><trkpt lat="43.31036361666667" lon="11.9819952"><ele>736.3333333333333</ele><time>2026-03-31T08:14:35.164Z</time></trkpt><trkpt lat="43.31035305" lon="11.982095666666664"><ele>734.0</ele><time>2026-03-31T08:14:38.176Z</time></trkpt><trkpt lat="43.31030671666667" lon="11.982207166666667"><ele>734.0</ele><time>2026-03-31T08:14:41.169Z</time></trkpt><trkpt lat="43.3102582" lon="11.982301633333334"><ele>734.0</ele><time>2026-03-31T08:14:44.245Z</time></trkpt><trkpt lat="43.310222933333336" lon="11.982392899999997"><ele>734.0</ele><time>2026-03-31T08:14:47.26Z</time></trkpt><trkpt lat="43.3101747" lon="11.982474383333331"><ele>734.0</ele><time>2026-03-31T08:14:50.27Z</time></trkpt><trkpt lat="43.31011263333333" lon="11.982563633333333"><ele>734.0</ele><time>2026-03-31T08:14:52.362Z</time></trkpt><trkpt lat="43.310058733333335" lon="11.98262055"><ele>734.0</ele><time>2026-03-31T08:14:55.365Z</time></trkpt><trkpt lat="43.31000733333333" lon="11.982675733333334"><ele>735.2857142857142</ele><time>2026-03-31T08:14:58.432Z</time></trkpt><trkpt lat="43.30996016666666" lon="11.982742"><ele>736.5714285714287</ele><time>2026-03-31T08:15:01.42Z</time></trkpt><trkpt lat="43.309925233333324" lon="11.9828419"><ele>737.8571428571429</ele><time>2026-03-31T08:15:04.427Z</time></trkpt><trkpt lat="43.3098939" lon="11.982942533333334"><ele>739.1428571428571</ele><time>2026-03-31T08:15:07.448Z</time></trkpt><trkpt lat="43.30987749999999" lon="11.983031850000001"><ele>740.4285714285713</ele><time>2026-03-31T08:15:10.449Z</time></trkpt><trkpt lat="43.3098798" lon="11.983145066666669"><ele>741.7142857142858</ele><time>2026-03-31T08:15:14.448Z</time></trkpt><trkpt lat="43.30986958333333" lon="11.9832423"><ele>743.0</ele><time>2026-03-31T08:15:17.451Z</time></trkpt><trkpt lat="43.30986696666667" lon="11.983359666666669"><ele>744.2857142857143</ele><time>2026-03-31T08:15:21.455Z</time></trkpt><trkpt lat="43.30986565" lon="11.983459766666666"><ele>745.5714285714286</ele><time>2026-03-31T08:15:25.462Z</time></trkpt><trkpt lat="43.309865499999994" lon="11.983553766666668"><ele>746.8571428571429</ele><time>2026-03-31T08:15:28.47Z</time></trkpt><trkpt lat="43.3098635" lon="11.983646649999999"><ele>748.1428571428571</ele><time>2026-03-31T08:15:31.46Z</time></trkpt><trkpt lat="43.309882766666675" lon="11.9837503"><ele>749.4285714285713</ele><time>2026-03-31T08:15:35.474Z</time></trkpt><trkpt lat="43.309896716666664" lon="11.983856266666667"><ele>750.7142857142857</ele><time>2026-03-31T08:15:39.456Z</time></trkpt><trkpt lat="43.30990596666667" lon="11.983947433333334"><ele>752.0</ele><time>2026-03-31T08:15:42.488Z</time></trkpt><trkpt lat="43.30991621666667" lon="11.984037566666666"><ele>752.0</ele><time>2026-03-31T08:15:45.464Z</time></trkpt><trkpt lat="43.309907450000004" lon="11.984146033333332"><ele>752.0</ele><time>2026-03-31T08:15:49.482Z</time></trkpt><trkpt lat="43.30987688333333" lon="11.984228533333331"><ele>752.0</ele><time>2026-03-31T08:15:52.469Z</time></trkpt><trkpt lat="43.309813166666665" lon="11.984271116666665"><ele>752.0</ele><time>2026-03-31T08:15:55.474Z</time></trkpt><trkpt lat="43.30974785" lon="11.984295683333334"><ele>752.0</ele><time>2026-03-31T08:15:58.494Z</time></trkpt><trkpt lat="43.30966873333333" lon="11.984325966666665"><ele>752.0</ele><time>2026-03-31T08:16:01.49Z</time></trkpt><trkpt lat="43.309606833333326" lon="11.984342983333331"><ele>752.0</ele><time>2026-03-31T08:16:04.49Z</time></trkpt><trkpt lat="43.309543533333326" lon="11.984364249999999"><ele>751.1428571428571</ele><time>2026-03-31T08:16:07.499Z</time></trkpt><trkpt lat="43.30946316666667" lon="11.984400683333336"><ele>750.2857142857142</ele><time>2026-03-31T08:16:11.499Z</time></trkpt><trkpt lat="43.309396366666675" lon="11.984422566666668"><ele>749.4285714285714</ele><time>2026-03-31T08:16:14.499Z</time></trkpt><trkpt lat="43.30931748333334" lon="11.984437233333331"><ele>748.5714285714286</ele><time>2026-03-31T08:16:17.519Z</time></trkpt><trkpt lat="43.30926231666667" lon="11.984485783333332"><ele>747.7142857142858</ele><time>2026-03-31T08:16:20.499Z</time></trkpt><trkpt lat="43.30924353333333" lon="11.984576716666666"><ele>746.8571428571429</ele><time>2026-03-31T08:16:24.519Z</time></trkpt><trkpt lat="43.309222333333345" lon="11.984685733333334"><ele>746.0</ele><time>2026-03-31T08:16:28.529Z</time></trkpt><trkpt lat="43.30922258333334" lon="11.984776433333332"><ele>746.0</ele><time>2026-03-31T08:16:31.517Z</time></trkpt><trkpt lat="43.30922820000001" lon="11.984875483333335"><ele>746.0</ele><time>2026-03-31T08:16:35.534Z</time></trkpt><trkpt lat="43.30925288333333" lon="11.984995216666668"><ele>746.0</ele><time>2026-03-31T08:16:39.532Z</time></trkpt><trkpt lat="43.30928191666667" lon="11.985098950000001"><ele>746.0</ele><time>2026-03-31T08:16:42.544Z</time></trkpt><trkpt lat="43.30929788333333" lon="11.985189983333331"><ele>746.0</ele><time>2026-03-31T08:16:45.544Z</time></trkpt><trkpt lat="43.30930555" lon="11.985316366666666"><ele>746.0</ele><time>2026-03-31T08:16:49.54Z</time></trkpt><trkpt lat="43.30931625" lon="11.985412966666669"><ele>746.8571428571429</ele><time>2026-03-31T08:16:52.554Z</time></trkpt><trkpt lat="43.30930858333333" lon="11.985516233333332"><ele>747.7142857142858</ele><time>2026-03-31T08:16:56.547Z</time></trkpt><trkpt lat="43.30930320000001" lon="11.985608449999999"><ele>748.5714285714286</ele><time>2026-03-31T08:16:59.552Z</time></trkpt><trkpt lat="43.30929415000001" lon="11.985715683333334"><ele>749.4285714285714</ele><time>2026-03-31T08:17:03.553Z</time></trkpt><trkpt lat="43.309292333333325" lon="11.985824283333333"><ele>750.2857142857142</ele><time>2026-03-31T08:17:07.557Z</time></trkpt><trkpt lat="43.30928518333333" lon="11.985928266666667"><ele>751.1428571428571</ele><time>2026-03-31T08:17:11.558Z</time></trkpt><trkpt lat="43.30927960000001" lon="11.986019283333333"><ele>752.0</ele><time>2026-03-31T08:17:14.584Z</time></trkpt><trkpt lat="43.30926049999999" lon="11.986107450000002"><ele>753.1428571428571</ele><time>2026-03-31T08:17:17.578Z</time></trkpt><trkpt lat="43.30924123333333" lon="11.986208833333334"><ele>754.2857142857142</ele><time>2026-03-31T08:17:21.587Z</time></trkpt><trkpt lat="43.309213866666674" lon="11.986291816666668"><ele>755.4285714285714</ele><time>2026-03-31T08:17:24.593Z</time></trkpt><trkpt lat="43.309196699999994" lon="11.986398799999998"><ele>756.5714285714286</ele><time>2026-03-31T08:17:28.601Z</time></trkpt><trkpt lat="43.30915936666667" lon="11.986470650000003"><ele>757.7142857142858</ele><time>2026-03-31T08:17:31.603Z</time></trkpt><trkpt lat="43.309139" lon="11.986555383333334"><ele>758.8571428571429</ele><time>2026-03-31T08:17:34.612Z</time></trkpt><trkpt lat="43.30910248333333" lon="11.98666135"><ele>760.0</ele><time>2026-03-31T08:17:38.598Z</time></trkpt><trkpt lat="43.309079666666676" lon="11.986764899999999"><ele>761.0</ele><time>2026-03-31T08:17:41.598Z</time></trkpt><trkpt lat="43.30907941666666" lon="11.986871833333332"><ele>762.0</ele><time>2026-03-31T08:17:44.608Z</time></trkpt><trkpt lat="43.3090743" lon="11.986980416666665"><ele>763.0</ele><time>2026-03-31T08:17:48.628Z</time></trkpt><trkpt lat="43.309063383333324" lon="11.987089833333334"><ele>764.0</ele><time>2026-03-31T08:17:51.615Z</time></trkpt><trkpt lat="43.309058033333336" lon="11.9871906"><ele>765.0</ele><time>2026-03-31T08:17:54.628Z</time></trkpt><trkpt lat="43.3090349" lon="11.987290533333331"><ele>766.0</ele><time>2026-03-31T08:17:57.633Z</time></trkpt><trkpt lat="43.309015066666674" lon="11.987401316666668"><ele>766.0</ele><time>2026-03-31T08:18:00.623Z</time></trkpt><trkpt lat="43.30896003333334" lon="11.987465733333332"><ele>766.0</ele><time>2026-03-31T08:18:03.631Z</time></trkpt><trkpt lat="43.308883966666656" lon="11.987456083333333"><ele>766.0</ele><time>2026-03-31T08:18:08.648Z</time></trkpt><trkpt lat="43.30882604999999" lon="11.987498633333333"><ele>766.0</ele><time>2026-03-31T08:18:11.643Z</time></trkpt><trkpt lat="43.30881416666666" lon="11.9875853"><ele>766.0</ele><time>2026-03-31T08:18:14.652Z</time></trkpt><trkpt lat="43.30880115" lon="11.987686383333335"><ele>766.0</ele><time>2026-03-31T08:18:17.648Z</time></trkpt><trkpt lat="43.308759816666665" lon="11.987789333333334"><ele>766.0</ele><time>2026-03-31T08:18:20.653Z</time></trkpt><trkpt lat="43.30871728333333" lon="11.987884899999997"><ele>764.6666666666667</ele><time>2026-03-31T08:18:23.671Z</time></trkpt><trkpt lat="43.308679866666665" lon="11.9879637"><ele>763.3333333333334</ele><time>2026-03-31T08:18:26.671Z</time></trkpt><trkpt lat="43.308641666666674" lon="11.988043583333335"><ele>762.0</ele><time>2026-03-31T08:18:29.679Z</time></trkpt><trkpt lat="43.30858293333334" lon="11.988092383333333"><ele>760.6666666666666</ele><time>2026-03-31T08:18:32.693Z</time></trkpt><trkpt lat="43.30852758333334" lon="11.988142983333335"><ele>759.3333333333333</ele><time>2026-03-31T08:18:35.684Z</time></trkpt><trkpt lat="43.30846365000001" lon="11.988230633333334"><ele>758.0</ele><time>2026-03-31T08:18:38.671Z</time></trkpt><trkpt lat="43.30838656666667" lon="11.988300350000001"><ele>759.1428571428572</ele><time>2026-03-31T08:18:41.68Z</time></trkpt><trkpt lat="43.30834826666666" lon="11.988377999999999"><ele>760.2857142857143</ele><time>2026-03-31T08:18:44.698Z</time></trkpt><trkpt lat="43.30829511666667" lon="11.988457616666668"><ele>761.4285714285714</ele><time>2026-03-31T08:18:47.699Z</time></trkpt><trkpt lat="43.30824231666667" lon="11.988517333333334"><ele>762.5714285714287</ele><time>2026-03-31T08:18:50.684Z</time></trkpt><trkpt lat="43.30817699999999" lon="11.988602566666668"><ele>763.7142857142857</ele><time>2026-03-31T08:18:54.703Z</time></trkpt><trkpt lat="43.308127866666666" lon="11.988659333333333"><ele>764.8571428571429</ele><time>2026-03-31T08:18:56.699Z</time></trkpt><trkpt lat="43.308065783333326" lon="11.988719933333336"><ele>766.0</ele><time>2026-03-31T08:18:59.699Z</time></trkpt><trkpt lat="43.30798623333333" lon="11.988764666666668"><ele>766.0</ele><time>2026-03-31T08:19:02.71Z</time></trkpt><trkpt lat="43.307903116666665" lon="11.9887952"><ele>766.0</ele><time>2026-03-31T08:19:05.704Z</time></trkpt><trkpt lat="43.30782708333333" lon="11.988800416666667"><ele>766.0</ele><time>2026-03-31T08:19:08.733Z</time></trkpt><trkpt lat="43.30776771666667" lon="11.988767016666667"><ele>766.0</ele><time>2026-03-31T08:19:11.721Z</time></trkpt><trkpt lat="43.30783123333334" lon="11.9888017"><ele>766.0</ele><time>2026-03-31T08:19:30.742Z</time></trkpt><trkpt lat="43.30790548333333" lon="11.9888147"><ele>766.0</ele><time>2026-03-31T08:19:33.745Z</time></trkpt><trkpt lat="43.307839650000005" lon="11.988853883333334"><ele>766.0</ele><time>2026-03-31T08:20:33.836Z</time></trkpt><trkpt lat="43.30776835" lon="11.988821316666668"><ele>766.0</ele><time>2026-03-31T08:21:29.906Z</time></trkpt><trkpt lat="43.30767831666667" lon="11.988819916666667"><ele>766.0</ele><time>2026-03-31T08:21:30.911Z</time></trkpt><trkpt lat="43.3075984" lon="11.988896533333332"><ele>766.0</ele><time>2026-03-31T08:21:32.894Z</time></trkpt><trkpt lat="43.30754541666666" lon="11.988975266666667"><ele>766.0</ele><time>2026-03-31T08:21:34.902Z</time></trkpt><trkpt lat="43.307499433333334" lon="11.989041100000001"><ele>766.0</ele><time>2026-03-31T08:21:36.914Z</time></trkpt><trkpt lat="43.30743818333334" lon="11.989085683333334"><ele>766.0</ele><time>2026-03-31T08:21:39.921Z</time></trkpt><trkpt lat="43.30736234999999" lon="11.989101866666667"><ele>766.0</ele><time>2026-03-31T08:21:43.911Z</time></trkpt><trkpt lat="43.30728831666667" lon="11.989110149999998"><ele>766.0</ele><time>2026-03-31T08:21:47.919Z</time></trkpt><trkpt lat="43.30722158333333" lon="11.989142766666664"><ele>766.0</ele><time>2026-03-31T08:21:52.977Z</time></trkpt><trkpt lat="43.30715723333333" lon="11.989215566666667"><ele>766.0</ele><time>2026-03-31T08:21:56.992Z</time></trkpt><trkpt lat="43.30710418333334" lon="11.989279066666665"><ele>766.0</ele><time>2026-03-31T08:21:58.984Z</time></trkpt><trkpt lat="43.30705295" lon="11.989338366666667"><ele>766.0</ele><time>2026-03-31T08:22:02.032Z</time></trkpt><trkpt lat="43.306981083333326" lon="11.989401000000003"><ele>769.7142857142857</ele><time>2026-03-31T08:22:05.998Z</time></trkpt><trkpt lat="43.30691651666666" lon="11.989435916666666"><ele>773.4285714285713</ele><time>2026-03-31T08:22:08.989Z</time></trkpt><trkpt lat="43.30685463333332" lon="11.989477816666666"><ele>777.1428571428571</ele><time>2026-03-31T08:22:11.998Z</time></trkpt><trkpt lat="43.306793" lon="11.9895099"><ele>780.8571428571429</ele><time>2026-03-31T08:22:15.013Z</time></trkpt><trkpt lat="43.30672186666667" lon="11.989542349999999"><ele>784.5714285714286</ele><time>2026-03-31T08:22:19.016Z</time></trkpt><trkpt lat="43.30665841666667" lon="11.98957236666667"><ele>788.2857142857143</ele><time>2026-03-31T08:22:24.016Z</time></trkpt><trkpt lat="43.30658751666666" lon="11.989562216666664"><ele>792.0</ele><time>2026-03-31T08:22:30.017Z</time></trkpt><trkpt lat="43.30651448333333" lon="11.989541599999999"><ele>792.0</ele><time>2026-03-31T08:22:34.035Z</time></trkpt><trkpt lat="43.30644631666667" lon="11.989502533333333"><ele>792.0</ele><time>2026-03-31T08:22:44.048Z</time></trkpt><trkpt lat="43.306390883333336" lon="11.989434383333332"><ele>792.0</ele><time>2026-03-31T08:22:47.061Z</time></trkpt><trkpt lat="43.306331666666665" lon="11.989357600000002"><ele>792.0</ele><time>2026-03-31T08:22:50.045Z</time></trkpt><trkpt lat="43.306270899999994" lon="11.989263983333334"><ele>792.0</ele><time>2026-03-31T08:22:53.06Z</time></trkpt><trkpt lat="43.306209366666664" lon="11.989169133333334"><ele>792.0</ele><time>2026-03-31T08:22:56.051Z</time></trkpt><trkpt lat="43.30614148333334" lon="11.98910125"><ele>791.0</ele><time>2026-03-31T08:23:00.066Z</time></trkpt><trkpt lat="43.30608601666666" lon="11.989049666666665"><ele>790.0</ele><time>2026-03-31T08:23:03.07Z</time></trkpt><trkpt lat="43.306039866666666" lon="11.988986699999998"><ele>789.0</ele><time>2026-03-31T08:23:07.088Z</time></trkpt><trkpt lat="43.30602981666666" lon="11.988893466666664"><ele>788.0</ele><time>2026-03-31T08:23:16.149Z</time></trkpt><trkpt lat="43.3060231" lon="11.988763016666667"><ele>787.0</ele><time>2026-03-31T08:23:23.154Z</time></trkpt><trkpt lat="43.306012983333325" lon="11.988674900000001"><ele>786.0</ele><time>2026-03-31T08:23:26.161Z</time></trkpt><trkpt lat="43.30597545" lon="11.988597949999999"><ele>785.0</ele><time>2026-03-31T08:23:30.155Z</time></trkpt><trkpt lat="43.30593948333333" lon="11.988516516666667"><ele>785.0</ele><time>2026-03-31T08:23:34.17Z</time></trkpt><trkpt lat="43.305886466666664" lon="11.988462466666666"><ele>785.0</ele><time>2026-03-31T08:23:38.16Z</time></trkpt><trkpt lat="43.30582774999999" lon="11.988425400000002"><ele>785.0</ele><time>2026-03-31T08:23:46.175Z</time></trkpt><trkpt lat="43.30576261666666" lon="11.988391016666666"><ele>785.0</ele><time>2026-03-31T08:23:51.19Z</time></trkpt><trkpt lat="43.30569828333334" lon="11.988351183333336"><ele>785.0</ele><time>2026-03-31T08:24:18.199Z</time></trkpt><trkpt lat="43.305634866666665" lon="11.988338016666667"><ele>785.0</ele><time>2026-03-31T08:24:21.225Z</time></trkpt><trkpt lat="43.305555950000006" lon="11.988339299999998"><ele>785.0</ele><time>2026-03-31T08:24:24.214Z</time></trkpt><trkpt lat="43.30549221666667" lon="11.988317433333334"><ele>785.5714285714286</ele><time>2026-03-31T08:24:27.225Z</time></trkpt><trkpt lat="43.30541458333334" lon="11.988306933333336"><ele>786.1428571428571</ele><time>2026-03-31T08:24:30.213Z</time></trkpt><trkpt lat="43.30535403333334" lon="11.988332183333334"><ele>786.7142857142857</ele><time>2026-03-31T08:24:33.224Z</time></trkpt><trkpt lat="43.30529378333334" lon="11.988390016666665"><ele>787.2857142857142</ele><time>2026-03-31T08:24:37.239Z</time></trkpt><trkpt lat="43.305242533333335" lon="11.988485916666667"><ele>787.8571428571429</ele><time>2026-03-31T08:24:43.314Z</time></trkpt><trkpt lat="43.305201350000004" lon="11.988558866666665"><ele>788.4285714285713</ele><time>2026-03-31T08:24:49.413Z</time></trkpt><trkpt lat="43.30525755" lon="11.988628516666665"><ele>789.0</ele><time>2026-03-31T08:25:13.584Z</time></trkpt><trkpt lat="43.30526423333334" lon="11.98872565"><ele>788.9999999999999</ele><time>2026-03-31T08:25:16.594Z</time></trkpt><trkpt lat="43.3052505" lon="11.988818866666668"><ele>789.0</ele><time>2026-03-31T08:25:19.584Z</time></trkpt><trkpt lat="43.30520681666667" lon="11.98889575"><ele>789.0</ele><time>2026-03-31T08:25:22.593Z</time></trkpt><trkpt lat="43.30515551666668" lon="11.9889605"><ele>789.0</ele><time>2026-03-31T08:25:25.581Z</time></trkpt><trkpt lat="43.30511568333333" lon="11.989040066666668"><ele>789.0</ele><time>2026-03-31T08:25:33.595Z</time></trkpt><trkpt lat="43.30507248333333" lon="11.989107483333331"><ele>788.9999999999999</ele><time>2026-03-31T08:25:41.64Z</time></trkpt><trkpt lat="43.305041816666666" lon="11.989206566666667"><ele>789.0</ele><time>2026-03-31T08:27:14.768Z</time></trkpt><trkpt lat="43.30500671666667" lon="11.989306983333332"><ele>789.5</ele><time>2026-03-31T08:27:17.783Z</time></trkpt><trkpt lat="43.30497198333334" lon="11.989412516666667"><ele>790.0</ele><time>2026-03-31T08:27:20.763Z</time></trkpt><trkpt lat="43.3049664" lon="11.989520083333332"><ele>790.5</ele><time>2026-03-31T08:27:23.767Z</time></trkpt><trkpt lat="43.30497996666666" lon="11.989626483333332"><ele>791.0</ele><time>2026-03-31T08:27:26.772Z</time></trkpt><trkpt lat="43.30497976666667" lon="11.989738116666667"><ele>791.5</ele><time>2026-03-31T08:27:35.779Z</time></trkpt><trkpt lat="43.30498313333332" lon="11.989840333333333"><ele>792.0</ele><time>2026-03-31T08:27:38.779Z</time></trkpt><trkpt lat="43.304976583333335" lon="11.989937716666669"><ele>792.5714285714286</ele><time>2026-03-31T08:27:41.79Z</time></trkpt><trkpt lat="43.304985183333336" lon="11.990040133333332"><ele>793.1428571428571</ele><time>2026-03-31T08:27:45.79Z</time></trkpt><trkpt lat="43.30498108333333" lon="11.990145216666667"><ele>793.7142857142857</ele><time>2026-03-31T08:27:49.794Z</time></trkpt><trkpt lat="43.30497653333334" lon="11.990246083333334"><ele>794.2857142857142</ele><time>2026-03-31T08:27:55.795Z</time></trkpt><trkpt lat="43.304990749999995" lon="11.9903367"><ele>794.8571428571429</ele><time>2026-03-31T08:28:03.821Z</time></trkpt><trkpt lat="43.30499751666666" lon="11.990429083333334"><ele>795.4285714285713</ele><time>2026-03-31T08:28:12.831Z</time></trkpt><trkpt lat="43.304971266666676" lon="11.9905248"><ele>796.0</ele><time>2026-03-31T08:28:17.825Z</time></trkpt><trkpt lat="43.30496923333333" lon="11.990628683333334"><ele>795.9999999999999</ele><time>2026-03-31T08:28:21.833Z</time></trkpt><trkpt lat="43.304979866666656" lon="11.990720333333334"><ele>796.0</ele><time>2026-03-31T08:28:24.879Z</time></trkpt><trkpt lat="43.304993683333336" lon="11.99082535"><ele>796.0</ele><time>2026-03-31T08:28:28.833Z</time></trkpt><trkpt lat="43.304990783333345" lon="11.990915849999999"><ele>796.0</ele><time>2026-03-31T08:28:33.988Z</time></trkpt><trkpt lat="43.305038066666675" lon="11.990988766666666"><ele>796.0</ele><time>2026-03-31T08:28:39.99Z</time></trkpt><trkpt lat="43.30507821666667" lon="11.991088866666667"><ele>795.9999999999999</ele><time>2026-03-31T08:28:44.002Z</time></trkpt><trkpt lat="43.30509516666666" lon="11.991200066666666"><ele>796.0</ele><time>2026-03-31T08:28:47.997Z</time></trkpt><trkpt lat="43.30510640000001" lon="11.991308283333334"><ele>797.1428571428571</ele><time>2026-03-31T08:28:52.016Z</time></trkpt><trkpt lat="43.3051109" lon="11.991398800000002"><ele>798.2857142857142</ele><time>2026-03-31T08:28:55.021Z</time></trkpt><trkpt lat="43.305116299999995" lon="11.991503333333332"><ele>799.4285714285713</ele><time>2026-03-31T08:28:59.012Z</time></trkpt><trkpt lat="43.305138983333336" lon="11.991591783333336"><ele>800.5714285714286</ele><time>2026-03-31T08:29:03.028Z</time></trkpt><trkpt lat="43.30513751666667" lon="11.991693999999999"><ele>801.7142857142858</ele><time>2026-03-31T08:29:07.02Z</time></trkpt><trkpt lat="43.30511868333333" lon="11.991783466666666"><ele>802.8571428571428</ele><time>2026-03-31T08:29:10.036Z</time></trkpt><trkpt lat="43.305094016666665" lon="11.991893783333333"><ele>804.0</ele><time>2026-03-31T08:29:14.027Z</time></trkpt><trkpt lat="43.3050821" lon="11.9920063"><ele>804.4285714285714</ele><time>2026-03-31T08:29:18.036Z</time></trkpt><trkpt lat="43.30507828333332" lon="11.992101016666666"><ele>804.8571428571429</ele><time>2026-03-31T08:29:21.047Z</time></trkpt><trkpt lat="43.305081933333334" lon="11.992207366666666"><ele>805.2857142857143</ele><time>2026-03-31T08:29:24.046Z</time></trkpt><trkpt lat="43.30508291666667" lon="11.99229615"><ele>805.7142857142858</ele><time>2026-03-31T08:29:27.049Z</time></trkpt><trkpt lat="43.305107799999995" lon="11.992395099999998"><ele>806.1428571428571</ele><time>2026-03-31T08:29:30.057Z</time></trkpt><trkpt lat="43.305113666666664" lon="11.992486016666666"><ele>806.5714285714287</ele><time>2026-03-31T08:29:33.072Z</time></trkpt><trkpt lat="43.30509205" lon="11.992592283333332"><ele>807.0</ele><time>2026-03-31T08:29:36.056Z</time></trkpt><trkpt lat="43.305054333333324" lon="11.992700783333332"><ele>808.1666666666666</ele><time>2026-03-31T08:29:39.067Z</time></trkpt><trkpt lat="43.30502666666666" lon="11.9928208"><ele>809.3333333333333</ele><time>2026-03-31T08:29:42.081Z</time></trkpt><trkpt lat="43.30502183333333" lon="11.992925533333334"><ele>810.5</ele><time>2026-03-31T08:29:45.022Z</time></trkpt><trkpt lat="43.305009633333334" lon="11.993027933333334"><ele>811.6666666666666</ele><time>2026-03-31T08:29:48.032Z</time></trkpt><trkpt lat="43.30499128333332" lon="11.993125083333334"><ele>812.8333333333333</ele><time>2026-03-31T08:29:51.141Z</time></trkpt><trkpt lat="43.30498408333333" lon="11.993211116666664"><ele>814.0</ele><time>2026-03-31T08:29:54.133Z</time></trkpt><trkpt lat="43.30496408333333" lon="11.993315366666666"><ele>815.1428571428572</ele><time>2026-03-31T08:29:58.142Z</time></trkpt><trkpt lat="43.30494243333333" lon="11.993406333333333"><ele>816.2857142857143</ele><time>2026-03-31T08:30:01.161Z</time></trkpt><trkpt lat="43.304932266666675" lon="11.993512449999999"><ele>817.4285714285714</ele><time>2026-03-31T08:30:04.166Z</time></trkpt><trkpt lat="43.30493828333333" lon="11.99360055"><ele>818.5714285714287</ele><time>2026-03-31T08:30:07.155Z</time></trkpt><trkpt lat="43.304933299999995" lon="11.993693516666667"><ele>819.7142857142857</ele><time>2026-03-31T08:30:10.164Z</time></trkpt><trkpt lat="43.30490259999999" lon="11.993788749999998"><ele>820.8571428571429</ele><time>2026-03-31T08:30:13.177Z</time></trkpt><trkpt lat="43.30487036666666" lon="11.993864016666665"><ele>822.0</ele><time>2026-03-31T08:30:16.163Z</time></trkpt><trkpt lat="43.304792666666664" lon="11.993938883333332"><ele>819.8333333333334</ele><time>2026-03-31T08:30:19.175Z</time></trkpt><trkpt lat="43.3047268" lon="11.994010600000001"><ele>817.6666666666667</ele><time>2026-03-31T08:30:22.19Z</time></trkpt><trkpt lat="43.30468958333333" lon="11.994097183333334"><ele>815.5</ele><time>2026-03-31T08:30:25.18Z</time></trkpt><trkpt lat="43.30466326666666" lon="11.994187583333332"><ele>813.3333333333334</ele><time>2026-03-31T08:30:28.186Z</time></trkpt><trkpt lat="43.30463329999999" lon="11.994282416666666"><ele>811.1666666666667</ele><time>2026-03-31T08:30:31.196Z</time></trkpt><trkpt lat="43.30460875" lon="11.994384383333333"><ele>809.0</ele><time>2026-03-31T08:30:34.181Z</time></trkpt><trkpt lat="43.304573233333336" lon="11.994471383333334"><ele>809.0000000000001</ele><time>2026-03-31T08:30:37.198Z</time></trkpt><trkpt lat="43.3045243" lon="11.99453305"><ele>809.0</ele><time>2026-03-31T08:30:40.189Z</time></trkpt><trkpt lat="43.304477633333335" lon="11.994603066666665"><ele>809.0</ele><time>2026-03-31T08:30:43.216Z</time></trkpt><trkpt lat="43.304430966666665" lon="11.994698249999999"><ele>809.0</ele><time>2026-03-31T08:30:47.22Z</time></trkpt><trkpt lat="43.3043912" lon="11.994784"><ele>809.0000000000001</ele><time>2026-03-31T08:30:50.221Z</time></trkpt><trkpt lat="43.30433788333333" lon="11.994877899999999"><ele>809.0</ele><time>2026-03-31T08:30:53.209Z</time></trkpt><trkpt lat="43.304282966666676" lon="11.994952016666666"><ele>809.2857142857143</ele><time>2026-03-31T08:30:56.232Z</time></trkpt><trkpt lat="43.30422398333334" lon="11.995026800000002"><ele>809.5714285714287</ele><time>2026-03-31T08:31:00.236Z</time></trkpt><trkpt lat="43.304191833333334" lon="11.9951079"><ele>809.8571428571429</ele><time>2026-03-31T08:31:03.222Z</time></trkpt><trkpt lat="43.30418888333334" lon="11.9952002"><ele>810.1428571428571</ele><time>2026-03-31T08:31:06.241Z</time></trkpt><trkpt lat="43.3042109" lon="11.995285216666664"><ele>810.4285714285714</ele><time>2026-03-31T08:31:10.233Z</time></trkpt><trkpt lat="43.30419505" lon="11.995379316666666"><ele>810.7142857142857</ele><time>2026-03-31T08:31:18.256Z</time></trkpt><trkpt lat="43.30417718333333" lon="11.995466600000002"><ele>811.0</ele><time>2026-03-31T08:31:42.282Z</time></trkpt><trkpt lat="43.30419601666667" lon="11.995553949999998"><ele>810.9999999999999</ele><time>2026-03-31T08:31:45.287Z</time></trkpt><trkpt lat="43.30420188333332" lon="11.995671133333333"><ele>811.0</ele><time>2026-03-31T08:31:49.277Z</time></trkpt><trkpt lat="43.30421665" lon="11.995775066666665"><ele>811.0</ele><time>2026-03-31T08:31:53.292Z</time></trkpt><trkpt lat="43.30422273333333" lon="11.995872716666668"><ele>811.0</ele><time>2026-03-31T08:31:58.339Z</time></trkpt><trkpt lat="43.30424455" lon="11.995961983333332"><ele>810.9999999999999</ele><time>2026-03-31T08:32:04.351Z</time></trkpt><trkpt lat="43.3042216" lon="11.996075433333333"><ele>811.0</ele><time>2026-03-31T08:32:08.363Z</time></trkpt><trkpt lat="43.30419668333334" lon="11.996168366666666"><ele>811.7142857142857</ele><time>2026-03-31T08:32:11.385Z</time></trkpt><trkpt lat="43.304179016666666" lon="11.996267450000001"><ele>812.4285714285714</ele><time>2026-03-31T08:32:14.338Z</time></trkpt><trkpt lat="43.30418434999999" lon="11.99636298333333"><ele>813.1428571428571</ele><time>2026-03-31T08:32:17.336Z</time></trkpt><trkpt lat="43.30416695000001" lon="11.996474699999998"><ele>813.8571428571429</ele><time>2026-03-31T08:32:21.334Z</time></trkpt><trkpt lat="43.304160550000006" lon="11.996570300000002"><ele>814.5714285714287</ele><time>2026-03-31T08:32:23.386Z</time></trkpt><trkpt lat="43.30413696666666" lon="11.996665266666666"><ele>815.2857142857143</ele><time>2026-03-31T08:32:27.345Z</time></trkpt><trkpt lat="43.30411455000001" lon="11.996754383333332"><ele>816.0</ele><time>2026-03-31T08:32:33.347Z</time></trkpt><trkpt lat="43.304095800000006" lon="11.996855566666666"><ele>816.5714285714286</ele><time>2026-03-31T08:32:37.341Z</time></trkpt><trkpt lat="43.30407003333333" lon="11.996951533333334"><ele>817.1428571428571</ele><time>2026-03-31T08:32:40.352Z</time></trkpt><trkpt lat="43.304053483333334" lon="11.997048066666666"><ele>817.7142857142858</ele><time>2026-03-31T08:32:43.362Z</time></trkpt><trkpt lat="43.30405543333333" lon="11.997145183333336"><ele>818.2857142857142</ele><time>2026-03-31T08:32:46.356Z</time></trkpt><trkpt lat="43.304057449999995" lon="11.997235883333333"><ele>818.8571428571428</ele><time>2026-03-31T08:32:49.361Z</time></trkpt><trkpt lat="43.30406375" lon="11.997337066666669"><ele>819.4285714285714</ele><time>2026-03-31T08:32:52.372Z</time></trkpt><trkpt lat="43.30406441666668" lon="11.9974395"><ele>820.0</ele><time>2026-03-31T08:32:56.37Z</time></trkpt><trkpt lat="43.30408408333332" lon="11.997541416666666"><ele>820.1428571428572</ele><time>2026-03-31T08:33:00.385Z</time></trkpt><trkpt lat="43.30410126666667" lon="11.997634049999998"><ele>820.2857142857142</ele><time>2026-03-31T08:33:03.391Z</time></trkpt><trkpt lat="43.304125716666675" lon="11.997718116666666"><ele>820.4285714285714</ele><time>2026-03-31T08:33:06.377Z</time></trkpt><trkpt lat="43.3041616" lon="11.997812966666666"><ele>820.5714285714287</ele><time>2026-03-31T08:33:09.4Z</time></trkpt><trkpt lat="43.30420365" lon="11.997887949999997"><ele>820.7142857142858</ele><time>2026-03-31T08:33:12.403Z</time></trkpt><trkpt lat="43.30422265" lon="11.997984483333335"><ele>820.8571428571429</ele><time>2026-03-31T08:33:15.387Z</time></trkpt><trkpt lat="43.30424651666667" lon="11.99807515"><ele>821.0</ele><time>2026-03-31T08:33:18.415Z</time></trkpt><trkpt lat="43.30426476666667" lon="11.998160566666666"><ele>821.0000000000001</ele><time>2026-03-31T08:33:21.412Z</time></trkpt><trkpt lat="43.30427908333333" lon="11.998266000000001"><ele>821.0</ele><time>2026-03-31T08:33:25.402Z</time></trkpt><trkpt lat="43.30429049999999" lon="11.998378816666666"><ele>821.0</ele><time>2026-03-31T08:33:29.418Z</time></trkpt><trkpt lat="43.30429446666667" lon="11.998483766666668"><ele>821.0</ele><time>2026-03-31T08:33:32.415Z</time></trkpt><trkpt lat="43.30431208333333" lon="11.998568383333335"><ele>821.0</ele><time>2026-03-31T08:33:35.431Z</time></trkpt><trkpt lat="43.30431133333333" lon="11.998660983333332"><ele>821.0000000000001</ele><time>2026-03-31T08:33:38.439Z</time></trkpt><trkpt lat="43.30431245" lon="11.998770116666666"><ele>821.0</ele><time>2026-03-31T08:33:42.442Z</time></trkpt><trkpt lat="43.304308000000006" lon="11.998880999999997"><ele>821.2857142857143</ele><time>2026-03-31T08:33:46.447Z</time></trkpt><trkpt lat="43.30430015" lon="11.998977033333333"><ele>821.5714285714286</ele><time>2026-03-31T08:33:49.446Z</time></trkpt><trkpt lat="43.304302316666664" lon="11.9990846"><ele>821.8571428571429</ele><time>2026-03-31T08:33:53.441Z</time></trkpt><trkpt lat="43.30430630000001" lon="11.999171616666668"><ele>822.1428571428571</ele><time>2026-03-31T08:33:56.463Z</time></trkpt><trkpt lat="43.304302233333324" lon="11.999262533333335"><ele>822.4285714285714</ele><time>2026-03-31T08:33:59.461Z</time></trkpt><trkpt lat="43.30429598333333" lon="11.999371616666668"><ele>822.7142857142858</ele><time>2026-03-31T08:34:03.455Z</time></trkpt><trkpt lat="43.30431055000001" lon="11.999477983333335"><ele>823.0</ele><time>2026-03-31T08:34:07.47Z</time></trkpt><trkpt lat="43.3043242" lon="11.999572466666667"><ele>822.0</ele><time>2026-03-31T08:34:11.458Z</time></trkpt><trkpt lat="43.30436745000001" lon="11.999650933333331"><ele>821.0</ele><time>2026-03-31T08:34:15.48Z</time></trkpt><trkpt lat="43.30440821666666" lon="11.999742383333333"><ele>820.0</ele><time>2026-03-31T08:34:19.465Z</time></trkpt><trkpt lat="43.304472583333336" lon="11.999812599999998"><ele>819.0</ele><time>2026-03-31T08:34:23.48Z</time></trkpt><trkpt lat="43.30452988333333" lon="11.999867983333335"><ele>818.0</ele><time>2026-03-31T08:34:26.492Z</time></trkpt><trkpt lat="43.304590350000005" lon="11.9999325"><ele>817.0</ele><time>2026-03-31T08:34:30.485Z</time></trkpt><trkpt lat="43.30463598333334" lon="11.9999935"><ele>816.0</ele><time>2026-03-31T08:34:34.5Z</time></trkpt><trkpt lat="43.30467791666666" lon="12.000062083333333"><ele>816.0</ele><time>2026-03-31T08:34:39.522Z</time></trkpt><trkpt lat="43.3047359" lon="12.000111049999997"><ele>816.0</ele><time>2026-03-31T08:34:43.579Z</time></trkpt><trkpt lat="43.30479643333333" lon="12.000174250000002"><ele>816.0</ele><time>2026-03-31T08:35:09.786Z</time></trkpt><trkpt lat="43.3048534" lon="12.000259383333331"><ele>816.0</ele><time>2026-03-31T08:35:18.775Z</time></trkpt><trkpt lat="43.30492326666667" lon="12.000326166666666"><ele>816.0</ele><time>2026-03-31T08:35:21.782Z</time></trkpt><trkpt lat="43.30498801666666" lon="12.000376000000003"><ele>816.0</ele><time>2026-03-31T08:35:24.79Z</time></trkpt><trkpt lat="43.30505013333333" lon="12.000437499999999"><ele>816.5714285714286</ele><time>2026-03-31T08:35:27.782Z</time></trkpt><trkpt lat="43.305123116666664" lon="12.000466466666667"><ele>817.1428571428571</ele><time>2026-03-31T08:35:30.795Z</time></trkpt><trkpt lat="43.30518775000001" lon="12.000514116666666"><ele>817.7142857142858</ele><time>2026-03-31T08:35:34.782Z</time></trkpt><trkpt lat="43.3052344" lon="12.000589783333332"><ele>818.2857142857142</ele><time>2026-03-31T08:35:37.805Z</time></trkpt><trkpt lat="43.30528206666666" lon="12.000684566666665"><ele>818.8571428571428</ele><time>2026-03-31T08:35:40.806Z</time></trkpt><trkpt lat="43.3053328" lon="12.000759366666667"><ele>819.4285714285714</ele><time>2026-03-31T08:35:42.798Z</time></trkpt><trkpt lat="43.30538498333333" lon="12.000818916666667"><ele>820.0</ele><time>2026-03-31T08:35:44.797Z</time></trkpt><trkpt lat="43.30545645000001" lon="12.0008896"><ele>820.0</ele><time>2026-03-31T08:35:47.808Z</time></trkpt><trkpt lat="43.305516950000005" lon="12.000933516666665"><ele>820.0</ele><time>2026-03-31T08:35:50.822Z</time></trkpt><trkpt lat="43.30556539999999" lon="12.000992183333334"><ele>820.0</ele><time>2026-03-31T08:35:55.82Z</time></trkpt><trkpt lat="43.30558424999999" lon="12.001110916666667"><ele>820.0</ele><time>2026-03-31T08:36:00.817Z</time></trkpt><trkpt lat="43.30560035" lon="12.0011959"><ele>820.0</ele><time>2026-03-31T08:36:03.823Z</time></trkpt><trkpt lat="43.30561285" lon="12.001289566666665"><ele>820.0</ele><time>2026-03-31T08:36:06.833Z</time></trkpt><trkpt lat="43.30561550000001" lon="12.001383166666669"><ele>820.0</ele><time>2026-03-31T08:36:09.826Z</time></trkpt><trkpt lat="43.30562983333333" lon="12.001467683333331"><ele>819.1666666666666</ele><time>2026-03-31T08:36:12.832Z</time></trkpt><trkpt lat="43.305638183333336" lon="12.00156475"><ele>818.3333333333333</ele><time>2026-03-31T08:36:15.843Z</time></trkpt><trkpt lat="43.3056304" lon="12.001658966666666"><ele>817.5</ele><time>2026-03-31T08:36:18.837Z</time></trkpt><trkpt lat="43.30558615" lon="12.001743383333334"><ele>816.6666666666667</ele><time>2026-03-31T08:36:21.842Z</time></trkpt><trkpt lat="43.30552721666666" lon="12.001825983333333"><ele>815.8333333333334</ele><time>2026-03-31T08:36:24.857Z</time></trkpt><trkpt lat="43.305461783333335" lon="12.001895533333334"><ele>815.0</ele><time>2026-03-31T08:36:27.842Z</time></trkpt><trkpt lat="43.30539726666667" lon="12.001954816666668"><ele>815.0000000000001</ele><time>2026-03-31T08:36:31.86Z</time></trkpt><trkpt lat="43.30533643333334" lon="12.00202703333333"><ele>815.0</ele><time>2026-03-31T08:36:35.847Z</time></trkpt><trkpt lat="43.30527761666667" lon="12.002082166666666"><ele>815.0</ele><time>2026-03-31T08:36:38.863Z</time></trkpt><trkpt lat="43.3052044" lon="12.002145383333334"><ele>815.0</ele><time>2026-03-31T08:36:41.873Z</time></trkpt><trkpt lat="43.30512643333333" lon="12.002177749999998"><ele>815.0000000000001</ele><time>2026-03-31T08:36:44.858Z</time></trkpt><trkpt lat="43.305048500000005" lon="12.002213649999998"><ele>815.0</ele><time>2026-03-31T08:36:47.868Z</time></trkpt><trkpt lat="43.304965833333334" lon="12.002230533333334"><ele>815.0000000000001</ele><time>2026-03-31T08:36:50.879Z</time></trkpt><trkpt lat="43.304879250000006" lon="12.00223695"><ele>815.0</ele><time>2026-03-31T08:36:53.873Z</time></trkpt><trkpt lat="43.30480219999999" lon="12.002256700000002"><ele>815.0</ele><time>2026-03-31T08:36:56.877Z</time></trkpt><trkpt lat="43.30473498333335" lon="12.002281466666666"><ele>815.0</ele><time>2026-03-31T08:36:59.892Z</time></trkpt><trkpt lat="43.3046609" lon="12.0023353"><ele>815.0000000000001</ele><time>2026-03-31T08:37:02.883Z</time></trkpt><trkpt lat="43.30459881666667" lon="12.002380833333332"><ele>815.0</ele><time>2026-03-31T08:37:05.89Z</time></trkpt><trkpt lat="43.304562350000005" lon="12.002469866666669"><ele>815.0</ele><time>2026-03-31T08:37:09.88Z</time></trkpt><trkpt lat="43.30454211666667" lon="12.002573066666667"><ele>815.0</ele><time>2026-03-31T08:37:12.892Z</time></trkpt><trkpt lat="43.3045195" lon="12.00267975"><ele>815.0</ele><time>2026-03-31T08:37:15.902Z</time></trkpt><trkpt lat="43.30452036666667" lon="12.002774116666668"><ele>815.0</ele><time>2026-03-31T08:37:18.896Z</time></trkpt><trkpt lat="43.304506466666666" lon="12.002873783333333"><ele>815.0</ele><time>2026-03-31T08:37:21.903Z</time></trkpt><trkpt lat="43.30446833333334" lon="12.002951616666667"><ele>815.0</ele><time>2026-03-31T08:37:25.92Z</time></trkpt><trkpt lat="43.30441958333334" lon="12.003027283333331"><ele>815.0</ele><time>2026-03-31T08:37:31.925Z</time></trkpt><trkpt lat="43.30436676666667" lon="12.003096983333334"><ele>815.0</ele><time>2026-03-31T08:37:35.906Z</time></trkpt><trkpt lat="43.30432946666666" lon="12.0031788"><ele>815.0</ele><time>2026-03-31T08:37:38.92Z</time></trkpt><trkpt lat="43.304308183333326" lon="12.003269900000001"><ele>815.0</ele><time>2026-03-31T08:37:41.913Z</time></trkpt><trkpt lat="43.30431371666667" lon="12.003369966666668"><ele>815.0</ele><time>2026-03-31T08:37:44.917Z</time></trkpt><trkpt lat="43.30433441666667" lon="12.003466066666666"><ele>815.0</ele><time>2026-03-31T08:37:47.98Z</time></trkpt><trkpt lat="43.30436401666666" lon="12.003561733333333"><ele>815.0</ele><time>2026-03-31T08:37:50.993Z</time></trkpt><trkpt lat="43.304394450000004" lon="12.003648349999999"><ele>815.0</ele><time>2026-03-31T08:37:53.978Z</time></trkpt><trkpt lat="43.30443941666667" lon="12.003752666666665"><ele>816.0000000000001</ele><time>2026-03-31T08:37:56.991Z</time></trkpt><trkpt lat="43.30448113333333" lon="12.003839466666665"><ele>817.0</ele><time>2026-03-31T08:37:59.004Z</time></trkpt><trkpt lat="43.3044997" lon="12.003933566666667"><ele>818.0</ele><time>2026-03-31T08:38:02.007Z</time></trkpt><trkpt lat="43.30448271666667" lon="12.004045916666668"><ele>819.0</ele><time>2026-03-31T08:38:05.997Z</time></trkpt><trkpt lat="43.3044539" lon="12.004143833333334"><ele>820.0000000000001</ele><time>2026-03-31T08:38:09.012Z</time></trkpt><trkpt lat="43.30443456666667" lon="12.004253000000002"><ele>821.0</ele><time>2026-03-31T08:38:11.997Z</time></trkpt><trkpt lat="43.30443835" lon="12.004357916666669"><ele>821.1428571428572</ele><time>2026-03-31T08:38:15.007Z</time></trkpt><trkpt lat="43.30445688333332" lon="12.004452616666667"><ele>821.2857142857143</ele><time>2026-03-31T08:38:18.147Z</time></trkpt><trkpt lat="43.304459783333336" lon="12.004561083333332"><ele>821.4285714285714</ele><time>2026-03-31T08:38:21.138Z</time></trkpt><trkpt lat="43.304458800000006" lon="12.004665716666667"><ele>821.5714285714287</ele><time>2026-03-31T08:38:24.155Z</time></trkpt><trkpt lat="43.30446391666666" lon="12.0047596"><ele>821.7142857142857</ele><time>2026-03-31T08:38:27.157Z</time></trkpt><trkpt lat="43.304470433333336" lon="12.004848099999998"><ele>821.8571428571429</ele><time>2026-03-31T08:38:30.154Z</time></trkpt><trkpt lat="43.30448589999999" lon="12.004945616666664"><ele>822.0</ele><time>2026-03-31T08:38:33.16Z</time></trkpt><trkpt lat="43.30447891666666" lon="12.005034899999998"><ele>822.4285714285714</ele><time>2026-03-31T08:38:36.168Z</time></trkpt><trkpt lat="43.30441518333334" lon="12.005069383333334"><ele>822.8571428571429</ele><time>2026-03-31T08:38:41.179Z</time></trkpt><trkpt lat="43.30444988333334" lon="12.005145083333332"><ele>823.2857142857142</ele><time>2026-03-31T08:38:47.178Z</time></trkpt><trkpt lat="43.304486066666676" lon="12.005248600000002"><ele>823.7142857142858</ele><time>2026-03-31T08:38:50.18Z</time></trkpt><trkpt lat="43.30452035" lon="12.00534105"><ele>824.1428571428572</ele><time>2026-03-31T08:38:53.218Z</time></trkpt><trkpt lat="43.30455155" lon="12.005444633333331"><ele>824.5714285714286</ele><time>2026-03-31T08:38:56.177Z</time></trkpt><trkpt lat="43.30457391666667" lon="12.005534516666666"><ele>825.0</ele><time>2026-03-31T08:38:59.183Z</time></trkpt><trkpt lat="43.304600549999996" lon="12.00561358333333"><ele>825.0</ele><time>2026-03-31T08:39:02.193Z</time></trkpt><trkpt lat="43.304642216666664" lon="12.00569575"><ele>825.0</ele><time>2026-03-31T08:39:05.187Z</time></trkpt><trkpt lat="43.30469158333333" lon="12.005794933333334"><ele>825.0</ele><time>2026-03-31T08:39:08.192Z</time></trkpt><trkpt lat="43.304692633333325" lon="12.005896516666667"><ele>825.0</ele><time>2026-03-31T08:39:11.206Z</time></trkpt><trkpt lat="43.30470381666667" lon="12.005992566666665"><ele>825.0</ele><time>2026-03-31T08:39:15.193Z</time></trkpt><trkpt lat="43.304721283333336" lon="12.00609355"><ele>825.0</ele><time>2026-03-31T08:39:19.216Z</time></trkpt><trkpt lat="43.304756883333326" lon="12.0061698"><ele>825.0</ele><time>2026-03-31T08:39:22.208Z</time></trkpt><trkpt lat="43.3048074" lon="12.006223233333332"><ele>827.3333333333334</ele><time>2026-03-31T08:39:26.217Z</time></trkpt><trkpt lat="43.304869499999995" lon="12.006277566666666"><ele>829.6666666666667</ele><time>2026-03-31T08:39:31.215Z</time></trkpt><trkpt lat="43.30492901666666" lon="12.00632625"><ele>832.0</ele><time>2026-03-31T08:39:38.218Z</time></trkpt><trkpt lat="43.304959233333335" lon="12.006421150000001"><ele>834.3333333333334</ele><time>2026-03-31T08:39:51.274Z</time></trkpt><trkpt lat="43.304990916666675" lon="12.006507083333334"><ele>836.6666666666667</ele><time>2026-03-31T08:39:54.247Z</time></trkpt><trkpt lat="43.30502190000001" lon="12.006606783333332"><ele>839.0</ele><time>2026-03-31T08:39:57.258Z</time></trkpt><trkpt lat="43.30506878333333" lon="12.006708133333333"><ele>839.0</ele><time>2026-03-31T08:40:00.252Z</time></trkpt><trkpt lat="43.305105266666665" lon="12.006799899999999"><ele>839.0</ele><time>2026-03-31T08:40:03.261Z</time></trkpt><trkpt lat="43.30513546666666" lon="12.006878116666666"><ele>839.0</ele><time>2026-03-31T08:40:05.248Z</time></trkpt><trkpt lat="43.30516761666666" lon="12.006960966666668"><ele>839.0</ele><time>2026-03-31T08:40:07.251Z</time></trkpt><trkpt lat="43.30521515" lon="12.00706225"><ele>839.0</ele><time>2026-03-31T08:40:10.267Z</time></trkpt><trkpt lat="43.30525786666667" lon="12.007135733333334"><ele>839.0</ele><time>2026-03-31T08:40:13.276Z</time></trkpt><trkpt lat="43.3053034" lon="12.0072151"><ele>839.0</ele><time>2026-03-31T08:40:16.259Z</time></trkpt><trkpt lat="43.30537091666667" lon="12.00731235"><ele>839.0</ele><time>2026-03-31T08:40:19.277Z</time></trkpt><trkpt lat="43.30542646666666" lon="12.007375783333334"><ele>839.0</ele><time>2026-03-31T08:40:22.282Z</time></trkpt><trkpt lat="43.30541595" lon="12.007469483333335"><ele>839.0</ele><time>2026-03-31T08:40:29.283Z</time></trkpt><trkpt lat="43.30535161666667" lon="12.007502949999997"><ele>839.0</ele><time>2026-03-31T08:40:32.281Z</time></trkpt><trkpt lat="43.30527898333333" lon="12.00752185"><ele>839.0</ele><time>2026-03-31T08:40:35.285Z</time></trkpt><trkpt lat="43.305194699999994" lon="12.007540066666666"><ele>839.0</ele><time>2026-03-31T08:40:38.297Z</time></trkpt><trkpt lat="43.30511996666667" lon="12.007558633333334"><ele>839.0</ele><time>2026-03-31T08:40:42.297Z</time></trkpt><trkpt lat="43.30505001666667" lon="12.007599933333331"><ele>838.8333333333334</ele><time>2026-03-31T08:40:45.297Z</time></trkpt><trkpt lat="43.30497621666667" lon="12.007628683333332"><ele>838.6666666666667</ele><time>2026-03-31T08:40:48.309Z</time></trkpt><trkpt lat="43.30490956666666" lon="12.007663849999998"><ele>838.5</ele><time>2026-03-31T08:40:51.305Z</time></trkpt><trkpt lat="43.30482576666667" lon="12.007675733333334"><ele>838.3333333333333</ele><time>2026-03-31T08:40:54.308Z</time></trkpt><trkpt lat="43.30474438333334" lon="12.007686866666665"><ele>838.1666666666666</ele><time>2026-03-31T08:40:57.318Z</time></trkpt><trkpt lat="43.30466331666667" lon="12.0077016"><ele>838.0</ele><time>2026-03-31T08:41:00.316Z</time></trkpt><trkpt lat="43.30459066666668" lon="12.007715816666666"><ele>834.8333333333333</ele><time>2026-03-31T08:41:03.317Z</time></trkpt><trkpt lat="43.30452088333333" lon="12.00774788333333"><ele>831.6666666666666</ele><time>2026-03-31T08:41:06.331Z</time></trkpt><trkpt lat="43.30445428333334" lon="12.007804099999998"><ele>828.5</ele><time>2026-03-31T08:41:09.316Z</time></trkpt><trkpt lat="43.304391966666664" lon="12.007866383333333"><ele>825.3333333333333</ele><time>2026-03-31T08:41:12.327Z</time></trkpt><trkpt lat="43.30433233333333" lon="12.007924449999999"><ele>822.1666666666666</ele><time>2026-03-31T08:41:14.322Z</time></trkpt><trkpt lat="43.30427236666666" lon="12.008006683333333"><ele>819.0</ele><time>2026-03-31T08:41:43.352Z</time></trkpt><trkpt lat="43.30421703333334" lon="12.008084016666665"><ele>819.0</ele><time>2026-03-31T08:41:47.363Z</time></trkpt><trkpt lat="43.304150183333334" lon="12.008127983333335"><ele>819.0</ele><time>2026-03-31T08:41:52.361Z</time></trkpt><trkpt lat="43.304141183333336" lon="12.008221683333332"><ele>819.0</ele><time>2026-03-31T08:42:04.385Z</time></trkpt><trkpt lat="43.304119716666676" lon="12.008314166666667"><ele>819.0</ele><time>2026-03-31T08:42:08.397Z</time></trkpt><trkpt lat="43.3040745" lon="12.008404766666668"><ele>819.0</ele><time>2026-03-31T08:42:11.383Z</time></trkpt><trkpt lat="43.30402026666667" lon="12.0085014"><ele>819.0</ele><time>2026-03-31T08:42:14.398Z</time></trkpt><trkpt lat="43.30399151666667" lon="12.008589316666665"><ele>820.7142857142857</ele><time>2026-03-31T08:42:17.405Z</time></trkpt><trkpt lat="43.303976533333326" lon="12.008688733333335"><ele>822.4285714285714</ele><time>2026-03-31T08:42:21.394Z</time></trkpt><trkpt lat="43.303949816666666" lon="12.008773016666666"><ele>824.1428571428571</ele><time>2026-03-31T08:42:24.41Z</time></trkpt><trkpt lat="43.30394391666667" lon="12.008871366666664"><ele>825.8571428571429</ele><time>2026-03-31T08:42:27.399Z</time></trkpt><trkpt lat="43.30393548333333" lon="12.008980633333332"><ele>827.5714285714286</ele><time>2026-03-31T08:42:30.419Z</time></trkpt><trkpt lat="43.303932383333326" lon="12.0090778"><ele>829.2857142857142</ele><time>2026-03-31T08:42:35.517Z</time></trkpt><trkpt lat="43.303934383333335" lon="12.00917285"><ele>831.0</ele><time>2026-03-31T08:42:52.528Z</time></trkpt><trkpt lat="43.30397101666667" lon="12.009265633333333"><ele>831.5</ele><time>2026-03-31T08:42:56.551Z</time></trkpt><trkpt lat="43.304007649999996" lon="12.009371933333334"><ele>832.0</ele><time>2026-03-31T08:43:00.572Z</time></trkpt><trkpt lat="43.304021933333324" lon="12.009479949999998"><ele>832.5</ele><time>2026-03-31T08:43:03.549Z</time></trkpt><trkpt lat="43.30403516666667" lon="12.0095888"><ele>833.0</ele><time>2026-03-31T08:43:06.559Z</time></trkpt><trkpt lat="43.30403986666667" lon="12.009699250000002"><ele>833.5</ele><time>2026-03-31T08:43:09.547Z</time></trkpt><trkpt lat="43.3040503" lon="12.009795249999998"><ele>834.0</ele><time>2026-03-31T08:43:12.563Z</time></trkpt><trkpt lat="43.30407101666666" lon="12.009895116666666"><ele>833.1666666666666</ele><time>2026-03-31T08:43:15.569Z</time></trkpt><trkpt lat="43.30409626666667" lon="12.009999299999999"><ele>832.3333333333333</ele><time>2026-03-31T08:43:18.582Z</time></trkpt><trkpt lat="43.30414275" lon="12.010109866666669"><ele>831.5</ele><time>2026-03-31T08:43:21.583Z</time></trkpt><trkpt lat="43.30417268333334" lon="12.010221566666665"><ele>830.6666666666666</ele><time>2026-03-31T08:43:24.574Z</time></trkpt><trkpt lat="43.30420931666666" lon="12.010323249999999"><ele>829.8333333333333</ele><time>2026-03-31T08:43:27.589Z</time></trkpt><trkpt lat="43.30424828333333" lon="12.010416233333334"><ele>829.0</ele><time>2026-03-31T08:43:30.594Z</time></trkpt><trkpt lat="43.3042676" lon="12.01050893333333"><ele>828.9999999999999</ele><time>2026-03-31T08:43:33.581Z</time></trkpt><trkpt lat="43.304290099999996" lon="12.010611233333336"><ele>829.0</ele><time>2026-03-31T08:43:36.597Z</time></trkpt><trkpt lat="43.30432413333333" lon="12.010711933333335"><ele>829.0</ele><time>2026-03-31T08:43:39.603Z</time></trkpt><trkpt lat="43.30436605" lon="12.010800933333334"><ele>829.0</ele><time>2026-03-31T08:43:42.592Z</time></trkpt><trkpt lat="43.304416633333325" lon="12.010868999999998"><ele>828.9999999999999</ele><time>2026-03-31T08:43:47.611Z</time></trkpt><trkpt lat="43.30446583333334" lon="12.010965233333332"><ele>829.0</ele><time>2026-03-31T08:43:50.627Z</time></trkpt><trkpt lat="43.304439599999995" lon="12.011081449999999"><ele>826.8333333333333</ele><time>2026-03-31T08:43:53.61Z</time></trkpt><trkpt lat="43.30438475" lon="12.011185683333332"><ele>824.6666666666666</ele><time>2026-03-31T08:43:56.622Z</time></trkpt><trkpt lat="43.304339049999996" lon="12.011245399999998"><ele>822.5</ele><time>2026-03-31T08:43:58.628Z</time></trkpt><trkpt lat="43.30428233333334" lon="12.011339549999999"><ele>820.3333333333333</ele><time>2026-03-31T08:44:01.644Z</time></trkpt><trkpt lat="43.30422231666666" lon="12.011401450000003"><ele>818.1666666666666</ele><time>2026-03-31T08:44:04.634Z</time></trkpt><trkpt lat="43.30415281666666" lon="12.011425833333332"><ele>816.0</ele><time>2026-03-31T08:44:07.638Z</time></trkpt><trkpt lat="43.3040655" lon="12.011428116666666"><ele>816.0</ele><time>2026-03-31T08:44:10.652Z</time></trkpt><trkpt lat="43.303992283333336" lon="12.011440499999999"><ele>816.0</ele><time>2026-03-31T08:44:13.645Z</time></trkpt><trkpt lat="43.30392226666667" lon="12.011471950000002"><ele>816.0</ele><time>2026-03-31T08:44:16.648Z</time></trkpt><trkpt lat="43.303847999999995" lon="12.011510633333334"><ele>816.0</ele><time>2026-03-31T08:44:19.663Z</time></trkpt><trkpt lat="43.30376608333333" lon="12.011549083333334"><ele>816.0</ele><time>2026-03-31T08:44:22.652Z</time></trkpt><trkpt lat="43.303697449999994" lon="12.01160945"><ele>816.0</ele><time>2026-03-31T08:44:25.663Z</time></trkpt><trkpt lat="43.30362998333334" lon="12.011688683333333"><ele>816.4285714285714</ele><time>2026-03-31T08:44:28.672Z</time></trkpt><trkpt lat="43.30357628333333" lon="12.011786716666666"><ele>816.8571428571429</ele><time>2026-03-31T08:44:31.663Z</time></trkpt><trkpt lat="43.30353358333334" lon="12.011852199999998"><ele>817.2857142857142</ele><time>2026-03-31T08:44:33.667Z</time></trkpt><trkpt lat="43.30347511666667" lon="12.011916166666666"><ele>817.7142857142858</ele><time>2026-03-31T08:44:36.685Z</time></trkpt><trkpt lat="43.30341221666666" lon="12.011922599999998"><ele>818.1428571428571</ele><time>2026-03-31T08:44:38.687Z</time></trkpt><trkpt lat="43.3033577" lon="12.011848716666668"><ele>818.5714285714286</ele><time>2026-03-31T08:44:42.702Z</time></trkpt><trkpt lat="43.30332256666668" lon="12.011757166666666"><ele>819.0</ele><time>2026-03-31T08:44:46.768Z</time></trkpt><trkpt lat="43.30327255" lon="12.011699749999998"><ele>819.0</ele><time>2026-03-31T08:44:49.778Z</time></trkpt><trkpt lat="43.30319545000001" lon="12.011661883333334"><ele>819.0</ele><time>2026-03-31T08:44:53.768Z</time></trkpt><trkpt lat="43.303132033333334" lon="12.011677033333335"><ele>819.0</ele><time>2026-03-31T08:44:56.782Z</time></trkpt><trkpt lat="43.3030598" lon="12.011703916666665"><ele>819.0</ele><time>2026-03-31T08:45:00.775Z</time></trkpt><trkpt lat="43.30298963333333" lon="12.011696199999998"><ele>819.0</ele><time>2026-03-31T08:45:04.893Z</time></trkpt><trkpt lat="43.30292448333333" lon="12.011707249999999"><ele>819.0</ele><time>2026-03-31T08:45:10.096Z</time></trkpt><trkpt lat="43.302853199999994" lon="12.011712066666666"><ele>819.0</ele><time>2026-03-31T08:45:16.021Z</time></trkpt><trkpt lat="43.30278698333333" lon="12.011698383333332"><ele>820.4285714285714</ele><time>2026-03-31T08:45:24.193Z</time></trkpt><trkpt lat="43.30270699999999" lon="12.011705083333332"><ele>821.8571428571429</ele><time>2026-03-31T08:45:30.187Z</time></trkpt><trkpt lat="43.302641449999996" lon="12.01172165"><ele>823.2857142857142</ele><time>2026-03-31T08:45:33.198Z</time></trkpt><trkpt lat="43.302561883333325" lon="12.011725816666669"><ele>824.7142857142858</ele><time>2026-03-31T08:45:37.332Z</time></trkpt><trkpt lat="43.30249391666666" lon="12.01172375"><ele>826.1428571428571</ele><time>2026-03-31T08:45:43.343Z</time></trkpt><trkpt lat="43.30243083333333" lon="12.01172455"><ele>827.5714285714286</ele><time>2026-03-31T08:45:48.362Z</time></trkpt><trkpt lat="43.30239415" lon="12.011816733333333"><ele>829.0</ele><time>2026-03-31T08:45:54.433Z</time></trkpt><trkpt lat="43.302436783333334" lon="12.011892699999997"><ele>829.0</ele><time>2026-03-31T08:45:59.426Z</time></trkpt><trkpt lat="43.30249031666667" lon="12.011947000000003"><ele>829.0</ele><time>2026-03-31T08:46:03.442Z</time></trkpt><trkpt lat="43.30254766666667" lon="12.012012266666668"><ele>829.0</ele><time>2026-03-31T08:46:07.438Z</time></trkpt><trkpt lat="43.302599300000004" lon="12.012101216666668"><ele>829.0</ele><time>2026-03-31T08:46:11.449Z</time></trkpt><trkpt lat="43.302640516666656" lon="12.012183116666666"><ele>829.0</ele><time>2026-03-31T08:46:14.458Z</time></trkpt><trkpt lat="43.30267846666667" lon="12.0122862"><ele>829.0</ele><time>2026-03-31T08:46:17.527Z</time></trkpt><trkpt lat="43.30271321666667" lon="12.012359216666669"><ele>829.0</ele><time>2026-03-31T08:46:20.533Z</time></trkpt><trkpt lat="43.3027475" lon="12.012440183333334"><ele>831.2857142857142</ele><time>2026-03-31T08:46:24.549Z</time></trkpt><trkpt lat="43.3027664" lon="12.012542250000001"><ele>833.5714285714286</ele><time>2026-03-31T08:46:29.543Z</time></trkpt><trkpt lat="43.30281045" lon="12.012622283333334"><ele>835.8571428571429</ele><time>2026-03-31T08:46:34.613Z</time></trkpt><trkpt lat="43.30284993333333" lon="12.012692250000002"><ele>838.1428571428571</ele><time>2026-03-31T08:46:39.709Z</time></trkpt><trkpt lat="43.30287621666666" lon="12.012784016666668"><ele>840.4285714285714</ele><time>2026-03-31T08:46:45.785Z</time></trkpt><trkpt lat="43.30291635" lon="12.012856916666665"><ele>842.7142857142857</ele><time>2026-03-31T08:46:49.807Z</time></trkpt><trkpt lat="43.30293226666666" lon="12.012942366666667"><ele>845.0</ele><time>2026-03-31T08:46:52.809Z</time></trkpt><trkpt lat="43.30288556666667" lon="12.013016016666665"><ele>844.9999999999999</ele><time>2026-03-31T08:46:56.802Z</time></trkpt><trkpt lat="43.302823000000004" lon="12.013043249999997"><ele>845.0</ele><time>2026-03-31T08:46:59.811Z</time></trkpt><trkpt lat="43.30288321666667" lon="12.012975850000002"><ele>845.0</ele><time>2026-03-31T08:47:24.907Z</time></trkpt><trkpt lat="43.302905716666665" lon="12.012889583333333"><ele>845.0</ele><time>2026-03-31T08:47:27.902Z</time></trkpt><trkpt lat="43.302911266666655" lon="12.012798066666667"><ele>845.0</ele><time>2026-03-31T08:47:30.909Z</time></trkpt><trkpt lat="43.30287938333333" lon="12.0127082"><ele>844.9999999999999</ele><time>2026-03-31T08:47:33.921Z</time></trkpt><trkpt lat="43.302844533333335" lon="12.012625966666668"><ele>845.0</ele><time>2026-03-31T08:47:36.908Z</time></trkpt><trkpt lat="43.30281268333333" lon="12.0125307"><ele>842.7142857142857</ele><time>2026-03-31T08:47:39.919Z</time></trkpt><trkpt lat="43.30278203333334" lon="12.012454683333333"><ele>840.4285714285714</ele><time>2026-03-31T08:47:41.927Z</time></trkpt><trkpt lat="43.30274166666666" lon="12.012368516666667"><ele>838.1428571428571</ele><time>2026-03-31T08:47:44.92Z</time></trkpt><trkpt lat="43.302696600000004" lon="12.01228595"><ele>835.8571428571429</ele><time>2026-03-31T08:47:47.926Z</time></trkpt><trkpt lat="43.30266015" lon="12.012195083333332"><ele>833.5714285714286</ele><time>2026-03-31T08:47:50.987Z</time></trkpt><trkpt lat="43.30264149999999" lon="12.012099066666668"><ele>831.2857142857142</ele><time>2026-03-31T08:47:53.977Z</time></trkpt><trkpt lat="43.30260516666667" lon="12.011992483333332"><ele>829.0</ele><time>2026-03-31T08:47:56.986Z</time></trkpt><trkpt lat="43.302541649999995" lon="12.011927066666665"><ele>828.9999999999999</ele><time>2026-03-31T08:48:00.001Z</time></trkpt><trkpt lat="43.3024705" lon="12.011884766666666"><ele>829.0</ele><time>2026-03-31T08:48:03.034Z</time></trkpt><trkpt lat="43.3024355" lon="12.011801183333333"><ele>829.0</ele><time>2026-03-31T08:48:29.173Z</time></trkpt><trkpt lat="43.302393333333335" lon="12.011732649999999"><ele>829.0</ele><time>2026-03-31T08:48:32.181Z</time></trkpt><trkpt lat="43.30240883333333" lon="12.011636716666665"><ele>828.9999999999999</ele><time>2026-03-31T08:48:35.183Z</time></trkpt><trkpt lat="43.30255139999999" lon="12.011634133333333"><ele>829.0</ele><time>2026-03-31T08:48:42.231Z</time></trkpt><trkpt lat="43.30262688333334" lon="12.011624600000001"><ele>825.8000000000001</ele><time>2026-03-31T08:48:45.186Z</time></trkpt><trkpt lat="43.302698516666666" lon="12.011596416666665"><ele>822.6</ele><time>2026-03-31T08:48:48.185Z</time></trkpt><trkpt lat="43.30279293333333" lon="12.011601166666667"><ele>819.4</ele><time>2026-03-31T08:48:51.217Z</time></trkpt><trkpt lat="43.30289608333332" lon="12.011629783333333"><ele>816.2</ele><time>2026-03-31T08:48:53.208Z</time></trkpt><trkpt lat="43.30299628333334" lon="12.011643099999999"><ele>813.0</ele><time>2026-03-31T08:48:55.216Z</time></trkpt><trkpt lat="43.303084649999995" lon="12.011646666666664"><ele>812.1666666666666</ele><time>2026-03-31T08:48:57.199Z</time></trkpt><trkpt lat="43.30316066666666" lon="12.011633483333332"><ele>811.3333333333333</ele><time>2026-03-31T08:48:59.217Z</time></trkpt><trkpt lat="43.30323601666667" lon="12.011615633333333"><ele>810.5</ele><time>2026-03-31T08:49:01.212Z</time></trkpt><trkpt lat="43.30331508333334" lon="12.011596799999998"><ele>809.6666666666666</ele><time>2026-03-31T08:49:05.202Z</time></trkpt><trkpt lat="43.30336026666667" lon="12.011516783333333"><ele>808.8333333333333</ele><time>2026-03-31T08:49:09.222Z</time></trkpt><trkpt lat="43.30336408333332" lon="12.011413716666668"><ele>808.0</ele><time>2026-03-31T08:49:12.233Z</time></trkpt><trkpt lat="43.30337049999999" lon="12.0112903"><ele>807.9999999999999</ele><time>2026-03-31T08:49:15.218Z</time></trkpt><trkpt lat="43.303331866666674" lon="12.01120985"><ele>808.0</ele><time>2026-03-31T08:49:18.227Z</time></trkpt><trkpt lat="43.30325995" lon="12.011148616666667"><ele>808.0</ele><time>2026-03-31T08:49:20.239Z</time></trkpt><trkpt lat="43.30319271666667" lon="12.011056033333334"><ele>808.0</ele><time>2026-03-31T08:49:23.223Z</time></trkpt><trkpt lat="43.303152049999994" lon="12.010989933333335"><ele>807.9999999999999</ele><time>2026-03-31T08:49:25.241Z</time></trkpt><trkpt lat="43.303108349999995" lon="12.010917833333332"><ele>808.0</ele><time>2026-03-31T08:49:28.241Z</time></trkpt><trkpt lat="43.303064416666665" lon="12.010838750000001"><ele>805.8571428571429</ele><time>2026-03-31T08:49:31.235Z</time></trkpt><trkpt lat="43.30302226666666" lon="12.010754683333333"><ele>803.7142857142857</ele><time>2026-03-31T08:49:34.253Z</time></trkpt><trkpt lat="43.30298091666667" lon="12.010684549999999"><ele>801.5714285714287</ele><time>2026-03-31T08:49:37.241Z</time></trkpt><trkpt lat="43.30292265" lon="12.0106194"><ele>799.4285714285714</ele><time>2026-03-31T08:49:41.245Z</time></trkpt><trkpt lat="43.302883783333336" lon="12.010541683333335"><ele>797.2857142857143</ele><time>2026-03-31T08:49:45.268Z</time></trkpt><trkpt lat="43.30290523333333" lon="12.01044293333333"><ele>795.1428571428572</ele><time>2026-03-31T08:49:49.274Z</time></trkpt><trkpt lat="43.30283878333333" lon="12.010400983333334"><ele>793.0</ele><time>2026-03-31T08:50:13.298Z</time></trkpt><trkpt lat="43.30276731666666" lon="12.010414733333334"><ele>793.0000000000001</ele><time>2026-03-31T08:50:16.304Z</time></trkpt><trkpt lat="43.30269556666667" lon="12.010413883333335"><ele>793.0</ele><time>2026-03-31T08:50:20.299Z</time></trkpt><trkpt lat="43.3026274" lon="12.010411183333334"><ele>793.0</ele><time>2026-03-31T08:50:23.309Z</time></trkpt><trkpt lat="43.30252965" lon="12.010414600000002"><ele>793.0</ele><time>2026-03-31T08:50:26.294Z</time></trkpt><trkpt lat="43.302459566666656" lon="12.010439750000002"><ele>793.0</ele><time>2026-03-31T08:50:30.31Z</time></trkpt><trkpt lat="43.30239039999999" lon="12.010447983333332"><ele>793.0000000000001</ele><time>2026-03-31T08:50:33.301Z</time></trkpt><trkpt lat="43.30232314999999" lon="12.010429716666666"><ele>793.0</ele><time>2026-03-31T08:50:36.315Z</time></trkpt><trkpt lat="43.30225406666667" lon="12.010415866666664"><ele>793.2857142857143</ele><time>2026-03-31T08:50:41.33Z</time></trkpt><trkpt lat="43.30217641666667" lon="12.0103874"><ele>793.5714285714286</ele><time>2026-03-31T08:50:45.325Z</time></trkpt><trkpt lat="43.302114849999995" lon="12.010335249999999"><ele>793.8571428571429</ele><time>2026-03-31T08:50:48.329Z</time></trkpt><trkpt lat="43.302058833333334" lon="12.010284533333332"><ele>794.1428571428571</ele><time>2026-03-31T08:50:52.325Z</time></trkpt><trkpt lat="43.30200005" lon="12.010227899999999"><ele>794.4285714285714</ele><time>2026-03-31T08:50:56.34Z</time></trkpt><trkpt lat="43.30193195" lon="12.010154966666668"><ele>794.7142857142858</ele><time>2026-03-31T08:51:00.343Z</time></trkpt><trkpt lat="43.301883166666656" lon="12.010084983333336"><ele>795.0</ele><time>2026-03-31T08:51:03.347Z</time></trkpt><trkpt lat="43.30184003333334" lon="12.010016066666667"><ele>792.1666666666666</ele><time>2026-03-31T08:51:06.35Z</time></trkpt><trkpt lat="43.30178696666667" lon="12.009952383333333"><ele>789.3333333333333</ele><time>2026-03-31T08:51:09.347Z</time></trkpt><trkpt lat="43.30171825000001" lon="12.009880116666665"><ele>786.5</ele><time>2026-03-31T08:51:12.351Z</time></trkpt><trkpt lat="43.30165548333333" lon="12.0098006"><ele>783.6666666666666</ele><time>2026-03-31T08:51:15.365Z</time></trkpt><trkpt lat="43.301606716666655" lon="12.009735816666668"><ele>780.8333333333333</ele><time>2026-03-31T08:51:18.35Z</time></trkpt><trkpt lat="43.301556116666674" lon="12.009659883333331"><ele>778.0</ele><time>2026-03-31T08:51:22.369Z</time></trkpt><trkpt lat="43.30151553333334" lon="12.009583883333333"><ele>777.9999999999999</ele><time>2026-03-31T08:51:26.383Z</time></trkpt><trkpt lat="43.30146851666667" lon="12.009511349999999"><ele>778.0</ele><time>2026-03-31T08:51:30.369Z</time></trkpt><trkpt lat="43.301392150000005" lon="12.009388983333334"><ele>778.0</ele><time>2026-03-31T08:51:53.409Z</time></trkpt><trkpt lat="43.30132566666666" lon="12.009284849999998"><ele>778.0</ele><time>2026-03-31T08:51:55.396Z</time></trkpt><trkpt lat="43.30128285000001" lon="12.009204966666667"><ele>777.9999999999999</ele><time>2026-03-31T08:51:57.399Z</time></trkpt><trkpt lat="43.30123126666667" lon="12.009119400000001"><ele>778.0</ele><time>2026-03-31T08:52:00.416Z</time></trkpt><trkpt lat="43.30117966666666" lon="12.009040933333333"><ele>775.0</ele><time>2026-03-31T08:52:04.43Z</time></trkpt><trkpt lat="43.301148233333336" lon="12.008953350000002"><ele>772.0</ele><time>2026-03-31T08:52:10.432Z</time></trkpt><trkpt lat="43.30112008333334" lon="12.00886545"><ele>769.0</ele><time>2026-03-31T08:52:14.42Z</time></trkpt><trkpt lat="43.30110136666667" lon="12.008764716666667"><ele>766.0</ele><time>2026-03-31T08:52:18.436Z</time></trkpt><trkpt lat="43.30107028333334" lon="12.008687899999998"><ele>763.0</ele><time>2026-03-31T08:52:22.451Z</time></trkpt><trkpt lat="43.301011583333334" lon="12.008620616666667"><ele>760.0</ele><time>2026-03-31T08:52:27.449Z</time></trkpt><trkpt lat="43.300935200000005" lon="12.008574316666666"><ele>757.0</ele><time>2026-03-31T08:52:31.463Z</time></trkpt><trkpt lat="43.30086936666667" lon="12.008569616666666"><ele>757.0</ele><time>2026-03-31T08:52:35.458Z</time></trkpt><trkpt lat="43.30079651666667" lon="12.00858785"><ele>757.0</ele><time>2026-03-31T08:52:39.466Z</time></trkpt><trkpt lat="43.30073296666666" lon="12.008604066666665"><ele>757.0</ele><time>2026-03-31T08:52:43.479Z</time></trkpt><trkpt lat="43.30066778333333" lon="12.008605716666667"><ele>757.0</ele><time>2026-03-31T08:52:47.469Z</time></trkpt><trkpt lat="43.300599500000004" lon="12.008592283333334"><ele>757.0</ele><time>2026-03-31T08:52:51.493Z</time></trkpt><trkpt lat="43.30051555" lon="12.008580683333332"><ele>757.0</ele><time>2026-03-31T08:52:55.483Z</time></trkpt><trkpt lat="43.300441766666665" lon="12.008587900000002"><ele>757.0</ele><time>2026-03-31T08:52:58.493Z</time></trkpt><trkpt lat="43.30036676666667" lon="12.008598466666669"><ele>756.0</ele><time>2026-03-31T08:53:01.499Z</time></trkpt><trkpt lat="43.300294" lon="12.008608416666668"><ele>755.0</ele><time>2026-03-31T08:53:04.492Z</time></trkpt><trkpt lat="43.30022663333333" lon="12.008613766666668"><ele>754.0</ele><time>2026-03-31T08:53:07.505Z</time></trkpt><trkpt lat="43.30014918333333" lon="12.008617433333331"><ele>753.0</ele><time>2026-03-31T08:53:11.518Z</time></trkpt><trkpt lat="43.30007475000001" lon="12.008604983333333"><ele>752.0</ele><time>2026-03-31T08:53:15.511Z</time></trkpt><trkpt lat="43.300016416666665" lon="12.00854755"><ele>751.0</ele><time>2026-03-31T08:53:20.524Z</time></trkpt><trkpt lat="43.299956916666666" lon="12.008503483333334"><ele>750.0</ele><time>2026-03-31T08:53:31.53Z</time></trkpt><trkpt lat="43.299892400000004" lon="12.008432716666668"><ele>750.0</ele><time>2026-03-31T08:53:35.54Z</time></trkpt><trkpt lat="43.2998405" lon="12.008372266666667"><ele>750.0</ele><time>2026-03-31T08:53:38.544Z</time></trkpt><trkpt lat="43.299767016666664" lon="12.008322933333334"><ele>750.0</ele><time>2026-03-31T08:53:42.566Z</time></trkpt><trkpt lat="43.299695199999995" lon="12.008264333333335"><ele>750.0</ele><time>2026-03-31T08:53:46.556Z</time></trkpt><trkpt lat="43.29963735" lon="12.008206166666666"><ele>750.0</ele><time>2026-03-31T08:53:49.566Z</time></trkpt><trkpt lat="43.299579916666666" lon="12.008160483333333"><ele>750.0</ele><time>2026-03-31T08:53:52.575Z</time></trkpt><trkpt lat="43.29951666666666" lon="12.008107383333334"><ele>750.0</ele><time>2026-03-31T08:53:55.567Z</time></trkpt><trkpt lat="43.299441949999995" lon="12.008058400000001"><ele>746.8571428571429</ele><time>2026-03-31T08:53:59.585Z</time></trkpt><trkpt lat="43.29938215000001" lon="12.00801765"><ele>743.7142857142857</ele><time>2026-03-31T08:54:02.589Z</time></trkpt><trkpt lat="43.29931338333334" lon="12.007983433333335"><ele>740.5714285714286</ele><time>2026-03-31T08:54:05.581Z</time></trkpt><trkpt lat="43.29924198333333" lon="12.007949033333334"><ele>737.4285714285714</ele><time>2026-03-31T08:54:08.59Z</time></trkpt><trkpt lat="43.299175766666664" lon="12.007917966666666"><ele>734.2857142857142</ele><time>2026-03-31T08:54:11.6Z</time></trkpt><trkpt lat="43.29910735" lon="12.0078949"><ele>731.1428571428571</ele><time>2026-03-31T08:54:14.591Z</time></trkpt><trkpt lat="43.29904203333334" lon="12.00787355"><ele>728.0</ele><time>2026-03-31T08:54:17.609Z</time></trkpt><trkpt lat="43.29897743333333" lon="12.007823499999999"><ele>727.0</ele><time>2026-03-31T08:54:20.612Z</time></trkpt><trkpt lat="43.298896449999994" lon="12.007771583333332"><ele>726.0</ele><time>2026-03-31T08:54:23.6Z</time></trkpt><trkpt lat="43.298818016666665" lon="12.0077286"><ele>725.0</ele><time>2026-03-31T08:54:26.618Z</time></trkpt><trkpt lat="43.298744850000006" lon="12.00770385"><ele>724.0</ele><time>2026-03-31T08:54:29.62Z</time></trkpt><trkpt lat="43.29866443333334" lon="12.0076827"><ele>723.0</ele><time>2026-03-31T08:54:32.636Z</time></trkpt><trkpt lat="43.29857741666667" lon="12.00769163333333"><ele>722.0</ele><time>2026-03-31T08:54:35.625Z</time></trkpt><trkpt lat="43.29850403333334" lon="12.007724800000002"><ele>722.0</ele><time>2026-03-31T08:54:38.631Z</time></trkpt><trkpt lat="43.29843493333333" lon="12.007764750000002"><ele>722.0</ele><time>2026-03-31T08:54:41.647Z</time></trkpt><trkpt lat="43.29838353333333" lon="12.007821433333334"><ele>722.0</ele><time>2026-03-31T08:54:44.708Z</time></trkpt><trkpt lat="43.29833985" lon="12.007908349999997"><ele>722.0</ele><time>2026-03-31T08:54:48.745Z</time></trkpt><trkpt lat="43.29828413333333" lon="12.007966150000001"><ele>722.0</ele><time>2026-03-31T08:55:08.882Z</time></trkpt><trkpt lat="43.298244049999994" lon="12.008038800000001"><ele>722.0</ele><time>2026-03-31T08:55:13.066Z</time></trkpt><trkpt lat="43.2982806" lon="12.008113716666667"><ele>722.0</ele><time>2026-03-31T08:55:27.169Z</time></trkpt><trkpt lat="43.29825113333333" lon="12.008205700000001"><ele>722.0</ele><time>2026-03-31T08:55:30.185Z</time></trkpt><trkpt lat="43.29823161666666" lon="12.0082975"><ele>722.0</ele><time>2026-03-31T08:55:35.204Z</time></trkpt><trkpt lat="43.298226516666666" lon="12.008411850000002"><ele>722.0</ele><time>2026-03-31T08:55:41.33Z</time></trkpt><trkpt lat="43.298234933333326" lon="12.0085094"><ele>722.0</ele><time>2026-03-31T08:55:46.345Z</time></trkpt><trkpt lat="43.29824443333334" lon="12.0086048"><ele>722.0</ele><time>2026-03-31T08:55:51.35Z</time></trkpt><trkpt lat="43.298243433333326" lon="12.00870605"><ele>722.0</ele><time>2026-03-31T08:55:55.408Z</time></trkpt><trkpt lat="43.2982083" lon="12.0088181"><ele>724.0</ele><time>2026-03-31T08:55:58.421Z</time></trkpt><trkpt lat="43.298145183333325" lon="12.008961783333334"><ele>726.0</ele><time>2026-03-31T08:56:00.425Z</time></trkpt><trkpt lat="43.29808825" lon="12.009067433333334"><ele>728.0</ele><time>2026-03-31T08:56:02.414Z</time></trkpt><trkpt lat="43.298053849999995" lon="12.009148216666667"><ele>730.0</ele><time>2026-03-31T08:56:04.43Z</time></trkpt><trkpt lat="43.29800768333333" lon="12.009235466666667"><ele>732.0</ele><time>2026-03-31T08:56:06.413Z</time></trkpt><trkpt lat="43.29796565" lon="12.009325233333334"><ele>734.0</ele><time>2026-03-31T08:56:10.417Z</time></trkpt><trkpt lat="43.29793456666666" lon="12.009411916666666"><ele>729.8571428571428</ele><time>2026-03-31T08:56:15.503Z</time></trkpt><trkpt lat="43.29790198333333" lon="12.009492849999999"><ele>725.7142857142858</ele><time>2026-03-31T08:56:20.506Z</time></trkpt><trkpt lat="43.29787668333333" lon="12.009574166666669"><ele>721.5714285714286</ele><time>2026-03-31T08:56:24.525Z</time></trkpt><trkpt lat="43.297854916666665" lon="12.009658400000001"><ele>717.4285714285713</ele><time>2026-03-31T08:56:27.557Z</time></trkpt><trkpt lat="43.29785478333333" lon="12.009746616666666"><ele>713.2857142857142</ele><time>2026-03-31T08:56:30.545Z</time></trkpt><trkpt lat="43.29785329999999" lon="12.009847083333334"><ele>709.1428571428571</ele><time>2026-03-31T08:56:34.74Z</time></trkpt><trkpt lat="43.29786135" lon="12.009950683333333"><ele>705.0</ele><time>2026-03-31T08:56:38.725Z</time></trkpt><trkpt lat="43.29787861666667" lon="12.010058700000002"><ele>704.8333333333334</ele><time>2026-03-31T08:56:42.741Z</time></trkpt><trkpt lat="43.297902083333334" lon="12.010162383333332"><ele>704.6666666666666</ele><time>2026-03-31T08:56:46.807Z</time></trkpt><trkpt lat="43.29792583333333" lon="12.010251516666665"><ele>704.5</ele><time>2026-03-31T08:56:53.209Z</time></trkpt><trkpt lat="43.297915200000006" lon="12.010383566666667"><ele>704.3333333333333</ele><time>2026-03-31T08:57:09.47Z</time></trkpt><trkpt lat="43.29791663333334" lon="12.010477633333336"><ele>704.1666666666666</ele><time>2026-03-31T08:57:15.495Z</time></trkpt><trkpt lat="43.297919699999994" lon="12.010574333333334"><ele>704.0</ele><time>2026-03-31T08:57:20.665Z</time></trkpt><trkpt lat="43.29793296666667" lon="12.010672466666664"><ele>704.0</ele><time>2026-03-31T08:57:24.688Z</time></trkpt><trkpt lat="43.297973633333335" lon="12.010752883333334"><ele>704.0</ele><time>2026-03-31T08:57:29.75Z</time></trkpt><trkpt lat="43.29800701666666" lon="12.010840716666666"><ele>704.0</ele><time>2026-03-31T08:57:33.99Z</time></trkpt><trkpt lat="43.297974350000004" lon="12.0109333"><ele>704.0</ele><time>2026-03-31T08:57:38.134Z</time></trkpt><trkpt lat="43.29796541666666" lon="12.011019066666666"><ele>704.0</ele><time>2026-03-31T08:57:42.148Z</time></trkpt><trkpt lat="43.297963416666676" lon="12.011121"><ele>704.0</ele><time>2026-03-31T08:57:46.147Z</time></trkpt><trkpt lat="43.29797075" lon="12.011226533333335"><ele>704.0</ele><time>2026-03-31T08:57:50.215Z</time></trkpt><trkpt lat="43.29797538333334" lon="12.011315349999999"><ele>705.8333333333333</ele><time>2026-03-31T08:57:53.216Z</time></trkpt><trkpt lat="43.29794721666667" lon="12.011415566666669"><ele>707.6666666666666</ele><time>2026-03-31T08:57:56.233Z</time></trkpt><trkpt lat="43.29789806666666" lon="12.0114766"><ele>709.5</ele><time>2026-03-31T08:58:00.244Z</time></trkpt><trkpt lat="43.29782358333333" lon="12.011464249999998"><ele>711.3333333333334</ele><time>2026-03-31T08:58:04.244Z</time></trkpt><trkpt lat="43.29776173333333" lon="12.011403933333334"><ele>713.1666666666667</ele><time>2026-03-31T08:58:08.255Z</time></trkpt><trkpt lat="43.29771130000001" lon="12.011329583333334"><ele>715.0</ele><time>2026-03-31T08:58:13.245Z</time></trkpt><trkpt lat="43.29763798333333" lon="12.011276100000002"><ele>715.0</ele><time>2026-03-31T08:58:17.337Z</time></trkpt><trkpt lat="43.297584549999996" lon="12.011229366666665"><ele>715.0</ele><time>2026-03-31T08:58:19.32Z</time></trkpt><trkpt lat="43.297526133333335" lon="12.011188149999999"><ele>715.0</ele><time>2026-03-31T08:58:22.34Z</time></trkpt><trkpt lat="43.29747609999999" lon="12.011126100000002"><ele>715.0</ele><time>2026-03-31T08:58:25.344Z</time></trkpt><trkpt lat="43.29741333333333" lon="12.011082199999999"><ele>715.0</ele><time>2026-03-31T08:58:28.409Z</time></trkpt><trkpt lat="43.29735004999999" lon="12.011056783333334"><ele>715.0</ele><time>2026-03-31T08:58:31.39Z</time></trkpt><trkpt lat="43.29728803333334" lon="12.011024883333334"><ele>715.0</ele><time>2026-03-31T08:58:34.484Z</time></trkpt><trkpt lat="43.29721371666667" lon="12.010981966666668"><ele>713.0</ele><time>2026-03-31T08:58:38.497Z</time></trkpt><trkpt lat="43.297153316666666" lon="12.010937400000001"><ele>711.0</ele><time>2026-03-31T08:58:41.485Z</time></trkpt><trkpt lat="43.297077900000005" lon="12.010953033333333"><ele>709.0</ele><time>2026-03-31T08:58:45.496Z</time></trkpt><trkpt lat="43.29700523333333" lon="12.010975083333335"><ele>707.0</ele><time>2026-03-31T08:58:49.51Z</time></trkpt><trkpt lat="43.296945699999995" lon="12.011030333333334"><ele>705.0</ele><time>2026-03-31T08:58:53.503Z</time></trkpt><trkpt lat="43.29687533333334" lon="12.011079133333332"><ele>703.0</ele><time>2026-03-31T08:58:57.574Z</time></trkpt><trkpt lat="43.296806116666666" lon="12.011136266666666"><ele>703.0</ele><time>2026-03-31T08:59:01.586Z</time></trkpt><trkpt lat="43.2967752" lon="12.011218433333333"><ele>703.0</ele><time>2026-03-31T08:59:05.578Z</time></trkpt><trkpt lat="43.29675781666666" lon="12.011320983333333"><ele>703.0</ele><time>2026-03-31T08:59:09.589Z</time></trkpt><trkpt lat="43.29676395" lon="12.011415099999999"><ele>703.0</ele><time>2026-03-31T08:59:13.585Z</time></trkpt><trkpt lat="43.29673406666667" lon="12.01150155"><ele>703.0</ele><time>2026-03-31T08:59:17.595Z</time></trkpt><trkpt lat="43.29666733333333" lon="12.011553966666668"><ele>703.0</ele><time>2026-03-31T08:59:21.585Z</time></trkpt><trkpt lat="43.29660394999999" lon="12.011561983333335"><ele>703.0</ele><time>2026-03-31T08:59:24.606Z</time></trkpt><trkpt lat="43.29652845000001" lon="12.011517599999998"><ele>703.0</ele><time>2026-03-31T08:59:29.599Z</time></trkpt><trkpt lat="43.29646424999999" lon="12.011464916666668"><ele>703.0</ele><time>2026-03-31T08:59:32.611Z</time></trkpt><trkpt lat="43.29639743333334" lon="12.01140816666667"><ele>703.0</ele><time>2026-03-31T08:59:35.616Z</time></trkpt><trkpt lat="43.29632209999999" lon="12.01136895"><ele>703.0</ele><time>2026-03-31T08:59:38.609Z</time></trkpt><trkpt lat="43.29625864999999" lon="12.011346199999998"><ele>703.0</ele><time>2026-03-31T08:59:41.625Z</time></trkpt><trkpt lat="43.29619885" lon="12.011318233333336"><ele>703.0</ele><time>2026-03-31T08:59:44.626Z</time></trkpt><trkpt lat="43.29614799999999" lon="12.011258066666668"><ele>703.0</ele><time>2026-03-31T08:59:47.618Z</time></trkpt><trkpt lat="43.29609945000001" lon="12.01116848333333"><ele>704.5714285714286</ele><time>2026-03-31T08:59:50.629Z</time></trkpt><trkpt lat="43.29605451666666" lon="12.011069316666665"><ele>706.1428571428571</ele><time>2026-03-31T08:59:53.635Z</time></trkpt><trkpt lat="43.29601254999999" lon="12.0109876"><ele>707.7142857142858</ele><time>2026-03-31T08:59:56.654Z</time></trkpt><trkpt lat="43.29597865000001" lon="12.010890766666668"><ele>709.2857142857142</ele><time>2026-03-31T08:59:59.64Z</time></trkpt><trkpt lat="43.29595514999999" lon="12.010793666666666"><ele>710.8571428571429</ele><time>2026-03-31T09:00:02.645Z</time></trkpt><trkpt lat="43.29593750000001" lon="12.01069815"><ele>712.4285714285714</ele><time>2026-03-31T09:00:05.641Z</time></trkpt><trkpt lat="43.295922700000006" lon="12.010609583333332"><ele>714.0</ele><time>2026-03-31T09:00:08.677Z</time></trkpt><trkpt lat="43.295903416666675" lon="12.010522683333333"><ele>711.7142857142857</ele><time>2026-03-31T09:00:11.663Z</time></trkpt><trkpt lat="43.29585836666667" lon="12.010451650000002"><ele>709.4285714285714</ele><time>2026-03-31T09:00:15.66Z</time></trkpt><trkpt lat="43.29581296666667" lon="12.010382816666667"><ele>707.1428571428571</ele><time>2026-03-31T09:00:19.668Z</time></trkpt><trkpt lat="43.2957676" lon="12.010294916666664"><ele>704.8571428571429</ele><time>2026-03-31T09:00:23.664Z</time></trkpt><trkpt lat="43.295724400000005" lon="12.0102319"><ele>702.5714285714286</ele><time>2026-03-31T09:00:27.677Z</time></trkpt><trkpt lat="43.29566286666667" lon="12.010164283333333"><ele>700.2857142857142</ele><time>2026-03-31T09:00:33.677Z</time></trkpt><trkpt lat="43.29560763333334" lon="12.010074516666668"><ele>698.0</ele><time>2026-03-31T09:00:37.689Z</time></trkpt><trkpt lat="43.29556106666667" lon="12.009989016666667"><ele>698.0</ele><time>2026-03-31T09:00:40.696Z</time></trkpt><trkpt lat="43.295521583333326" lon="12.009898166666668"><ele>698.0</ele><time>2026-03-31T09:00:43.689Z</time></trkpt><trkpt lat="43.29548726666667" lon="12.009810316666668"><ele>698.0</ele><time>2026-03-31T09:00:46.699Z</time></trkpt><trkpt lat="43.29544431666667" lon="12.009710683333331"><ele>698.0</ele><time>2026-03-31T09:00:49.705Z</time></trkpt><trkpt lat="43.295414183333335" lon="12.009633683333334"><ele>698.0</ele><time>2026-03-31T09:00:52.699Z</time></trkpt><trkpt lat="43.2953775" lon="12.009540550000002"><ele>698.0</ele><time>2026-03-31T09:00:55.709Z</time></trkpt><trkpt lat="43.29534753333334" lon="12.009430583333335"><ele>698.0</ele><time>2026-03-31T09:00:58.716Z</time></trkpt><trkpt lat="43.29532525" lon="12.009341583333333"><ele>698.0</ele><time>2026-03-31T09:01:01.709Z</time></trkpt><trkpt lat="43.295282949999994" lon="12.009248833333332"><ele>698.0</ele><time>2026-03-31T09:01:05.723Z</time></trkpt><trkpt lat="43.29521996666668" lon="12.009174283333335"><ele>698.0</ele><time>2026-03-31T09:01:09.739Z</time></trkpt><trkpt lat="43.29516480000001" lon="12.009106316666665"><ele>698.0</ele><time>2026-03-31T09:01:12.748Z</time></trkpt><trkpt lat="43.295093316666666" lon="12.009037183333332"><ele>698.0</ele><time>2026-03-31T09:01:15.738Z</time></trkpt><trkpt lat="43.295026099999994" lon="12.00896883333333"><ele>695.9999999999999</ele><time>2026-03-31T09:01:18.731Z</time></trkpt><trkpt lat="43.29496644999999" lon="12.008909833333334"><ele>694.0</ele><time>2026-03-31T09:01:21.755Z</time></trkpt><trkpt lat="43.294898499999995" lon="12.008874333333331"><ele>692.0</ele><time>2026-03-31T09:01:24.75Z</time></trkpt><trkpt lat="43.29483918333334" lon="12.008842583333335"><ele>690.0</ele><time>2026-03-31T09:01:27.759Z</time></trkpt><trkpt lat="43.29479316666666" lon="12.00877985"><ele>688.0</ele><time>2026-03-31T09:01:30.767Z</time></trkpt><trkpt lat="43.29474865" lon="12.008701199999999"><ele>685.9999999999999</ele><time>2026-03-31T09:01:33.759Z</time></trkpt><trkpt lat="43.294697983333336" lon="12.0086157"><ele>684.0</ele><time>2026-03-31T09:01:37.751Z</time></trkpt><trkpt lat="43.294639183333324" lon="12.008539616666669"><ele>684.0</ele><time>2026-03-31T09:01:40.759Z</time></trkpt><trkpt lat="43.29459583333334" lon="12.008468466666667"><ele>684.0</ele><time>2026-03-31T09:01:43.767Z</time></trkpt><trkpt lat="43.29454016666667" lon="12.008406583333333"><ele>684.0</ele><time>2026-03-31T09:01:46.784Z</time></trkpt><trkpt lat="43.294468099999996" lon="12.008352833333333"><ele>684.0</ele><time>2026-03-31T09:01:49.791Z</time></trkpt><trkpt lat="43.29439356666667" lon="12.008328966666665"><ele>684.0</ele><time>2026-03-31T09:01:52.784Z</time></trkpt><trkpt lat="43.294307333333336" lon="12.008328683333332"><ele>684.0</ele><time>2026-03-31T09:01:55.794Z</time></trkpt><trkpt lat="43.294236233333336" lon="12.008335700000002"><ele>681.3333333333334</ele><time>2026-03-31T09:01:58.776Z</time></trkpt><trkpt lat="43.294165716666676" lon="12.008317166666666"><ele>678.6666666666666</ele><time>2026-03-31T09:02:01.794Z</time></trkpt><trkpt lat="43.29408645" lon="12.008296883333333"><ele>676.0</ele><time>2026-03-31T09:02:04.879Z</time></trkpt><trkpt lat="43.29400941666666" lon="12.008282116666665"><ele>673.3333333333333</ele><time>2026-03-31T09:02:07.887Z</time></trkpt><trkpt lat="43.29391383333333" lon="12.008255533333331"><ele>670.6666666666666</ele><time>2026-03-31T09:02:10.905Z</time></trkpt><trkpt lat="43.293824916666665" lon="12.008221266666666"><ele>668.0</ele><time>2026-03-31T09:02:13.897Z</time></trkpt><trkpt lat="43.293744200000006" lon="12.008192016666666"><ele>668.0</ele><time>2026-03-31T09:02:16.897Z</time></trkpt><trkpt lat="43.293661333333326" lon="12.008176116666666"><ele>668.0</ele><time>2026-03-31T09:02:19.921Z</time></trkpt><trkpt lat="43.29357108333334" lon="12.008164700000002"><ele>668.0</ele><time>2026-03-31T09:02:22.901Z</time></trkpt><trkpt lat="43.29348525" lon="12.008168616666667"><ele>668.0</ele><time>2026-03-31T09:02:25.905Z</time></trkpt><trkpt lat="43.29340156666667" lon="12.00818405"><ele>668.0</ele><time>2026-03-31T09:02:28.923Z</time></trkpt><trkpt lat="43.293318116666654" lon="12.00821651666667"><ele>668.0</ele><time>2026-03-31T09:02:31.912Z</time></trkpt><trkpt lat="43.293232316666675" lon="12.008258816666668"><ele>668.0</ele><time>2026-03-31T09:02:34.948Z</time></trkpt><trkpt lat="43.293153950000004" lon="12.008290683333334"><ele>668.0</ele><time>2026-03-31T09:02:37.93Z</time></trkpt><trkpt lat="43.293083566666674" lon="12.008316416666666"><ele>668.0</ele><time>2026-03-31T09:02:40.996Z</time></trkpt><trkpt lat="43.29301195" lon="12.008344299999997"><ele>668.0</ele><time>2026-03-31T09:02:43.987Z</time></trkpt><trkpt lat="43.29292825000001" lon="12.008369450000002"><ele>668.0</ele><time>2026-03-31T09:02:46.994Z</time></trkpt><trkpt lat="43.29284861666667" lon="12.008402083333333"><ele>668.0</ele><time>2026-03-31T09:02:50Z</time></trkpt><trkpt lat="43.292760516666675" lon="12.008440916666665"><ele>667.6666666666666</ele><time>2026-03-31T09:02:52.993Z</time></trkpt><trkpt lat="43.292671366666674" lon="12.008465133333335"><ele>667.3333333333333</ele><time>2026-03-31T09:02:56.01Z</time></trkpt><trkpt lat="43.292605050000006" lon="12.008475283333333"><ele>667.0</ele><time>2026-03-31T09:02:58.006Z</time></trkpt><trkpt lat="43.29254155" lon="12.008480083333334"><ele>666.6666666666666</ele><time>2026-03-31T09:02:59.995Z</time></trkpt><trkpt lat="43.292451700000015" lon="12.008492416666664"><ele>666.3333333333334</ele><time>2026-03-31T09:03:03.05Z</time></trkpt><trkpt lat="43.29236559999999" lon="12.008504516666669"><ele>666.0</ele><time>2026-03-31T09:03:06.169Z</time></trkpt><trkpt lat="43.29229693333334" lon="12.008540783333334"><ele>667.2857142857143</ele><time>2026-03-31T09:03:09.176Z</time></trkpt><trkpt lat="43.29223323333334" lon="12.008611499999999"><ele>668.5714285714286</ele><time>2026-03-31T09:03:12.168Z</time></trkpt><trkpt lat="43.29215340000001" lon="12.008656983333333"><ele>669.8571428571429</ele><time>2026-03-31T09:03:15.177Z</time></trkpt><trkpt lat="43.292083950000006" lon="12.008643883333333"><ele>671.1428571428571</ele><time>2026-03-31T09:03:18.185Z</time></trkpt><trkpt lat="43.292035199999994" lon="12.008584583333334"><ele>672.4285714285714</ele><time>2026-03-31T09:03:21.176Z</time></trkpt><trkpt lat="43.291993866666665" lon="12.008513866666666"><ele>673.7142857142857</ele><time>2026-03-31T09:03:24.194Z</time></trkpt><trkpt lat="43.29194273333333" lon="12.008452116666668"><ele>675.0</ele><time>2026-03-31T09:03:27.196Z</time></trkpt><trkpt lat="43.29188871666667" lon="12.008394083333332"><ele>670.8333333333334</ele><time>2026-03-31T09:03:30.188Z</time></trkpt><trkpt lat="43.29182648333334" lon="12.008323716666666"><ele>666.6666666666666</ele><time>2026-03-31T09:03:33.201Z</time></trkpt><trkpt lat="43.29176101666667" lon="12.0082522"><ele>662.5</ele><time>2026-03-31T09:03:36.209Z</time></trkpt><trkpt lat="43.29169141666666" lon="12.0081845"><ele>658.3333333333333</ele><time>2026-03-31T09:03:39.197Z</time></trkpt><trkpt lat="43.29162156666666" lon="12.00812885"><ele>654.1666666666666</ele><time>2026-03-31T09:03:42.212Z</time></trkpt><trkpt lat="43.2915528" lon="12.008084283333336"><ele>650.0</ele><time>2026-03-31T09:03:45.215Z</time></trkpt><trkpt lat="43.2914877" lon="12.008021049999998"><ele>650.0</ele><time>2026-03-31T09:03:48.207Z</time></trkpt><trkpt lat="43.291437916666666" lon="12.007947283333332"><ele>650.0</ele><time>2026-03-31T09:03:51.217Z</time></trkpt><trkpt lat="43.29139318333334" lon="12.007858866666668"><ele>650.0</ele><time>2026-03-31T09:03:54.23Z</time></trkpt><trkpt lat="43.29135079999999" lon="12.007755266666667"><ele>650.0</ele><time>2026-03-31T09:03:57.242Z</time></trkpt><trkpt lat="43.29131138333334" lon="12.007651983333336"><ele>650.0</ele><time>2026-03-31T09:04:00.229Z</time></trkpt><trkpt lat="43.29125728333333" lon="12.007554116666666"><ele>650.0</ele><time>2026-03-31T09:04:03.235Z</time></trkpt><trkpt lat="43.29122078333333" lon="12.007480733333333"><ele>649.3333333333333</ele><time>2026-03-31T09:04:05.249Z</time></trkpt><trkpt lat="43.29117768333334" lon="12.007409783333333"><ele>648.6666666666666</ele><time>2026-03-31T09:04:07.232Z</time></trkpt><trkpt lat="43.29111591666667" lon="12.00731485"><ele>648.0</ele><time>2026-03-31T09:04:10.242Z</time></trkpt><trkpt lat="43.291073583333336" lon="12.007248983333332"><ele>647.3333333333334</ele><time>2026-03-31T09:04:12.241Z</time></trkpt><trkpt lat="43.29101256666666" lon="12.007173983333333"><ele>646.6666666666667</ele><time>2026-03-31T09:04:15.271Z</time></trkpt><trkpt lat="43.290941216666674" lon="12.007106616666666"><ele>646.0</ele><time>2026-03-31T09:04:18.271Z</time></trkpt><trkpt lat="43.290864083333325" lon="12.00704815"><ele>646.0</ele><time>2026-03-31T09:04:21.262Z</time></trkpt><trkpt lat="43.29078891666666" lon="12.006995366666668"><ele>646.0</ele><time>2026-03-31T09:04:24.255Z</time></trkpt><trkpt lat="43.2907072" lon="12.006961683333335"><ele>646.0</ele><time>2026-03-31T09:04:27.267Z</time></trkpt><trkpt lat="43.29061378333334" lon="12.006945199999999"><ele>646.0</ele><time>2026-03-31T09:04:30.276Z</time></trkpt><trkpt lat="43.29053906666666" lon="12.006910083333333"><ele>646.0</ele><time>2026-03-31T09:04:33.29Z</time></trkpt><trkpt lat="43.29047725" lon="12.0068549"><ele>646.0</ele><time>2026-03-31T09:04:41.31Z</time></trkpt><trkpt lat="43.29040490000001" lon="12.006834900000001"><ele>647.3333333333334</ele><time>2026-03-31T09:04:44.304Z</time></trkpt><trkpt lat="43.29032921666667" lon="12.006832083333332"><ele>648.6666666666667</ele><time>2026-03-31T09:04:46.361Z</time></trkpt><trkpt lat="43.29023631666667" lon="12.006833416666666"><ele>650.0</ele><time>2026-03-31T09:04:49.366Z</time></trkpt><trkpt lat="43.29014915" lon="12.006861666666667"><ele>651.3333333333334</ele><time>2026-03-31T09:04:52.385Z</time></trkpt><trkpt lat="43.29006211666667" lon="12.0068997"><ele>652.6666666666666</ele><time>2026-03-31T09:04:55.396Z</time></trkpt><trkpt lat="43.28997398333333" lon="12.006922133333335"><ele>654.0</ele><time>2026-03-31T09:04:58.46Z</time></trkpt><trkpt lat="43.28989775" lon="12.006930566666666"><ele>654.0</ele><time>2026-03-31T09:05:01.472Z</time></trkpt><trkpt lat="43.28982916666667" lon="12.006877816666668"><ele>654.0</ele><time>2026-03-31T09:05:05.489Z</time></trkpt><trkpt lat="43.28981411666667" lon="12.006773883333334"><ele>654.0</ele><time>2026-03-31T09:05:09.496Z</time></trkpt><trkpt lat="43.289802583333326" lon="12.006646799999999"><ele>654.0</ele><time>2026-03-31T09:05:12.514Z</time></trkpt><trkpt lat="43.289793266666656" lon="12.006559216666668"><ele>654.0</ele><time>2026-03-31T09:05:14.696Z</time></trkpt><trkpt lat="43.28977681666667" lon="12.006471099999999"><ele>654.0</ele><time>2026-03-31T09:05:16.683Z</time></trkpt><trkpt lat="43.28975861666666" lon="12.006381633333335"><ele>654.0</ele><time>2026-03-31T09:05:18.684Z</time></trkpt><trkpt lat="43.2897401" lon="12.006256150000002"><ele>654.1428571428571</ele><time>2026-03-31T09:05:21.679Z</time></trkpt><trkpt lat="43.289707666666665" lon="12.006153983333336"><ele>654.2857142857143</ele><time>2026-03-31T09:05:24.79Z</time></trkpt><trkpt lat="43.28968211666667" lon="12.006062983333335"><ele>654.4285714285714</ele><time>2026-03-31T09:05:27.875Z</time></trkpt><trkpt lat="43.28963453333334" lon="12.005986383333333"><ele>654.5714285714286</ele><time>2026-03-31T09:05:32.993Z</time></trkpt><trkpt lat="43.289597883333336" lon="12.005900049999997"><ele>654.7142857142857</ele><time>2026-03-31T09:05:57.133Z</time></trkpt><trkpt lat="43.28954638333333" lon="12.00583398333333"><ele>654.8571428571429</ele><time>2026-03-31T09:06:00.16Z</time></trkpt><trkpt lat="43.289490949999994" lon="12.005777983333333"><ele>655.0</ele><time>2026-03-31T09:06:03.256Z</time></trkpt><trkpt lat="43.289424700000005" lon="12.00573335"><ele>651.3333333333334</ele><time>2026-03-31T09:06:06.249Z</time></trkpt><trkpt lat="43.28936098333333" lon="12.005706466666666"><ele>647.6666666666667</ele><time>2026-03-31T09:06:08.264Z</time></trkpt><trkpt lat="43.28926961666666" lon="12.00567125"><ele>644.0</ele><time>2026-03-31T09:06:10.34Z</time></trkpt><trkpt lat="43.28919909999999" lon="12.005648133333333"><ele>640.3333333333334</ele><time>2026-03-31T09:06:12.346Z</time></trkpt><trkpt lat="43.28910510000001" lon="12.005656733333334"><ele>636.6666666666666</ele><time>2026-03-31T09:06:15.335Z</time></trkpt><trkpt lat="43.28901501666665" lon="12.005683600000001"><ele>633.0</ele><time>2026-03-31T09:06:18.347Z</time></trkpt><trkpt lat="43.28892640000001" lon="12.005724466666669"><ele>631.3333333333334</ele><time>2026-03-31T09:06:21.358Z</time></trkpt><trkpt lat="43.28883415000001" lon="12.005750383333336"><ele>629.6666666666666</ele><time>2026-03-31T09:06:24.419Z</time></trkpt><trkpt lat="43.28875271666667" lon="12.005761316666668"><ele>628.0</ele><time>2026-03-31T09:06:27.411Z</time></trkpt><trkpt lat="43.28867666666667" lon="12.005746716666666"><ele>626.3333333333333</ele><time>2026-03-31T09:06:30.411Z</time></trkpt><trkpt lat="43.2886045" lon="12.005741749999999"><ele>624.6666666666666</ele><time>2026-03-31T09:06:33.428Z</time></trkpt><trkpt lat="43.28853591666666" lon="12.005748716666668"><ele>623.0</ele><time>2026-03-31T09:06:36.415Z</time></trkpt><trkpt lat="43.28846661666667" lon="12.005762983333334"><ele>623.0</ele><time>2026-03-31T09:06:39.429Z</time></trkpt><trkpt lat="43.288404283333335" lon="12.005778233333334"><ele>623.0</ele><time>2026-03-31T09:06:42.438Z</time></trkpt><trkpt lat="43.2883379" lon="12.005797949999998"><ele>623.0</ele><time>2026-03-31T09:06:45.437Z</time></trkpt><trkpt lat="43.28827026666666" lon="12.005750083333332"><ele>623.0</ele><time>2026-03-31T09:06:50.519Z</time></trkpt><trkpt lat="43.2882072" lon="12.005701016666668"><ele>623.0</ele><time>2026-03-31T09:06:53.529Z</time></trkpt><trkpt lat="43.288138116666666" lon="12.005660650000001"><ele>623.0</ele><time>2026-03-31T09:06:56.617Z</time></trkpt><trkpt lat="43.2880709" lon="12.005615966666669"><ele>623.0</ele><time>2026-03-31T09:06:59.628Z</time></trkpt><trkpt lat="43.28800406666666" lon="12.005571466666668"><ele>624.4285714285714</ele><time>2026-03-31T09:07:02.617Z</time></trkpt><trkpt lat="43.28793705" lon="12.005517033333334"><ele>625.8571428571429</ele><time>2026-03-31T09:07:05.633Z</time></trkpt><trkpt lat="43.28787766666666" lon="12.005471150000002"><ele>627.2857142857142</ele><time>2026-03-31T09:07:08.685Z</time></trkpt><trkpt lat="43.28780246666667" lon="12.0054262"><ele>628.7142857142858</ele><time>2026-03-31T09:07:11.883Z</time></trkpt><trkpt lat="43.287731050000005" lon="12.005407716666664"><ele>630.1428571428571</ele><time>2026-03-31T09:07:14.911Z</time></trkpt><trkpt lat="43.28766405" lon="12.005381133333334"><ele>631.5714285714286</ele><time>2026-03-31T09:07:17.875Z</time></trkpt><trkpt lat="43.28759636666667" lon="12.005364816666667"><ele>633.0</ele><time>2026-03-31T09:07:20.887Z</time></trkpt><trkpt lat="43.287530000000004" lon="12.005345383333333"><ele>633.0</ele><time>2026-03-31T09:07:25.228Z</time></trkpt><trkpt lat="43.287452216666665" lon="12.005320649999998"><ele>633.0</ele><time>2026-03-31T09:07:28.242Z</time></trkpt><trkpt lat="43.28737136666667" lon="12.005292466666667"><ele>633.0</ele><time>2026-03-31T09:07:31.229Z</time></trkpt><trkpt lat="43.28731495" lon="12.005251633333335"><ele>633.0</ele><time>2026-03-31T09:07:33.24Z</time></trkpt><trkpt lat="43.287256899999996" lon="12.005199450000003"><ele>633.0</ele><time>2026-03-31T09:07:35.246Z</time></trkpt><trkpt lat="43.28719331666667" lon="12.005148033333334"><ele>633.0</ele><time>2026-03-31T09:07:37.252Z</time></trkpt><trkpt lat="43.28712946666666" lon="12.00510885"><ele>633.0</ele><time>2026-03-31T09:07:39.256Z</time></trkpt><trkpt lat="43.28704181666667" lon="12.005073166666667"><ele>634.3333333333334</ele><time>2026-03-31T09:07:42.25Z</time></trkpt><trkpt lat="43.28697318333334" lon="12.005060816666667"><ele>635.6666666666666</ele><time>2026-03-31T09:07:44.261Z</time></trkpt><trkpt lat="43.286902083333345" lon="12.005045366666664"><ele>637.0</ele><time>2026-03-31T09:07:46.263Z</time></trkpt><trkpt lat="43.28681301666667" lon="12.005054483333334"><ele>638.3333333333333</ele><time>2026-03-31T09:07:49.261Z</time></trkpt><trkpt lat="43.28673331666668" lon="12.005061799999998"><ele>639.6666666666666</ele><time>2026-03-31T09:07:52.233Z</time></trkpt><trkpt lat="43.28666045" lon="12.00504566666667"><ele>641.0</ele><time>2026-03-31T09:07:54.52Z</time></trkpt><trkpt lat="43.28660743333333" lon="12.004965149999997"><ele>637.3333333333333</ele><time>2026-03-31T09:07:57.508Z</time></trkpt><trkpt lat="43.28658746666666" lon="12.004835933333334"><ele>633.6666666666666</ele><time>2026-03-31T09:08:00.619Z</time></trkpt><trkpt lat="43.286573266666664" lon="12.004741983333334"><ele>630.0</ele><time>2026-03-31T09:08:02.62Z</time></trkpt><trkpt lat="43.286564016666674" lon="12.004640366666669"><ele>626.3333333333334</ele><time>2026-03-31T09:08:04.613Z</time></trkpt><trkpt lat="43.28655288333333" lon="12.004543916666668"><ele>622.6666666666667</ele><time>2026-03-31T09:08:06.619Z</time></trkpt><trkpt lat="43.286544199999994" lon="12.004453616666668"><ele>619.0</ele><time>2026-03-31T09:08:08.636Z</time></trkpt><trkpt lat="43.28652825" lon="12.004328266666667"><ele>619.0</ele><time>2026-03-31T09:08:11.636Z</time></trkpt><trkpt lat="43.28650856666666" lon="12.004239033333333"><ele>619.0</ele><time>2026-03-31T09:08:13.647Z</time></trkpt><trkpt lat="43.28648946666667" lon="12.004153583333334"><ele>619.0</ele><time>2026-03-31T09:08:15.632Z</time></trkpt><trkpt lat="43.286462666666665" lon="12.004032066666666"><ele>619.0</ele><time>2026-03-31T09:08:18.64Z</time></trkpt><trkpt lat="43.28643756666667" lon="12.003949816666665"><ele>619.0</ele><time>2026-03-31T09:08:20.649Z</time></trkpt><trkpt lat="43.28640305000001" lon="12.003829283333333"><ele>619.0</ele><time>2026-03-31T09:08:23.787Z</time></trkpt><trkpt lat="43.28637445" lon="12.003710499999999"><ele>620.0</ele><time>2026-03-31T09:08:26.781Z</time></trkpt><trkpt lat="43.286337116666665" lon="12.003602566666666"><ele>621.0</ele><time>2026-03-31T09:08:29.786Z</time></trkpt><trkpt lat="43.28628816666666" lon="12.003504683333333"><ele>622.0</ele><time>2026-03-31T09:08:32.795Z</time></trkpt><trkpt lat="43.286235716666674" lon="12.003414983333334"><ele>623.0</ele><time>2026-03-31T09:08:35.903Z</time></trkpt><trkpt lat="43.286180933333334" lon="12.003337883333332"><ele>624.0</ele><time>2026-03-31T09:08:39.021Z</time></trkpt><trkpt lat="43.28612414999999" lon="12.0032575"><ele>625.0</ele><time>2026-03-31T09:08:42.029Z</time></trkpt><trkpt lat="43.286072366666666" lon="12.003192583333336"><ele>620.8333333333334</ele><time>2026-03-31T09:08:45.045Z</time></trkpt><trkpt lat="43.286020549999996" lon="12.003128683333333"><ele>616.6666666666667</ele><time>2026-03-31T09:08:48.162Z</time></trkpt><trkpt lat="43.28595608333333" lon="12.003076166666665"><ele>612.5</ele><time>2026-03-31T09:08:51.161Z</time></trkpt><trkpt lat="43.285891583333324" lon="12.003025899999999"><ele>608.3333333333334</ele><time>2026-03-31T09:08:54.154Z</time></trkpt><trkpt lat="43.28581286666666" lon="12.002981283333334"><ele>604.1666666666666</ele><time>2026-03-31T09:08:57.233Z</time></trkpt><trkpt lat="43.28574006666666" lon="12.002932266666669"><ele>600.0</ele><time>2026-03-31T09:09:00.247Z</time></trkpt><trkpt lat="43.28567066666666" lon="12.002881850000003"><ele>602.6666666666666</ele><time>2026-03-31T09:09:03.239Z</time></trkpt><trkpt lat="43.28559461666667" lon="12.002836866666666"><ele>605.3333333333334</ele><time>2026-03-31T09:09:06.236Z</time></trkpt><trkpt lat="43.2855115" lon="12.002791816666667"><ele>608.0</ele><time>2026-03-31T09:09:09.237Z</time></trkpt><trkpt lat="43.285426066666666" lon="12.002754183333332"><ele>610.6666666666667</ele><time>2026-03-31T09:09:12.233Z</time></trkpt><trkpt lat="43.285368983333335" lon="12.002715116666666"><ele>613.3333333333334</ele><time>2026-03-31T09:09:14.254Z</time></trkpt><trkpt lat="43.2853097" lon="12.002683683333332"><ele>616.0</ele><time>2026-03-31T09:09:16.239Z</time></trkpt><trkpt lat="43.28523263333333" lon="12.002629716666668"><ele>616.0</ele><time>2026-03-31T09:09:19.246Z</time></trkpt><trkpt lat="43.285168883333334" lon="12.002568199999999"><ele>616.0</ele><time>2026-03-31T09:09:21.436Z</time></trkpt><trkpt lat="43.28510956666668" lon="12.0024915"><ele>616.0</ele><time>2026-03-31T09:09:24.421Z</time></trkpt><trkpt lat="43.28506349999999" lon="12.002430150000002"><ele>616.0</ele><time>2026-03-31T09:09:26.436Z</time></trkpt><trkpt lat="43.28499573333334" lon="12.002347400000001"><ele>616.0</ele><time>2026-03-31T09:09:29.536Z</time></trkpt><trkpt lat="43.284947599999995" lon="12.002290100000002"><ele>616.0</ele><time>2026-03-31T09:09:31.612Z</time></trkpt><trkpt lat="43.2848637" lon="12.002226616666666"><ele>615.3333333333334</ele><time>2026-03-31T09:09:34.708Z</time></trkpt><trkpt lat="43.284807150000006" lon="12.002187816666666"><ele>614.6666666666667</ele><time>2026-03-31T09:09:36.697Z</time></trkpt><trkpt lat="43.28474483333332" lon="12.002149349999998"><ele>614.0</ele><time>2026-03-31T09:09:38.705Z</time></trkpt><trkpt lat="43.28468311666667" lon="12.00211385"><ele>613.3333333333334</ele><time>2026-03-31T09:09:40.712Z</time></trkpt><trkpt lat="43.28459916666667" lon="12.002065083333331"><ele>612.6666666666666</ele><time>2026-03-31T09:09:43.721Z</time></trkpt><trkpt lat="43.284525516666655" lon="12.001997366666668"><ele>612.0</ele><time>2026-03-31T09:09:46.715Z</time></trkpt><trkpt lat="43.28447661666667" lon="12.0019051"><ele>612.0</ele><time>2026-03-31T09:09:49.72Z</time></trkpt><trkpt lat="43.28445538333333" lon="12.001791183333335"><ele>612.0</ele><time>2026-03-31T09:09:52.733Z</time></trkpt><trkpt lat="43.284443833333334" lon="12.001703016666665"><ele>612.0</ele><time>2026-03-31T09:09:54.742Z</time></trkpt><trkpt lat="43.28442669999999" lon="12.001612616666668"><ele>612.0</ele><time>2026-03-31T09:09:56.729Z</time></trkpt><trkpt lat="43.28440245" lon="12.001532233333334"><ele>612.0</ele><time>2026-03-31T09:09:58.751Z</time></trkpt><trkpt lat="43.28436386666667" lon="12.001428416666666"><ele>612.0</ele><time>2026-03-31T09:10:01.744Z</time></trkpt><trkpt lat="43.28431593333333" lon="12.00134305"><ele>612.0</ele><time>2026-03-31T09:10:04.74Z</time></trkpt><trkpt lat="43.28426304999999" lon="12.001262666666666"><ele>608.5</ele><time>2026-03-31T09:10:07.74Z</time></trkpt><trkpt lat="43.284225416666665" lon="12.001178033333334"><ele>605.0</ele><time>2026-03-31T09:10:10.756Z</time></trkpt><trkpt lat="43.28418331666667" lon="12.001079166666667"><ele>601.5</ele><time>2026-03-31T09:10:13.769Z</time></trkpt><trkpt lat="43.28413533333334" lon="12.000978333333334"><ele>598.0</ele><time>2026-03-31T09:10:16.771Z</time></trkpt><trkpt lat="43.28409808333334" lon="12.000886916666666"><ele>594.5</ele><time>2026-03-31T09:10:19.766Z</time></trkpt><trkpt lat="43.28406831666666" lon="12.000780999999998"><ele>591.0</ele><time>2026-03-31T09:10:22.761Z</time></trkpt><trkpt lat="43.28403441666666" lon="12.000707016666668"><ele>590.8333333333334</ele><time>2026-03-31T09:10:24.788Z</time></trkpt><trkpt lat="43.28400573333333" lon="12.000629583333334"><ele>590.6666666666666</ele><time>2026-03-31T09:10:26.767Z</time></trkpt><trkpt lat="43.28396075" lon="12.000518616666666"><ele>590.5</ele><time>2026-03-31T09:10:29.771Z</time></trkpt><trkpt lat="43.28391671666667" lon="12.000421283333331"><ele>590.3333333333333</ele><time>2026-03-31T09:10:32.791Z</time></trkpt><trkpt lat="43.28387424999999" lon="12.000328699999999"><ele>590.1666666666666</ele><time>2026-03-31T09:10:35.787Z</time></trkpt><trkpt lat="43.28382791666667" lon="12.000227866666666"><ele>590.0</ele><time>2026-03-31T09:10:38.783Z</time></trkpt><trkpt lat="43.283793233333334" lon="12.000155183333334"><ele>590.0</ele><time>2026-03-31T09:10:40.797Z</time></trkpt><trkpt lat="43.28374668333333" lon="12.000050933333334"><ele>590.0</ele><time>2026-03-31T09:10:43.804Z</time></trkpt><trkpt lat="43.283698833333325" lon="11.999960183333332"><ele>590.0</ele><time>2026-03-31T09:10:46.81Z</time></trkpt><trkpt lat="43.283654750000004" lon="11.99989465"><ele>590.0</ele><time>2026-03-31T09:10:49.819Z</time></trkpt><trkpt lat="43.28359473333334" lon="11.999825066666666"><ele>590.0</ele><time>2026-03-31T09:10:53.819Z</time></trkpt><trkpt lat="43.283542116666666" lon="11.999749133333335"><ele>590.0</ele><time>2026-03-31T09:10:56.835Z</time></trkpt><trkpt lat="43.283509933333335" lon="11.999667650000001"><ele>590.0</ele><time>2026-03-31T09:10:58.83Z</time></trkpt><trkpt lat="43.28346676666666" lon="11.999572899999999"><ele>590.0</ele><time>2026-03-31T09:11:01.829Z</time></trkpt><trkpt lat="43.28341619999999" lon="11.999482283333336"><ele>590.0</ele><time>2026-03-31T09:11:04.841Z</time></trkpt><trkpt lat="43.28335836666667" lon="11.999414566666667"><ele>590.0</ele><time>2026-03-31T09:11:08.843Z</time></trkpt><trkpt lat="43.28328811666667" lon="11.999391233333332"><ele>590.0</ele><time>2026-03-31T09:11:13.852Z</time></trkpt><trkpt lat="43.283224983333334" lon="11.999351083333334"><ele>590.0</ele><time>2026-03-31T09:11:17.84Z</time></trkpt><trkpt lat="43.283154333333336" lon="11.999319066666665"><ele>590.0000000000001</ele><time>2026-03-31T09:11:21.856Z</time></trkpt><trkpt lat="43.283090933333334" lon="11.999283033333333"><ele>590.0</ele><time>2026-03-31T09:11:25.867Z</time></trkpt><trkpt lat="43.28302433333333" lon="11.999236266666667"><ele>590.0</ele><time>2026-03-31T09:11:29.858Z</time></trkpt><trkpt lat="43.28309814999999" lon="11.999237166666669"><ele>590.0</ele><time>2026-03-31T09:11:46.884Z</time></trkpt><trkpt lat="43.28316705000001" lon="11.999252016666667"><ele>590.0</ele><time>2026-03-31T09:11:49.896Z</time></trkpt><trkpt lat="43.283249049999995" lon="11.999289600000001"><ele>590.0000000000001</ele><time>2026-03-31T09:11:52.897Z</time></trkpt><trkpt lat="43.28330483333334" lon="11.999334849999997"><ele>590.0</ele><time>2026-03-31T09:11:54.893Z</time></trkpt><trkpt lat="43.28335606666667" lon="11.999386316666667"><ele>590.0000000000001</ele><time>2026-03-31T09:11:56.912Z</time></trkpt><trkpt lat="43.28340323333333" lon="11.999445516666666"><ele>590.0</ele><time>2026-03-31T09:11:59.894Z</time></trkpt><trkpt lat="43.283449716666674" lon="11.999519600000001"><ele>590.0</ele><time>2026-03-31T09:12:03.914Z</time></trkpt><trkpt lat="43.28348575" lon="11.999593366666666"><ele>590.0</ele><time>2026-03-31T09:12:07.92Z</time></trkpt><trkpt lat="43.28355058333334" lon="11.999654316666666"><ele>590.0</ele><time>2026-03-31T09:12:29.992Z</time></trkpt><trkpt lat="43.283608083333334" lon="11.999691583333334"><ele>590.0000000000001</ele><time>2026-03-31T09:12:32.988Z</time></trkpt><trkpt lat="43.28368146666667" lon="11.9997242"><ele>590.0</ele><time>2026-03-31T09:12:35.991Z</time></trkpt><trkpt lat="43.28375788333333" lon="11.999749283333331"><ele>590.0</ele><time>2026-03-31T09:12:39.018Z</time></trkpt><trkpt lat="43.28383285" lon="11.999787466666666"><ele>590.0</ele><time>2026-03-31T09:12:42.003Z</time></trkpt><trkpt lat="43.283908833333335" lon="11.999824599999998"><ele>590.0</ele><time>2026-03-31T09:12:45.013Z</time></trkpt><trkpt lat="43.283968800000004" lon="11.999858583333333"><ele>590.0</ele><time>2026-03-31T09:12:47.018Z</time></trkpt><trkpt lat="43.28403978333334" lon="11.999904516666668"><ele>590.0</ele><time>2026-03-31T09:12:49.017Z</time></trkpt><trkpt lat="43.28411296666666" lon="11.999951700000002"><ele>590.0</ele><time>2026-03-31T09:12:51.041Z</time></trkpt><trkpt lat="43.28419221666667" lon="12.000002483333333"><ele>587.2857142857143</ele><time>2026-03-31T09:12:53.038Z</time></trkpt><trkpt lat="43.28426760000001" lon="12.00005065"><ele>584.5714285714286</ele><time>2026-03-31T09:12:55.028Z</time></trkpt><trkpt lat="43.28433903333333" lon="12.000096250000002"><ele>581.8571428571429</ele><time>2026-03-31T09:12:57.035Z</time></trkpt><trkpt lat="43.284406016666665" lon="12.00014258333333"><ele>579.1428571428571</ele><time>2026-03-31T09:12:59.028Z</time></trkpt><trkpt lat="43.284468000000004" lon="12.000185483333333"><ele>576.4285714285714</ele><time>2026-03-31T09:13:01.035Z</time></trkpt><trkpt lat="43.2845314" lon="12.000226716666669"><ele>573.7142857142858</ele><time>2026-03-31T09:13:03.035Z</time></trkpt><trkpt lat="43.284592149999995" lon="12.000272166666665"><ele>571.0</ele><time>2026-03-31T09:13:05.043Z</time></trkpt><trkpt lat="43.284651" lon="12.00031305"><ele>571.0</ele><time>2026-03-31T09:13:07.04Z</time></trkpt><trkpt lat="43.28470828333334" lon="12.000349616666664"><ele>571.0</ele><time>2026-03-31T09:13:09.04Z</time></trkpt><trkpt lat="43.28477806666666" lon="12.000395616666667"><ele>571.0</ele><time>2026-03-31T09:13:12.063Z</time></trkpt><trkpt lat="43.28483861666667" lon="12.000451466666666"><ele>571.0</ele><time>2026-03-31T09:13:16.051Z</time></trkpt><trkpt lat="43.284793300000004" lon="12.000361466666666"><ele>571.0</ele><time>2026-03-31T09:13:30.081Z</time></trkpt><trkpt lat="43.284744100000005" lon="12.000298666666666"><ele>571.0</ele><time>2026-03-31T09:13:33.076Z</time></trkpt><trkpt lat="43.284686616666676" lon="12.000232433333334"><ele>571.0</ele><time>2026-03-31T09:13:36.066Z</time></trkpt><trkpt lat="43.28463085" lon="12.000164316666668"><ele>571.0</ele><time>2026-03-31T09:13:39.041Z</time></trkpt><trkpt lat="43.28458053333334" lon="12.000092133333332"><ele>571.0</ele><time>2026-03-31T09:13:42.141Z</time></trkpt><trkpt lat="43.28453905" lon="12.000019666666667"><ele>571.0</ele><time>2026-03-31T09:13:45.128Z</time></trkpt><trkpt lat="43.28449855" lon="11.999943783333332"><ele>571.0</ele><time>2026-03-31T09:13:48.151Z</time></trkpt><trkpt lat="43.284455200000004" lon="11.999863266666667"><ele>571.0</ele><time>2026-03-31T09:13:51.142Z</time></trkpt><trkpt lat="43.284413416666666" lon="11.999770533333333"><ele>571.0</ele><time>2026-03-31T09:13:54.158Z</time></trkpt><trkpt lat="43.28436383333333" lon="11.999682083333335"><ele>571.0</ele><time>2026-03-31T09:13:57.158Z</time></trkpt><trkpt lat="43.28430193333334" lon="11.9995887"><ele>571.0</ele><time>2026-03-31T09:14:00.153Z</time></trkpt><trkpt lat="43.28423695" lon="11.999498433333335"><ele>571.0</ele><time>2026-03-31T09:14:03.164Z</time></trkpt><trkpt lat="43.284174666666665" lon="11.999409949999999"><ele>571.0</ele><time>2026-03-31T09:14:06.151Z</time></trkpt><trkpt lat="43.284113183333325" lon="11.999325716666664"><ele>571.0</ele><time>2026-03-31T09:14:09.166Z</time></trkpt><trkpt lat="43.28405608333335" lon="11.999253099999999"><ele>571.0</ele><time>2026-03-31T09:14:12.192Z</time></trkpt><trkpt lat="43.28400023333334" lon="11.99918201666667"><ele>571.0</ele><time>2026-03-31T09:14:15.188Z</time></trkpt><trkpt lat="43.28393938333334" lon="11.999104416666666"><ele>570.8333333333334</ele><time>2026-03-31T09:14:18.176Z</time></trkpt><trkpt lat="43.2838991" lon="11.999022483333333"><ele>570.6666666666667</ele><time>2026-03-31T09:14:21.177Z</time></trkpt><trkpt lat="43.2838737" lon="11.9989159"><ele>570.5</ele><time>2026-03-31T09:14:24.172Z</time></trkpt><trkpt lat="43.28385398333333" lon="11.998805533333334"><ele>570.3333333333334</ele><time>2026-03-31T09:14:27.191Z</time></trkpt><trkpt lat="43.28382238333334" lon="11.998705866666668"><ele>570.1666666666666</ele><time>2026-03-31T09:14:30.189Z</time></trkpt><trkpt lat="43.28377628333333" lon="11.998612066666665"><ele>570.0</ele><time>2026-03-31T09:14:33.182Z</time></trkpt><trkpt lat="43.28372696666667" lon="11.998518766666667"><ele>570.0</ele><time>2026-03-31T09:14:36.186Z</time></trkpt><trkpt lat="43.283673349999994" lon="11.998437233333334"><ele>570.0</ele><time>2026-03-31T09:14:39.197Z</time></trkpt><trkpt lat="43.28361548333334" lon="11.998347233333334"><ele>570.0</ele><time>2026-03-31T09:14:42.193Z</time></trkpt><trkpt lat="43.28355383333333" lon="11.998268"><ele>570.0</ele><time>2026-03-31T09:14:45.288Z</time></trkpt><trkpt lat="43.28350023333334" lon="11.998203550000003"><ele>570.0</ele><time>2026-03-31T09:14:47.387Z</time></trkpt><trkpt lat="43.283444149999994" lon="11.998146716666668"><ele>570.0</ele><time>2026-03-31T09:14:50.381Z</time></trkpt><trkpt lat="43.28339545" lon="11.998089983333333"><ele>568.3333333333334</ele><time>2026-03-31T09:14:53.404Z</time></trkpt><trkpt lat="43.28335366666667" lon="11.9980229"><ele>566.6666666666666</ele><time>2026-03-31T09:14:58.4Z</time></trkpt><trkpt lat="43.28330351666667" lon="11.99795945"><ele>565.0</ele><time>2026-03-31T09:15:06.413Z</time></trkpt><trkpt lat="43.283238533333325" lon="11.9979153"><ele>563.3333333333333</ele><time>2026-03-31T09:15:09.411Z</time></trkpt><trkpt lat="43.28316168333334" lon="11.997858699999998"><ele>561.6666666666666</ele><time>2026-03-31T09:15:12.406Z</time></trkpt><trkpt lat="43.283086233333336" lon="11.997798150000001"><ele>560.0</ele><time>2026-03-31T09:15:15.422Z</time></trkpt><trkpt lat="43.283016333333336" lon="11.997765033333334"><ele>560.0</ele><time>2026-03-31T09:15:18.407Z</time></trkpt><trkpt lat="43.28293678333333" lon="11.997754866666666"><ele>560.0</ele><time>2026-03-31T09:15:21.412Z</time></trkpt><trkpt lat="43.282864616666664" lon="11.997764683333333"><ele>560.0</ele><time>2026-03-31T09:15:24.432Z</time></trkpt><trkpt lat="43.28280161666667" lon="11.9977829"><ele>560.0</ele><time>2026-03-31T09:15:27.444Z</time></trkpt><trkpt lat="43.28271960000001" lon="11.997761800000001"><ele>560.0</ele><time>2026-03-31T09:15:31.444Z</time></trkpt><trkpt lat="43.28265968333333" lon="11.9977335"><ele>560.0</ele><time>2026-03-31T09:15:34.446Z</time></trkpt><trkpt lat="43.28258685000001" lon="11.997686833333335"><ele>560.0</ele><time>2026-03-31T09:15:37.486Z</time></trkpt><trkpt lat="43.28251196666667" lon="11.997632716666665"><ele>560.0</ele><time>2026-03-31T09:15:40.512Z</time></trkpt><trkpt lat="43.282441983333335" lon="11.997563333333334"><ele>560.0</ele><time>2026-03-31T09:15:43.508Z</time></trkpt><trkpt lat="43.282372900000006" lon="11.997487433333333"><ele>560.0</ele><time>2026-03-31T09:15:46.501Z</time></trkpt><trkpt lat="43.28230478333334" lon="11.997406316666664"><ele>560.0</ele><time>2026-03-31T09:15:49.522Z</time></trkpt><trkpt lat="43.2822399" lon="11.997340883333333"><ele>560.0</ele><time>2026-03-31T09:15:52.502Z</time></trkpt><trkpt lat="43.28217136666667" lon="11.997264399999997"><ele>560.0</ele><time>2026-03-31T09:15:55.506Z</time></trkpt><trkpt lat="43.282090249999996" lon="11.9972033"><ele>558.6666666666666</ele><time>2026-03-31T09:15:58.512Z</time></trkpt><trkpt lat="43.282034466666666" lon="11.9971561"><ele>557.3333333333333</ele><time>2026-03-31T09:16:00.525Z</time></trkpt><trkpt lat="43.281950450000004" lon="11.997101733333333"><ele>556.0</ele><time>2026-03-31T09:16:03.517Z</time></trkpt><trkpt lat="43.281881516666665" lon="11.997056683333335"><ele>554.6666666666666</ele><time>2026-03-31T09:16:06.532Z</time></trkpt><trkpt lat="43.281805816666676" lon="11.997010866666669"><ele>553.3333333333334</ele><time>2026-03-31T09:16:09.534Z</time></trkpt><trkpt lat="43.28175808333334" lon="11.996935299999999"><ele>552.0</ele><time>2026-03-31T09:16:12.537Z</time></trkpt><trkpt lat="43.28171675" lon="11.996839483333334"><ele>552.0</ele><time>2026-03-31T09:16:15.533Z</time></trkpt><trkpt lat="43.28168368333333" lon="11.99673465"><ele>552.0</ele><time>2026-03-31T09:16:18.546Z</time></trkpt><trkpt lat="43.2816438" lon="11.996631016666669"><ele>552.0</ele><time>2026-03-31T09:16:21.549Z</time></trkpt><trkpt lat="43.281604699999995" lon="11.996538950000001"><ele>552.0</ele><time>2026-03-31T09:16:24.544Z</time></trkpt><trkpt lat="43.28156295000001" lon="11.996443299999997"><ele>552.0</ele><time>2026-03-31T09:16:27.557Z</time></trkpt><trkpt lat="43.28152275" lon="11.996360166666667"><ele>552.0</ele><time>2026-03-31T09:16:29.557Z</time></trkpt><trkpt lat="43.281482450000006" lon="11.996282683333334"><ele>553.6666666666666</ele><time>2026-03-31T09:16:31.547Z</time></trkpt><trkpt lat="43.28142341666666" lon="11.9961828"><ele>555.3333333333334</ele><time>2026-03-31T09:16:34.557Z</time></trkpt><trkpt lat="43.28138166666666" lon="11.996100550000001"><ele>557.0</ele><time>2026-03-31T09:16:36.573Z</time></trkpt><trkpt lat="43.28134286666666" lon="11.996023683333332"><ele>558.6666666666667</ele><time>2026-03-31T09:16:38.571Z</time></trkpt><trkpt lat="43.28128521666665" lon="11.995926466666667"><ele>560.3333333333334</ele><time>2026-03-31T09:16:41.559Z</time></trkpt><trkpt lat="43.28124451666666" lon="11.995854233333333"><ele>562.0</ele><time>2026-03-31T09:16:43.559Z</time></trkpt><trkpt lat="43.2812041" lon="11.995778083333335"><ele>558.5</ele><time>2026-03-31T09:16:45.575Z</time></trkpt><trkpt lat="43.281160283333335" lon="11.995685833333335"><ele>555.0</ele><time>2026-03-31T09:16:48.581Z</time></trkpt><trkpt lat="43.281137333333334" lon="11.995590666666665"><ele>551.5</ele><time>2026-03-31T09:16:51.571Z</time></trkpt><trkpt lat="43.28112004999999" lon="11.9955058"><ele>548.0</ele><time>2026-03-31T09:16:54.587Z</time></trkpt><trkpt lat="43.2810836" lon="11.995372033333336"><ele>544.5</ele><time>2026-03-31T09:16:57.571Z</time></trkpt><trkpt lat="43.28104986666667" lon="11.995259983333336"><ele>541.0</ele><time>2026-03-31T09:16:59.586Z</time></trkpt><trkpt lat="43.28101906666667" lon="11.995137700000003"><ele>538.1666666666667</ele><time>2026-03-31T09:17:01.587Z</time></trkpt><trkpt lat="43.28098756666666" lon="11.994992733333333"><ele>535.3333333333334</ele><time>2026-03-31T09:17:03.6Z</time></trkpt><trkpt lat="43.280964499999996" lon="11.994871799999999"><ele>532.5</ele><time>2026-03-31T09:17:05.583Z</time></trkpt><trkpt lat="43.2809471" lon="11.99478055"><ele>529.6666666666666</ele><time>2026-03-31T09:17:06.603Z</time></trkpt><trkpt lat="43.28093183333334" lon="11.9946642"><ele>526.8333333333333</ele><time>2026-03-31T09:17:08.606Z</time></trkpt><trkpt lat="43.280923533333336" lon="11.99456455"><ele>524.0</ele><time>2026-03-31T09:17:10.596Z</time></trkpt><trkpt lat="43.280912783333335" lon="11.994476999999998"><ele>524.0</ele><time>2026-03-31T09:17:12.591Z</time></trkpt><trkpt lat="43.28089915000001" lon="11.994351333333334"><ele>524.0</ele><time>2026-03-31T09:17:15.61Z</time></trkpt><trkpt lat="43.2808938" lon="11.994240466666668"><ele>524.0</ele><time>2026-03-31T09:17:18.608Z</time></trkpt><trkpt lat="43.28088735" lon="11.994143966666664"><ele>524.0</ele><time>2026-03-31T09:17:21.632Z</time></trkpt><trkpt lat="43.28089571666666" lon="11.994038283333335"><ele>524.0</ele><time>2026-03-31T09:17:24.601Z</time></trkpt><trkpt lat="43.28089475" lon="11.993925516666666"><ele>524.0</ele><time>2026-03-31T09:17:27.617Z</time></trkpt><trkpt lat="43.28090755" lon="11.99383111666667"><ele>522.0</ele><time>2026-03-31T09:17:30.618Z</time></trkpt><trkpt lat="43.28092146666666" lon="11.993723750000001"><ele>520.0</ele><time>2026-03-31T09:17:33.616Z</time></trkpt><trkpt lat="43.28093224999999" lon="11.9935988"><ele>518.0</ele><time>2026-03-31T09:17:36.631Z</time></trkpt><trkpt lat="43.280925933333336" lon="11.993474666666668"><ele>516.0</ele><time>2026-03-31T09:17:39.629Z</time></trkpt><trkpt lat="43.280914916666674" lon="11.993364766666664"><ele>514.0</ele><time>2026-03-31T09:17:42.63Z</time></trkpt><trkpt lat="43.28089334999999" lon="11.993260083333332"><ele>512.0</ele><time>2026-03-31T09:17:45.624Z</time></trkpt><trkpt lat="43.280849966666665" lon="11.9931629"><ele>510.1428571428571</ele><time>2026-03-31T09:17:48.638Z</time></trkpt><trkpt lat="43.28079353333333" lon="11.993090233333332"><ele>508.2857142857142</ele><time>2026-03-31T09:17:51.635Z</time></trkpt><trkpt lat="43.28074343333333" lon="11.993035999999998"><ele>506.42857142857144</ele><time>2026-03-31T09:17:54.651Z</time></trkpt><trkpt lat="43.28067680000001" lon="11.9929698"><ele>504.57142857142856</ele><time>2026-03-31T09:17:57.648Z</time></trkpt><trkpt lat="43.280615999999995" lon="11.9928975"><ele>502.7142857142857</ele><time>2026-03-31T09:18:00.644Z</time></trkpt><trkpt lat="43.280566150000006" lon="11.992837116666665"><ele>500.8571428571429</ele><time>2026-03-31T09:18:02.643Z</time></trkpt><trkpt lat="43.280511183333324" lon="11.992762899999997"><ele>499.00000000000006</ele><time>2026-03-31T09:18:04.643Z</time></trkpt><trkpt lat="43.28047171666667" lon="11.992693383333336"><ele>502.00000000000006</ele><time>2026-03-31T09:18:06.658Z</time></trkpt><trkpt lat="43.2804336" lon="11.992596266666666"><ele>505.0</ele><time>2026-03-31T09:18:09.657Z</time></trkpt><trkpt lat="43.280402466666665" lon="11.992498816666666"><ele>508.0</ele><time>2026-03-31T09:18:12.649Z</time></trkpt><trkpt lat="43.28040091666667" lon="11.992379533333333"><ele>511.0</ele><time>2026-03-31T09:18:15.671Z</time></trkpt><trkpt lat="43.280412416666664" lon="11.992271983333334"><ele>514.0</ele><time>2026-03-31T09:18:18.669Z</time></trkpt><trkpt lat="43.28042135000001" lon="11.992168883333333"><ele>517.0</ele><time>2026-03-31T09:18:21.662Z</time></trkpt><trkpt lat="43.280424483333334" lon="11.99207093333333"><ele>517.0</ele><time>2026-03-31T09:18:24.681Z</time></trkpt><trkpt lat="43.280414549999996" lon="11.991962500000001"><ele>517.0</ele><time>2026-03-31T09:18:27.683Z</time></trkpt><trkpt lat="43.28040315" lon="11.991860683333334"><ele>517.0</ele><time>2026-03-31T09:18:30.679Z</time></trkpt><trkpt lat="43.28036816666666" lon="11.991775350000001"><ele>517.0</ele><time>2026-03-31T09:18:33.691Z</time></trkpt><trkpt lat="43.28033161666667" lon="11.991677716666667"><ele>517.0</ele><time>2026-03-31T09:18:36.688Z</time></trkpt><trkpt lat="43.28029176666667" lon="11.9915945"><ele>517.0</ele><time>2026-03-31T09:18:39.722Z</time></trkpt><trkpt lat="43.28024274999999" lon="11.991523700000002"><ele>517.0</ele><time>2026-03-31T09:18:42.714Z</time></trkpt><trkpt lat="43.28019040000001" lon="11.991446949999998"><ele>515.8571428571429</ele><time>2026-03-31T09:18:46.703Z</time></trkpt><trkpt lat="43.28013766666667" lon="11.991386966666669"><ele>514.7142857142858</ele><time>2026-03-31T09:18:55.714Z</time></trkpt><trkpt lat="43.280074299999995" lon="11.991337016666668"><ele>513.5714285714286</ele><time>2026-03-31T09:19:01.708Z</time></trkpt><trkpt lat="43.28002001666667" lon="11.991290116666669"><ele>512.4285714285714</ele><time>2026-03-31T09:19:05.719Z</time></trkpt><trkpt lat="43.27996151666666" lon="11.991235533333334"><ele>511.2857142857143</ele><time>2026-03-31T09:19:10.719Z</time></trkpt><trkpt lat="43.279906233333335" lon="11.991192183333332"><ele>510.1428571428571</ele><time>2026-03-31T09:19:16.739Z</time></trkpt><trkpt lat="43.279824933333344" lon="11.991149600000002"><ele>508.99999999999994</ele><time>2026-03-31T09:19:41.772Z</time></trkpt><trkpt lat="43.27975416666666" lon="11.991112883333335"><ele>509.49999999999994</ele><time>2026-03-31T09:19:44.78Z</time></trkpt><trkpt lat="43.27968363333333" lon="11.991064583333332"><ele>510.0</ele><time>2026-03-31T09:19:47.775Z</time></trkpt><trkpt lat="43.27960756666666" lon="11.990991916666667"><ele>510.5</ele><time>2026-03-31T09:19:50.782Z</time></trkpt><trkpt lat="43.27953865" lon="11.990933266666664"><ele>511.0</ele><time>2026-03-31T09:19:53.783Z</time></trkpt><trkpt lat="43.27947493333333" lon="11.990888133333332"><ele>511.49999999999994</ele><time>2026-03-31T09:19:56.798Z</time></trkpt><trkpt lat="43.27940018333334" lon="11.990828116666668"><ele>512.0</ele><time>2026-03-31T09:19:59.799Z</time></trkpt><trkpt lat="43.27934369999999" lon="11.990779266666669"><ele>511.99999999999994</ele><time>2026-03-31T09:20:01.794Z</time></trkpt><trkpt lat="43.27928005000001" lon="11.990708433333335"><ele>512.0</ele><time>2026-03-31T09:20:03.796Z</time></trkpt><trkpt lat="43.27920771666667" lon="11.99061976666667"><ele>512.0</ele><time>2026-03-31T09:20:06.809Z</time></trkpt><trkpt lat="43.27915255" lon="11.990551883333335"><ele>512.0</ele><time>2026-03-31T09:20:08.809Z</time></trkpt><trkpt lat="43.27909956666667" lon="11.990478366666666"><ele>511.99999999999994</ele><time>2026-03-31T09:20:11.809Z</time></trkpt><trkpt lat="43.27903563333332" lon="11.990391433333333"><ele>512.0</ele><time>2026-03-31T09:20:24.822Z</time></trkpt><trkpt lat="43.27898911666666" lon="11.9903295"><ele>511.99999999999994</ele><time>2026-03-31T09:20:26.831Z</time></trkpt><trkpt lat="43.27895154999999" lon="11.990256816666667"><ele>512.0</ele><time>2026-03-31T09:20:29.824Z</time></trkpt><trkpt lat="43.27890236666667" lon="11.990171349999999"><ele>512.0</ele><time>2026-03-31T09:20:57.887Z</time></trkpt><trkpt lat="43.2788309" lon="11.990102983333335"><ele>512.0</ele><time>2026-03-31T09:21:00.888Z</time></trkpt><trkpt lat="43.27876056666667" lon="11.99002275"><ele>511.99999999999994</ele><time>2026-03-31T09:21:03.887Z</time></trkpt><trkpt lat="43.27871660000001" lon="11.989957333333331"><ele>512.0</ele><time>2026-03-31T09:21:05.883Z</time></trkpt><trkpt lat="43.278660599999995" lon="11.9898874"><ele>513.0</ele><time>2026-03-31T09:21:08.892Z</time></trkpt><trkpt lat="43.27861455000001" lon="11.989822616666666"><ele>514.0</ele><time>2026-03-31T09:21:24.918Z</time></trkpt><trkpt lat="43.27854273333334" lon="11.989747516666666"><ele>515.0</ele><time>2026-03-31T09:21:27.913Z</time></trkpt><trkpt lat="43.278470516666665" lon="11.989673249999997"><ele>516.0</ele><time>2026-03-31T09:21:30.932Z</time></trkpt><trkpt lat="43.27839346666667" lon="11.989615866666668"><ele>517.0</ele><time>2026-03-31T09:21:33.93Z</time></trkpt><trkpt lat="43.27831809999999" lon="11.989587566666668"><ele>518.0</ele><time>2026-03-31T09:21:36.988Z</time></trkpt><trkpt lat="43.27823166666667" lon="11.989549033333333"><ele>518.0</ele><time>2026-03-31T09:21:39.975Z</time></trkpt><trkpt lat="43.2781707" lon="11.989523916666666"><ele>518.0</ele><time>2026-03-31T09:21:41.99Z</time></trkpt><trkpt lat="43.27808628333334" lon="11.98950295"><ele>518.0</ele><time>2026-03-31T09:21:44.99Z</time></trkpt><trkpt lat="43.27800813333334" lon="11.98948385"><ele>518.0</ele><time>2026-03-31T09:21:47.998Z</time></trkpt><trkpt lat="43.27793511666667" lon="11.989467616666666"><ele>518.0</ele><time>2026-03-31T09:21:50.996Z</time></trkpt><trkpt lat="43.27786303333334" lon="11.989440400000001"><ele>518.0</ele><time>2026-03-31T09:21:54.004Z</time></trkpt><trkpt lat="43.27778688333333" lon="11.989373266666666"><ele>519.1666666666666</ele><time>2026-03-31T09:21:57.012Z</time></trkpt><trkpt lat="43.27772588333334" lon="11.98929133333333"><ele>520.3333333333333</ele><time>2026-03-31T09:22:00.004Z</time></trkpt><trkpt lat="43.277689566666666" lon="11.989205183333334"><ele>521.5</ele><time>2026-03-31T09:22:03.016Z</time></trkpt><trkpt lat="43.27766438333333" lon="11.989116666666666"><ele>522.6666666666666</ele><time>2026-03-31T09:22:06.027Z</time></trkpt><trkpt lat="43.27766603333333" lon="11.989011933333332"><ele>523.8333333333334</ele><time>2026-03-31T09:22:09.016Z</time></trkpt><trkpt lat="43.277667883333336" lon="11.988898849999998"><ele>525.0</ele><time>2026-03-31T09:22:12.027Z</time></trkpt><trkpt lat="43.277666950000004" lon="11.988787666666667"><ele>525.0</ele><time>2026-03-31T09:22:15.028Z</time></trkpt><trkpt lat="43.277665633333335" lon="11.988695700000001"><ele>525.0</ele><time>2026-03-31T09:22:18.049Z</time></trkpt><trkpt lat="43.277652966666665" lon="11.98860975"><ele>525.0</ele><time>2026-03-31T09:22:22.042Z</time></trkpt><trkpt lat="43.277635883333346" lon="11.988517966666665"><ele>525.0</ele><time>2026-03-31T09:22:27.046Z</time></trkpt><trkpt lat="43.27760518333333" lon="11.988431083333333"><ele>525.0</ele><time>2026-03-31T09:22:30.048Z</time></trkpt><trkpt lat="43.277553833333336" lon="11.988343383333332"><ele>525.0</ele><time>2026-03-31T09:22:34.073Z</time></trkpt><trkpt lat="43.277569233333324" lon="11.9884543"><ele>525.0</ele><time>2026-03-31T09:24:50.58Z</time></trkpt><trkpt lat="43.27758608333333" lon="11.988544950000001"><ele>525.0</ele><time>2026-03-31T09:24:53.582Z</time></trkpt><trkpt lat="43.277611283333336" lon="11.988629900000001"><ele>525.0</ele><time>2026-03-31T09:24:56.576Z</time></trkpt><trkpt lat="43.277629633333326" lon="11.988723283333336"><ele>525.0</ele><time>2026-03-31T09:24:59.66Z</time></trkpt><trkpt lat="43.27764741666667" lon="11.988813633333333"><ele>525.0</ele><time>2026-03-31T09:25:02.655Z</time></trkpt><trkpt lat="43.27768583333333" lon="11.988887150000002"><ele>525.0</ele><time>2026-03-31T09:25:05.661Z</time></trkpt><trkpt lat="43.277632216666674" lon="11.988792499999999"><ele>525.0</ele><time>2026-03-31T09:25:18.832Z</time></trkpt><trkpt lat="43.27760528333333" lon="11.988656"><ele>525.0</ele><time>2026-03-31T09:25:20.825Z</time></trkpt><trkpt lat="43.277578883333334" lon="11.988538516666665"><ele>525.0</ele><time>2026-03-31T09:25:22.82Z</time></trkpt><trkpt lat="43.27755261666666" lon="11.988441583333334"><ele>525.0</ele><time>2026-03-31T09:25:24.83Z</time></trkpt><trkpt lat="43.27751685" lon="11.988341949999999"><ele>525.0</ele><time>2026-03-31T09:25:26.837Z</time></trkpt><trkpt lat="43.27748750000001" lon="11.9882649"><ele>525.0</ele><time>2026-03-31T09:25:28.845Z</time></trkpt><trkpt lat="43.27745351666667" lon="11.9881781"><ele>525.0</ele><time>2026-03-31T09:25:30.84Z</time></trkpt><trkpt lat="43.27742176666668" lon="11.988102666666668"><ele>525.0</ele><time>2026-03-31T09:25:32.836Z</time></trkpt><trkpt lat="43.27736036666666" lon="11.98801305"><ele>526.0</ele><time>2026-03-31T09:25:35.884Z</time></trkpt><trkpt lat="43.277300399999994" lon="11.9879353"><ele>527.0</ele><time>2026-03-31T09:25:38.898Z</time></trkpt><trkpt lat="43.27726380000001" lon="11.987851483333335"><ele>528.0</ele><time>2026-03-31T09:25:40.898Z</time></trkpt><trkpt lat="43.2772258" lon="11.98777515"><ele>529.0</ele><time>2026-03-31T09:25:42.91Z</time></trkpt><trkpt lat="43.27718995000001" lon="11.987701333333332"><ele>530.0</ele><time>2026-03-31T09:25:44.899Z</time></trkpt><trkpt lat="43.27714408333333" lon="11.987616733333335"><ele>531.0</ele><time>2026-03-31T09:25:47.905Z</time></trkpt><trkpt lat="43.27711491666667" lon="11.987517383333333"><ele>532.0</ele><time>2026-03-31T09:25:50.919Z</time></trkpt><trkpt lat="43.27708535" lon="11.987405133333334"><ele>532.0</ele><time>2026-03-31T09:25:53.916Z</time></trkpt><trkpt lat="43.27706925000001" lon="11.987318666666665"><ele>532.0</ele><time>2026-03-31T09:25:55.921Z</time></trkpt><trkpt lat="43.27704706666667" lon="11.987203266666665"><ele>532.0</ele><time>2026-03-31T09:25:58.933Z</time></trkpt><trkpt lat="43.277028050000006" lon="11.987115133333335"><ele>532.0</ele><time>2026-03-31T09:26:00.934Z</time></trkpt><trkpt lat="43.27700686666667" lon="11.987014949999999"><ele>532.0</ele><time>2026-03-31T09:26:02.939Z</time></trkpt><trkpt lat="43.276996216666674" lon="11.986889483333334"><ele>532.0</ele><time>2026-03-31T09:26:05.973Z</time></trkpt><trkpt lat="43.27699306666667" lon="11.98678186666667"><ele>532.0</ele><time>2026-03-31T09:26:08.983Z</time></trkpt><trkpt lat="43.27700551666667" lon="11.986689166666668"><ele>532.0</ele><time>2026-03-31T09:26:12.984Z</time></trkpt><trkpt lat="43.277014300000005" lon="11.986579016666667"><ele>532.0</ele><time>2026-03-31T09:26:15.99Z</time></trkpt><trkpt lat="43.27697013333333" lon="11.98650205"><ele>532.0</ele><time>2026-03-31T09:26:19.995Z</time></trkpt><trkpt lat="43.276979299999994" lon="11.986601900000002"><ele>532.0</ele><time>2026-03-31T09:26:25.036Z</time></trkpt><trkpt lat="43.27696593333333" lon="11.986705583333332"><ele>532.0</ele><time>2026-03-31T09:26:29.013Z</time></trkpt><trkpt lat="43.27696656666667" lon="11.986793033333335"><ele>532.0</ele><time>2026-03-31T09:26:33.005Z</time></trkpt><trkpt lat="43.27693814999999" lon="11.986870266666665"><ele>532.0</ele><time>2026-03-31T09:26:38.037Z</time></trkpt><trkpt lat="43.27690625" lon="11.986773300000001"><ele>532.0</ele><time>2026-03-31T09:26:46.022Z</time></trkpt><trkpt lat="43.27691733333333" lon="11.986679733333334"><ele>532.0</ele><time>2026-03-31T09:26:50.039Z</time></trkpt><trkpt lat="43.27695908333333" lon="11.986583199999998"><ele>532.0</ele><time>2026-03-31T09:26:54.043Z</time></trkpt><trkpt lat="43.276927816666664" lon="11.986503833333332"><ele>532.0</ele><time>2026-03-31T09:26:57.04Z</time></trkpt><trkpt lat="43.27686576666667" lon="11.986445666666667"><ele>532.0</ele><time>2026-03-31T09:27:01.033Z</time></trkpt><trkpt lat="43.276778" lon="11.986508083333336"><ele>532.0</ele><time>2026-03-31T09:27:06.05Z</time></trkpt><trkpt lat="43.276741583333326" lon="11.98659885"><ele>532.0</ele><time>2026-03-31T09:27:10.054Z</time></trkpt><trkpt lat="43.27674526666666" lon="11.986702183333334"><ele>532.0</ele><time>2026-03-31T09:27:14.06Z</time></trkpt><trkpt lat="43.27680566666666" lon="11.986795716666666"><ele>532.0</ele><time>2026-03-31T09:27:17.055Z</time></trkpt><trkpt lat="43.276849750000004" lon="11.986889733333332"><ele>532.0</ele><time>2026-03-31T09:27:20.058Z</time></trkpt><trkpt lat="43.27683343333333" lon="11.986782000000002"><ele>532.0</ele><time>2026-03-31T09:27:41.163Z</time></trkpt><trkpt lat="43.27681835" lon="11.986686366666666"><ele>532.0</ele><time>2026-03-31T09:27:46.158Z</time></trkpt><trkpt lat="43.2767515" lon="11.986656416666666"><ele>532.0</ele><time>2026-03-31T09:27:52.166Z</time></trkpt><trkpt lat="43.27667571666666" lon="11.986700666666664"><ele>532.0</ele><time>2026-03-31T09:27:57.161Z</time></trkpt><trkpt lat="43.276600683333335" lon="11.9866941"><ele>532.0</ele><time>2026-03-31T09:28:01.165Z</time></trkpt><trkpt lat="43.2765355" lon="11.986672566666668"><ele>532.0</ele><time>2026-03-31T09:28:05.193Z</time></trkpt><trkpt lat="43.27645996666667" lon="11.986658499999999"><ele>532.0</ele><time>2026-03-31T09:28:09.2Z</time></trkpt><trkpt lat="43.276395283333336" lon="11.98658005"><ele>532.0</ele><time>2026-03-31T09:28:13.187Z</time></trkpt><trkpt lat="43.27634648333333" lon="11.986640733333335"><ele>532.0</ele><time>2026-03-31T09:28:23.2Z</time></trkpt><trkpt lat="43.276386800000004" lon="11.986725766666666"><ele>532.0</ele><time>2026-03-31T09:28:29.229Z</time></trkpt><trkpt lat="43.27641489999999" lon="11.986807133333333"><ele>532.0</ele><time>2026-03-31T09:28:34.231Z</time></trkpt><trkpt lat="43.276457" lon="11.986878566666668"><ele>532.0</ele><time>2026-03-31T09:28:40.231Z</time></trkpt><trkpt lat="43.27642086666667" lon="11.986953816666668"><ele>532.0</ele><time>2026-03-31T09:28:50.266Z</time></trkpt><trkpt lat="43.276374316666676" lon="11.9870198"><ele>532.0</ele><time>2026-03-31T09:28:56.265Z</time></trkpt><trkpt lat="43.27633148333333" lon="11.987084783333334"><ele>533.1428571428571</ele><time>2026-03-31T09:29:01.292Z</time></trkpt><trkpt lat="43.27627283333333" lon="11.987132266666668"><ele>534.2857142857142</ele><time>2026-03-31T09:29:07.352Z</time></trkpt><trkpt lat="43.2762068" lon="11.987133749999998"><ele>535.4285714285714</ele><time>2026-03-31T09:29:10.367Z</time></trkpt><trkpt lat="43.27612881666667" lon="11.9871264"><ele>536.5714285714286</ele><time>2026-03-31T09:29:13.337Z</time></trkpt><trkpt lat="43.27605775000001" lon="11.9871336"><ele>537.7142857142857</ele><time>2026-03-31T09:29:16.277Z</time></trkpt><trkpt lat="43.27598331666666" lon="11.987168033333335"><ele>538.8571428571429</ele><time>2026-03-31T09:29:19.282Z</time></trkpt><trkpt lat="43.27589955" lon="11.987196833333334"><ele>540.0</ele><time>2026-03-31T09:29:22.281Z</time></trkpt><trkpt lat="43.27582875" lon="11.987226533333333"><ele>540.0</ele><time>2026-03-31T09:29:26.31Z</time></trkpt><trkpt lat="43.275765166666666" lon="11.987280233333335"><ele>540.0</ele><time>2026-03-31T09:29:32.3Z</time></trkpt><trkpt lat="43.27575593333332" lon="11.987375783333334"><ele>540.0</ele><time>2026-03-31T09:29:40.315Z</time></trkpt><trkpt lat="43.27579539999999" lon="11.987444816666669"><ele>540.0</ele><time>2026-03-31T09:29:43.325Z</time></trkpt><trkpt lat="43.27581095000001" lon="11.9875382"><ele>540.0</ele><time>2026-03-31T09:29:49.325Z</time></trkpt><trkpt lat="43.27584126666667" lon="11.987633416666666"><ele>540.0</ele><time>2026-03-31T09:29:57.33Z</time></trkpt><trkpt lat="43.27584804999999" lon="11.987730366666664"><ele>540.0</ele><time>2026-03-31T09:30:02.354Z</time></trkpt><trkpt lat="43.27585585" lon="11.987836250000003"><ele>541.7142857142857</ele><time>2026-03-31T09:30:09.366Z</time></trkpt><trkpt lat="43.27585193333332" lon="11.987928266666664"><ele>543.4285714285713</ele><time>2026-03-31T09:30:16.359Z</time></trkpt><trkpt lat="43.27583528333333" lon="11.988011749999998"><ele>545.1428571428571</ele><time>2026-03-31T09:30:23.38Z</time></trkpt><trkpt lat="43.27587538333334" lon="11.988116316666666"><ele>546.8571428571429</ele><time>2026-03-31T09:30:29.38Z</time></trkpt><trkpt lat="43.27593778333333" lon="11.988181916666667"><ele>548.5714285714287</ele><time>2026-03-31T09:30:33.395Z</time></trkpt><trkpt lat="43.275988116666674" lon="11.988235066666666"><ele>550.2857142857143</ele><time>2026-03-31T09:30:37.398Z</time></trkpt><trkpt lat="43.276029533333336" lon="11.988308316666666"><ele>552.0</ele><time>2026-03-31T09:30:43.41Z</time></trkpt><trkpt lat="43.27610175" lon="11.988325616666668"><ele>552.0</ele><time>2026-03-31T09:30:53.404Z</time></trkpt><trkpt lat="43.276176916666664" lon="11.988346216666667"><ele>552.0</ele><time>2026-03-31T09:30:58.42Z</time></trkpt><trkpt lat="43.27626811666667" lon="11.988340133333335"><ele>552.0</ele><time>2026-03-31T09:31:02.411Z</time></trkpt><trkpt lat="43.2762103" lon="11.988305649999997"><ele>552.0</ele><time>2026-03-31T09:31:06.426Z</time></trkpt><trkpt lat="43.27612868333334" lon="11.988300783333333"><ele>552.0</ele><time>2026-03-31T09:31:10.445Z</time></trkpt><trkpt lat="43.27606345000001" lon="11.988296783333332"><ele>552.0</ele><time>2026-03-31T09:31:13.444Z</time></trkpt><trkpt lat="43.275994383333334" lon="11.988274816666667"><ele>552.0</ele><time>2026-03-31T09:31:16.442Z</time></trkpt><trkpt lat="43.27594913333334" lon="11.988343083333332"><ele>553.8571428571429</ele><time>2026-03-31T09:31:21.436Z</time></trkpt><trkpt lat="43.27592915" lon="11.988436166666668"><ele>555.7142857142858</ele><time>2026-03-31T09:31:25.446Z</time></trkpt><trkpt lat="43.27590501666667" lon="11.988520999999999"><ele>557.5714285714286</ele><time>2026-03-31T09:31:29.469Z</time></trkpt><trkpt lat="43.27593256666667" lon="11.98861615"><ele>559.4285714285714</ele><time>2026-03-31T09:31:33.456Z</time></trkpt><trkpt lat="43.27596058333334" lon="11.988701133333333"><ele>561.2857142857142</ele><time>2026-03-31T09:31:37.472Z</time></trkpt><trkpt lat="43.27599648333333" lon="11.988789216666664"><ele>563.1428571428571</ele><time>2026-03-31T09:31:41.463Z</time></trkpt><trkpt lat="43.276040683333335" lon="11.988872616666667"><ele>565.0</ele><time>2026-03-31T09:31:44.476Z</time></trkpt><trkpt lat="43.2760758" lon="11.988958449999998"><ele>564.9999999999999</ele><time>2026-03-31T09:31:51.476Z</time></trkpt><trkpt lat="43.276120383333335" lon="11.989033683333332"><ele>565.0</ele><time>2026-03-31T09:31:57.5Z</time></trkpt><trkpt lat="43.27615566666667" lon="11.989106883333333"><ele>565.0</ele><time>2026-03-31T09:32:01.489Z</time></trkpt><trkpt lat="43.27619033333334" lon="11.989181599999998"><ele>565.0</ele><time>2026-03-31T09:32:05.491Z</time></trkpt><trkpt lat="43.27624491666667" lon="11.989245433333334"><ele>565.0</ele><time>2026-03-31T09:32:09.499Z</time></trkpt><trkpt lat="43.2762836" lon="11.989313699999999"><ele>564.9999999999999</ele><time>2026-03-31T09:32:13.511Z</time></trkpt><trkpt lat="43.27631848333334" lon="11.989397083333332"><ele>565.0</ele><time>2026-03-31T09:32:18.519Z</time></trkpt><trkpt lat="43.276350283333336" lon="11.989479600000001"><ele>566.1428571428571</ele><time>2026-03-31T09:32:24.522Z</time></trkpt><trkpt lat="43.27637668333333" lon="11.98956055"><ele>567.2857142857142</ele><time>2026-03-31T09:32:35.553Z</time></trkpt><trkpt lat="43.27635313333334" lon="11.989643483333335"><ele>568.4285714285714</ele><time>2026-03-31T09:32:52.554Z</time></trkpt><trkpt lat="43.2763878" lon="11.989717616666669"><ele>569.5714285714286</ele><time>2026-03-31T09:32:58.561Z</time></trkpt><trkpt lat="43.27643426666667" lon="11.98977895"><ele>570.7142857142858</ele><time>2026-03-31T09:33:20.612Z</time></trkpt><trkpt lat="43.2764747" lon="11.98986155"><ele>571.8571428571429</ele><time>2026-03-31T09:33:26.612Z</time></trkpt><trkpt lat="43.2764752" lon="11.98994905"><ele>573.0</ele><time>2026-03-31T09:33:31.616Z</time></trkpt><trkpt lat="43.27643221666667" lon="11.990046016666668"><ele>574.5714285714286</ele><time>2026-03-31T09:33:34.607Z</time></trkpt><trkpt lat="43.27639168333334" lon="11.990119833333331"><ele>576.1428571428572</ele><time>2026-03-31T09:33:37.612Z</time></trkpt><trkpt lat="43.276354850000004" lon="11.990191266666667"><ele>577.7142857142858</ele><time>2026-03-31T09:33:41.632Z</time></trkpt><trkpt lat="43.276314983333336" lon="11.990259833333335"><ele>579.2857142857143</ele><time>2026-03-31T09:33:45.62Z</time></trkpt><trkpt lat="43.27630668333333" lon="11.9903487"><ele>580.8571428571429</ele><time>2026-03-31T09:33:52.631Z</time></trkpt><trkpt lat="43.27635481666666" lon="11.990420600000002"><ele>582.4285714285714</ele><time>2026-03-31T09:33:59.647Z</time></trkpt><trkpt lat="43.27637613333333" lon="11.990503116666666"><ele>584.0</ele><time>2026-03-31T09:34:38.688Z</time></trkpt><trkpt lat="43.27641761666666" lon="11.990585199999998"><ele>585.7142857142857</ele><time>2026-03-31T09:34:46.858Z</time></trkpt><trkpt lat="43.276475399999995" lon="11.990640483333335"><ele>587.4285714285714</ele><time>2026-03-31T09:34:51.865Z</time></trkpt><trkpt lat="43.276529749999995" lon="11.990704366666666"><ele>589.1428571428571</ele><time>2026-03-31T09:34:57.894Z</time></trkpt><trkpt lat="43.27658786666666" lon="11.990747616666665"><ele>590.8571428571429</ele><time>2026-03-31T09:35:04.031Z</time></trkpt><trkpt lat="43.27661216666667" lon="11.990839916666667"><ele>592.5714285714286</ele><time>2026-03-31T09:35:11.166Z</time></trkpt><trkpt lat="43.276645300000006" lon="11.990922666666666"><ele>594.2857142857142</ele><time>2026-03-31T09:35:18.293Z</time></trkpt><trkpt lat="43.27657311666667" lon="11.990936916666666"><ele>596.0</ele><time>2026-03-31T09:36:03.658Z</time></trkpt><trkpt lat="43.27651461666666" lon="11.990970216666664"><ele>595.3333333333333</ele><time>2026-03-31T09:36:06.64Z</time></trkpt><trkpt lat="43.27645046666667" lon="11.991008683333332"><ele>594.6666666666666</ele><time>2026-03-31T09:36:09.649Z</time></trkpt><trkpt lat="43.27639691666667" lon="11.991062016666667"><ele>594.0</ele><time>2026-03-31T09:36:13.716Z</time></trkpt><trkpt lat="43.27633685000001" lon="11.991143316666667"><ele>593.3333333333334</ele><time>2026-03-31T09:36:25.73Z</time></trkpt><trkpt lat="43.27634320000001" lon="11.991245550000002"><ele>592.6666666666667</ele><time>2026-03-31T09:36:29.73Z</time></trkpt><trkpt lat="43.276423449999996" lon="11.991279916666667"><ele>592.0</ele><time>2026-03-31T09:36:33.816Z</time></trkpt><trkpt lat="43.27650678333333" lon="11.991298083333334"><ele>595.8333333333334</ele><time>2026-03-31T09:36:36.816Z</time></trkpt><trkpt lat="43.27658995" lon="11.991324566666666"><ele>599.6666666666667</ele><time>2026-03-31T09:36:39.816Z</time></trkpt><trkpt lat="43.27666896666666" lon="11.9913646"><ele>603.5</ele><time>2026-03-31T09:36:42.821Z</time></trkpt><trkpt lat="43.27667435" lon="11.991469300000002"><ele>607.3333333333334</ele><time>2026-03-31T09:36:46.901Z</time></trkpt><trkpt lat="43.27664029999999" lon="11.991561383333332"><ele>611.1666666666666</ele><time>2026-03-31T09:36:50.177Z</time></trkpt><trkpt lat="43.27658960000001" lon="11.991635799999997"><ele>615.0</ele><time>2026-03-31T09:36:53.166Z</time></trkpt><trkpt lat="43.27654916666667" lon="11.991707466666666"><ele>617.0</ele><time>2026-03-31T09:36:56.193Z</time></trkpt><trkpt lat="43.2765429" lon="11.991795566666667"><ele>619.0</ele><time>2026-03-31T09:37:00.195Z</time></trkpt><trkpt lat="43.276549599999996" lon="11.992004566666665"><ele>621.0</ele><time>2026-03-31T09:37:32.542Z</time></trkpt><trkpt lat="43.2765798" lon="11.992095316666667"><ele>623.0</ele><time>2026-03-31T09:37:41.705Z</time></trkpt><trkpt lat="43.27665766666667" lon="11.992135866666667"><ele>625.0</ele><time>2026-03-31T09:37:45.725Z</time></trkpt><trkpt lat="43.27671971666667" lon="11.992182916666666"><ele>627.0</ele><time>2026-03-31T09:37:48.705Z</time></trkpt><trkpt lat="43.276796499999996" lon="11.992224849999998"><ele>627.0</ele><time>2026-03-31T09:37:51.77Z</time></trkpt><trkpt lat="43.276866783333325" lon="11.99224565"><ele>627.0</ele><time>2026-03-31T09:37:54.775Z</time></trkpt></trkseg></trk></gpx>